[[{"header":{"parameterUnit":"m.s-1","parameterCategory":1,"la1":30.6,"la2":29.2853,"lo1":-89.7004,"lo2":-87.6739,"dy":0.0162,"dx":0.0183,"nx":112,"ny":82,"refTime":"2023-05-22T12:00:00:Z","depth":0,"parameterNumber":2,"parameterNumberName":"U-component_of_WINDS"},"data":[0.0,0.0,0.0,0.0,0.0,0.0,0.0,0.0,0.0,0.0,0.0,0.0,0.0,0.0,0.0,0.0,0.0,0.0,0.0,0.0,0.0,0.0,0.0,0.0,0.0,0.0,0.0,0.0,0.0,0.0,0.0,0.0,0.0,0.0,0.0,0.0,0.0,0.0,0.0,0.0,0.0,0.0,0.0,0.0,0.0,0.0,0.0,0.0,0.0,0.0,0.0,0.0,0.0,0.0,0.0,0.0,0.0,0.0,0.0,0.0,0.0,0.0,0.0,0.0,0.0,0.0,0.0,0.0,0.0,0.0,0.0,0.0,0.0,0.0,0.0,0.0,0.0,0.0,0.0,0.0,0.0,0.0,0.0,0.0,0.0,0.0,0.0,0.0,0.0,0.0,-4.0858,-4.0807,-4.0792,-4.0788,-4.0788,-4.0803,-4.079,-4.079,0.0,0.0,0.0,0.0,0.0,0.0,0.0,0.0,0.0,0.0,0.0,0.0,0.0,0.0,0.0,0.0,0.0,0.0,0.0,0.0,0.0,0.0,0.0,0.0,0.0,0.0,0.0,0.0,0.0,0.0,0.0,0.0,0.0,0.0,0.0,0.0,0.0,0.0,0.0,0.0,0.0,0.0,0.0,0.0,0.0,0.0,0.0,0.0,0.0,0.0,0.0,0.0,0.0,0.0,0.0,0.0,0.0,0.0,0.0,0.0,0.0,0.0,0.0,0.0,0.0,0.0,0.0,0.0,0.0,0.0,0.0,0.0,0.0,0.0,0.0,0.0,0.0,0.0,0.0,0.0,0.0,0.0,0.0,0.0,0.0,0.0,0.0,0.0,0.0,0.0,0.0,0.0,0.0,0.0,0.0,0.0,0.0,0.0,0.0,0.0,0.0,0.0,0.0,0.0,-4.0804,-4.0812,-4.0796,-4.0803,-4.0803,-4.0803,-4.079,-4.079,0.0,0.0,0.0,0.0,0.0,0.0,0.0,0.0,0.0,0.0,0.0,0.0,0.0,0.0,0.0,0.0,0.0,0.0,0.0,0.0,0.0,0.0,0.0,0.0,0.0,0.0,0.0,0.0,0.0,0.0,0.0,0.0,0.0,0.0,0.0,0.0,0.0,0.0,0.0,0.0,0.0,0.0,0.0,0.0,0.0,0.0,0.0,0.0,0.0,0.0,0.0,0.0,0.0,0.0,0.0,0.0,0.0,0.0,0.0,0.0,0.0,0.0,0.0,0.0,0.0,0.0,0.0,0.0,0.0,0.0,0.0,0.0,0.0,0.0,0.0,0.0,0.0,0.0,0.0,0.0,0.0,0.0,0.0,0.0,0.0,0.0,0.0,0.0,0.0,0.0,0.0,0.0,0.0,0.0,0.0,0.0,0.0,0.0,0.0,0.0,0.0,0.0,0.0,-4.0788,-4.0752,-4.0796,-4.0803,-4.079,-4.079,-4.079,-4.079,-4.0746,-4.0668,0.0,0.0,0.0,0.0,0.0,0.0,0.0,0.0,0.0,0.0,0.0,0.0,0.0,0.0,0.0,0.0,0.0,0.0,0.0,0.0,0.0,0.0,0.0,0.0,0.0,0.0,0.0,0.0,0.0,0.0,0.0,0.0,0.0,0.0,0.0,0.0,0.0,0.0,0.0,0.0,0.0,0.0,0.0,0.0,0.0,0.0,0.0,0.0,0.0,0.0,0.0,0.0,0.0,0.0,0.0,0.0,0.0,0.0,0.0,0.0,0.0,0.0,0.0,0.0,0.0,0.0,0.0,0.0,0.0,0.0,0.0,0.0,0.0,0.0,0.0,0.0,0.0,0.0,0.0,0.0,0.0,0.0,0.0,0.0,0.0,0.0,0.0,0.0,0.0,0.0,0.0,0.0,0.0,0.0,0.0,0.0,0.0,0.0,0.0,0.0,0.0,0.0,-4.0757,-4.07,-4.0746,-4.0746,-4.0746,-4.0746,-4.0746,-4.0733,-4.0687,-4.0621,0.0,0.0,0.0,0.0,0.0,0.0,0.0,0.0,0.0,0.0,0.0,0.0,0.0,0.0,0.0,0.0,0.0,0.0,0.0,0.0,0.0,0.0,0.0,0.0,0.0,0.0,0.0,0.0,0.0,0.0,0.0,0.0,0.0,0.0,0.0,0.0,0.0,0.0,0.0,0.0,0.0,0.0,0.0,0.0,0.0,0.0,0.0,0.0,0.0,0.0,0.0,0.0,0.0,0.0,0.0,0.0,0.0,0.0,0.0,0.0,0.0,0.0,0.0,0.0,0.0,0.0,0.0,0.0,0.0,0.0,0.0,0.0,0.0,0.0,0.0,0.0,0.0,0.0,0.0,0.0,0.0,0.0,0.0,0.0,0.0,0.0,0.0,0.0,0.0,0.0,0.0,0.0,0.0,0.0,0.0,0.0,0.0,0.0,0.0,0.0,0.0,0.0,-4.0668,-4.0687,-4.0621,-4.0621,-4.0621,-4.0621,-4.0621,-4.0621,-4.0621,-4.0588,0.0,0.0,0.0,0.0,0.0,0.0,0.0,0.0,0.0,0.0,0.0,0.0,0.0,0.0,0.0,0.0,0.0,0.0,0.0,0.0,0.0,0.0,0.0,0.0,0.0,0.0,0.0,0.0,0.0,0.0,0.0,0.0,0.0,0.0,0.0,0.0,0.0,0.0,0.0,0.0,0.0,0.0,0.0,0.0,0.0,0.0,0.0,0.0,0.0,0.0,0.0,0.0,0.0,0.0,0.0,0.0,0.0,0.0,0.0,0.0,0.0,0.0,0.0,0.0,0.0,0.0,0.0,0.0,0.0,0.0,0.0,0.0,0.0,0.0,0.0,0.0,0.0,0.0,0.0,0.0,0.0,0.0,0.0,0.0,0.0,0.0,0.0,0.0,0.0,0.0,0.0,0.0,0.0,0.0,0.0,0.0,0.0,0.0,0.0,0.0,0.0,0.0,-4.0655,-4.0668,-4.0602,-4.0588,-4.0588,-4.0588,-4.0588,-4.0607,-4.0598,0.0,0.0,0.0,0.0,0.0,0.0,0.0,0.0,0.0,0.0,0.0,0.0,0.0,0.0,0.0,0.0,0.0,0.0,0.0,0.0,0.0,0.0,0.0,0.0,0.0,0.0,0.0,0.0,0.0,0.0,0.0,0.0,0.0,0.0,0.0,0.0,0.0,0.0,0.0,0.0,0.0,0.0,0.0,0.0,0.0,0.0,0.0,0.0,0.0,0.0,0.0,0.0,0.0,0.0,0.0,0.0,0.0,0.0,0.0,0.0,0.0,0.0,0.0,0.0,0.0,0.0,0.0,0.0,0.0,0.0,0.0,0.0,0.0,0.0,0.0,0.0,0.0,0.0,0.0,0.0,0.0,0.0,0.0,0.0,0.0,0.0,0.0,0.0,0.0,0.0,0.0,0.0,0.0,0.0,0.0,0.0,0.0,0.0,0.0,0.0,0.0,0.0,-4.0642,-4.0674,-4.0667,-4.0629,-4.0588,-4.0579,-4.0579,-4.0579,-4.0564,-4.0573,0.0,0.0,0.0,0.0,0.0,0.0,0.0,0.0,0.0,0.0,0.0,0.0,0.0,0.0,0.0,0.0,0.0,0.0,0.0,0.0,0.0,0.0,0.0,0.0,0.0,0.0,0.0,0.0,0.0,0.0,0.0,0.0,0.0,0.0,0.0,0.0,0.0,0.0,0.0,0.0,0.0,0.0,0.0,0.0,0.0,0.0,0.0,0.0,0.0,0.0,0.0,0.0,0.0,0.0,0.0,0.0,0.0,0.0,0.0,0.0,0.0,0.0,0.0,0.0,0.0,0.0,0.0,0.0,0.0,0.0,0.0,0.0,0.0,0.0,0.0,0.0,0.0,0.0,0.0,0.0,0.0,0.0,0.0,0.0,0.0,0.0,0.0,0.0,0.0,0.0,0.0,0.0,0.0,0.0,0.0,0.0,0.0,0.0,0.0,0.0,0.0,0.0,-4.0706,-4.0699,-4.0692,-4.0694,-4.0574,-4.0504,-4.0489,-4.0489,-4.0489,0.0,0.0,0.0,0.0,0.0,0.0,0.0,0.0,0.0,0.0,0.0,0.0,0.0,0.0,0.0,0.0,0.0,0.0,0.0,0.0,0.0,0.0,0.0,0.0,0.0,0.0,0.0,0.0,0.0,0.0,0.0,0.0,0.0,0.0,0.0,0.0,0.0,0.0,0.0,0.0,0.0,0.0,0.0,0.0,0.0,0.0,0.0,0.0,0.0,0.0,0.0,0.0,0.0,0.0,0.0,0.0,0.0,0.0,0.0,0.0,0.0,0.0,0.0,0.0,0.0,0.0,0.0,0.0,0.0,0.0,0.0,0.0,0.0,0.0,0.0,0.0,0.0,0.0,0.0,0.0,0.0,0.0,0.0,0.0,0.0,0.0,0.0,0.0,0.0,0.0,0.0,0.0,0.0,0.0,0.0,0.0,0.0,0.0,0.0,0.0,0.0,0.0,0.0,-4.0718,-4.083,-4.0858,-4.0718,-4.0655,-4.0602,-4.0504,-4.0489,-4.0489,-4.0489,0.0,0.0,0.0,0.0,0.0,0.0,0.0,0.0,0.0,0.0,0.0,0.0,0.0,0.0,0.0,0.0,0.0,0.0,0.0,0.0,0.0,0.0,0.0,0.0,0.0,0.0,0.0,0.0,0.0,0.0,0.0,0.0,0.0,0.0,0.0,0.0,0.0,0.0,0.0,0.0,0.0,0.0,0.0,0.0,0.0,0.0,0.0,0.0,0.0,0.0,0.0,0.0,0.0,0.0,0.0,0.0,0.0,0.0,0.0,0.0,0.0,0.0,0.0,0.0,0.0,0.0,0.0,0.0,0.0,0.0,0.0,0.0,0.0,0.0,0.0,0.0,0.0,0.0,0.0,0.0,0.0,0.0,0.0,0.0,0.0,0.0,0.0,0.0,0.0,0.0,0.0,0.0,0.0,0.0,0.0,0.0,0.0,0.0,0.0,0.0,0.0,0.0,-4.083,-4.0937,-4.096,-4.083,-4.0779,-4.0703,-4.063,-4.0602,-4.0602,-4.0617,0.0,0.0,0.0,0.0,0.0,0.0,0.0,0.0,0.0,0.0,0.0,0.0,0.0,0.0,0.0,0.0,0.0,0.0,0.0,0.0,0.0,0.0,0.0,0.0,0.0,0.0,0.0,0.0,0.0,0.0,0.0,0.0,0.0,0.0,0.0,0.0,0.0,0.0,0.0,0.0,0.0,0.0,0.0,0.0,0.0,0.0,0.0,0.0,0.0,0.0,0.0,0.0,0.0,0.0,0.0,0.0,0.0,0.0,0.0,0.0,0.0,0.0,0.0,0.0,0.0,0.0,0.0,0.0,0.0,0.0,0.0,0.0,0.0,0.0,0.0,0.0,0.0,0.0,0.0,0.0,0.0,0.0,0.0,0.0,0.0,0.0,0.0,0.0,0.0,0.0,0.0,0.0,0.0,0.0,0.0,0.0,0.0,0.0,0.0,0.0,0.0,0.0,-4.0994,-4.1019,-4.1019,-4.0994,-4.089,-4.082,-4.0791,-4.0738,-4.0746,-4.0801,0.0,0.0,0.0,0.0,0.0,0.0,0.0,0.0,0.0,0.0,0.0,0.0,0.0,0.0,0.0,0.0,0.0,0.0,0.0,0.0,0.0,0.0,0.0,0.0,0.0,0.0,0.0,0.0,0.0,0.0,0.0,0.0,0.0,0.0,0.0,0.0,0.0,0.0,0.0,0.0,0.0,0.0,0.0,0.0,0.0,0.0,0.0,0.0,0.0,0.0,0.0,0.0,0.0,0.0,0.0,0.0,0.0,0.0,0.0,0.0,-4.6196,-4.6196,0.0,0.0,0.0,0.0,0.0,0.0,0.0,0.0,0.0,0.0,0.0,0.0,0.0,0.0,0.0,0.0,0.0,0.0,0.0,0.0,0.0,0.0,0.0,0.0,0.0,0.0,0.0,0.0,0.0,0.0,0.0,0.0,0.0,0.0,0.0,0.0,0.0,0.0,0.0,0.0,-4.1019,-4.1052,-4.1061,-4.1019,-4.0981,-4.0906,-4.082,-4.0791,-4.0781,-4.081,-4.0771,0.0,0.0,0.0,0.0,0.0,0.0,0.0,0.0,0.0,0.0,0.0,0.0,0.0,0.0,0.0,0.0,0.0,0.0,0.0,0.0,0.0,0.0,0.0,0.0,0.0,0.0,0.0,0.0,0.0,0.0,0.0,0.0,0.0,0.0,0.0,0.0,0.0,0.0,0.0,0.0,0.0,0.0,0.0,0.0,0.0,0.0,0.0,0.0,0.0,0.0,0.0,0.0,0.0,0.0,0.0,0.0,0.0,0.0,0.0,-4.6196,-4.6196,0.0,0.0,0.0,0.0,0.0,0.0,0.0,0.0,0.0,0.0,0.0,0.0,0.0,0.0,0.0,0.0,0.0,0.0,0.0,0.0,0.0,0.0,0.0,0.0,0.0,0.0,0.0,0.0,0.0,0.0,0.0,0.0,0.0,0.0,0.0,0.0,0.0,0.0,0.0,0.0,-4.1057,-4.1078,-4.1081,-4.1057,-4.1057,-4.1022,-4.0955,-4.0921,-4.0914,-4.0948,-4.0843,0.0,0.0,0.0,0.0,0.0,0.0,0.0,0.0,0.0,0.0,0.0,0.0,0.0,0.0,0.0,0.0,0.0,0.0,0.0,0.0,0.0,0.0,0.0,0.0,0.0,0.0,0.0,0.0,0.0,0.0,0.0,0.0,0.0,0.0,0.0,0.0,0.0,0.0,0.0,0.0,0.0,0.0,0.0,0.0,0.0,0.0,0.0,0.0,0.0,0.0,0.0,0.0,0.0,-4.6196,-4.6196,-4.6196,-4.6196,-4.6196,-4.6196,-4.6196,-4.6196,-4.6196,-4.6196,0.0,0.0,0.0,0.0,0.0,0.0,0.0,0.0,0.0,0.0,0.0,0.0,0.0,0.0,0.0,0.0,0.0,0.0,0.0,0.0,0.0,0.0,-4.6195,-4.6195,-4.6199,-4.6206,-4.6189,0.0,0.0,0.0,0.0,0.0,0.0,0.0,0.0,0.0,0.0,0.0,-4.1108,-4.1108,-4.1108,-4.1108,-4.1108,-4.1108,-4.1108,-4.1057,-4.1033,-4.1108,-4.0935,-4.0906,0.0,0.0,0.0,0.0,0.0,0.0,0.0,0.0,0.0,0.0,0.0,0.0,0.0,0.0,0.0,0.0,0.0,0.0,0.0,0.0,0.0,0.0,0.0,0.0,0.0,0.0,0.0,0.0,0.0,0.0,0.0,0.0,-4.487,-4.4895,0.0,0.0,0.0,0.0,0.0,0.0,0.0,0.0,0.0,0.0,0.0,0.0,0.0,-4.6189,-4.6189,-4.6196,-4.6196,-4.6196,-4.6196,-4.6196,-4.6196,-4.6196,-4.6196,-4.6196,-4.6196,0.0,-4.6196,-4.6196,0.0,0.0,0.0,0.0,0.0,0.0,0.0,0.0,0.0,0.0,0.0,0.0,0.0,0.0,0.0,0.0,0.0,0.0,0.0,0.0,0.0,0.0,-4.6196,-4.6196,-4.6196,-4.619,-4.6196,-4.6195,-4.5992,-4.5312,-4.4373,-4.3453,0.0,0.0,0.0,0.0,0.0,0.0,-4.1108,-4.1108,-4.1108,-4.1108,-4.1108,-4.1108,-4.1108,-4.1085,-4.1085,-4.1108,-4.1081,-4.1037,-4.0994,-4.0994,0.0,0.0,0.0,0.0,0.0,0.0,0.0,0.0,0.0,0.0,0.0,0.0,0.0,0.0,0.0,0.0,0.0,0.0,0.0,0.0,0.0,0.0,0.0,0.0,0.0,0.0,0.0,0.0,0.0,-4.4919,-4.4962,-4.4962,-4.5282,-4.551,0.0,0.0,0.0,0.0,0.0,0.0,0.0,0.0,0.0,-4.6154,-4.6189,-4.6196,-4.6196,-4.6196,-4.6196,-4.6196,-4.6196,-4.6196,-4.6196,-4.6196,-4.6196,-4.6196,-4.6196,-4.6196,-4.6196,-4.6196,-4.6196,-4.6203,0.0,0.0,0.0,0.0,-4.6204,-4.6202,-4.6192,-4.6206,-4.6206,-4.6206,0.0,0.0,0.0,0.0,0.0,0.0,0.0,-4.62,-4.6195,-4.6197,-4.6195,-4.6203,-4.6196,-4.6196,-4.6196,-4.5825,-4.5371,-4.5006,-4.4276,-4.3416,-4.255,-4.1682,0.0,0.0,0.0,-4.1108,-4.1108,-4.1108,-4.1108,-4.1108,-4.1108,-4.1108,-4.1108,-4.1108,-4.1108,-4.1108,-4.1108,-4.1081,-4.1061,-4.1061,-4.1061,0.0,0.0,0.0,0.0,0.0,0.0,0.0,0.0,0.0,0.0,0.0,0.0,0.0,0.0,0.0,0.0,0.0,0.0,0.0,0.0,0.0,0.0,0.0,0.0,0.0,0.0,0.0,0.0,-4.4943,-4.4991,-4.4991,-4.5322,-4.5526,0.0,0.0,0.0,0.0,0.0,0.0,-4.6196,-4.6196,-4.6196,-4.6196,-4.6196,-4.6196,-4.6196,-4.6196,-4.6196,-4.6196,-4.6196,-4.6196,-4.6196,-4.6196,-4.6196,-4.6196,-4.6196,-4.6196,-4.6196,-4.6196,-4.6196,-4.6203,-4.6201,-4.6192,-4.6197,-4.6202,-4.6209,-4.6206,-4.6201,-4.6192,-4.6192,-4.6192,-4.6201,-4.6195,-4.6198,0.0,0.0,0.0,0.0,-4.6192,-4.6201,-4.6192,-4.6206,-4.6209,-4.6196,-4.6137,-4.5923,-4.5352,-4.4824,-4.4601,-4.3917,-4.3086,-4.2225,-4.1531,0.0,-4.1108,-4.1108,-4.1108,-4.1108,-4.1108,-4.1108,-4.1108,-4.1108,-4.1108,-4.1108,-4.1108,-4.1108,-4.1108,-4.1108,-4.1108,-4.1108,-4.1108,-4.1108,-4.1108,0.0,0.0,0.0,0.0,0.0,0.0,0.0,0.0,0.0,0.0,0.0,0.0,0.0,0.0,0.0,0.0,0.0,0.0,0.0,0.0,0.0,0.0,0.0,0.0,0.0,0.0,0.0,0.0,0.0,-4.4991,-4.5197,0.0,0.0,0.0,0.0,-4.6093,-4.6154,-4.6196,-4.6196,-4.6196,-4.6196,-4.6196,-4.6196,-4.6196,-4.6196,-4.6196,-4.6196,-4.6196,-4.6196,-4.6196,-4.6196,-4.6196,-4.6196,-4.6196,-4.6196,-4.6196,-4.6196,-4.6196,-4.6196,-4.6196,-4.6203,-4.6203,-4.6203,-4.6203,-4.6203,-4.6203,-4.6203,-4.6203,-4.6203,-4.6203,-4.6195,-4.6191,-4.6192,-4.62,0.0,0.0,-4.6206,-4.6201,-4.6196,-4.6203,-4.6203,-4.6196,-4.6196,-4.5962,-4.5144,-4.4933,-4.4664,-4.3821,-4.3027,-4.2185,-4.1327,0.0,-4.1108,-4.1108,-4.1108,-4.1108,-4.1108,-4.1108,-4.1108,-4.1108,-4.1108,-4.1108,-4.1108,-4.1108,-4.1108,-4.1108,-4.1108,-4.1108,-4.1108,-4.1108,-4.1108,-4.1108,-4.1094,0.0,0.0,0.0,0.0,0.0,0.0,0.0,0.0,0.0,0.0,0.0,0.0,0.0,0.0,0.0,0.0,0.0,0.0,0.0,0.0,0.0,0.0,0.0,0.0,0.0,0.0,0.0,0.0,-4.5125,-4.5302,0.0,-4.565,-4.5854,-4.6017,-4.6154,-4.6189,-4.6196,-4.6196,-4.6196,-4.6196,-4.6196,-4.6196,-4.6196,-4.6196,-4.6196,-4.6196,-4.6196,-4.6196,-4.6196,-4.6196,-4.6196,-4.6196,-4.6196,-4.6196,-4.6196,-4.6196,-4.6196,-4.6196,-4.6196,-4.6196,-4.6196,-4.6196,-4.6196,-4.6196,-4.6196,-4.6196,-4.6196,-4.6196,-4.6196,-4.619,-4.6209,-4.6201,-4.6206,-4.6211,-4.6206,-4.6195,-4.6203,-4.6203,-4.6196,-4.6196,-4.6196,-4.5767,-4.528,-4.4968,-4.4027,-4.3122,-4.283,-4.2568,-4.2124,-4.1248,-4.1093,-4.1103,-4.1091,-4.1108,-4.1108,-4.1108,-4.1108,-4.1108,-4.1108,-4.1108,-4.1108,-4.1108,-4.1108,-4.1108,-4.1108,-4.1108,-4.1108,-4.1108,-4.1108,-4.1091,-4.1097,-4.1097,-4.1099,0.0,0.0,0.0,0.0,0.0,0.0,0.0,0.0,0.0,0.0,0.0,0.0,0.0,0.0,0.0,0.0,0.0,0.0,0.0,0.0,0.0,0.0,0.0,0.0,0.0,-4.508,-4.5148,-4.5192,-4.5341,-4.5491,-4.5615,-4.5736,-4.5922,-4.613,-4.6138,-4.6146,-4.6196,-4.6196,-4.6196,-4.6196,-4.6196,-4.6196,-4.6196,-4.6488,-4.6644,-4.6644,-4.6936,-4.7072,-4.7072,-4.7072,-4.6917,-4.6644,-4.6644,-4.6468,-4.6196,-4.6196,-4.6196,-4.6196,-4.6196,-4.6196,-4.6196,-4.6196,-4.6196,-4.6196,-4.6196,-4.6196,-4.6196,-4.6196,-4.6196,-4.6196,-4.6196,-4.6196,-4.6196,-4.6196,-4.6196,-4.6196,-4.6196,-4.6196,-4.6196,-4.6196,-4.5767,-4.526,-4.4949,-4.376,-4.265,-4.2357,-4.2124,-4.1782,-4.1197,-4.1093,-4.111,-4.1101,-4.1094,-4.1108,-4.1108,-4.1108,-4.1108,-4.1108,-4.1108,-4.1108,-4.1108,-4.1108,-4.1108,-4.1108,-4.1108,-4.1108,-4.1108,-4.1108,-4.1091,-4.1097,-4.1087,-4.1054,-4.1035,0.0,0.0,0.0,0.0,0.0,0.0,0.0,0.0,0.0,0.0,0.0,0.0,0.0,0.0,0.0,0.0,0.0,0.0,0.0,0.0,0.0,0.0,0.0,-4.4991,-4.5125,-4.5192,-4.5192,-4.5275,-4.5341,-4.5491,-4.549,-4.5638,-4.5975,-4.5997,-4.6066,-4.6189,-4.6196,-4.6196,-4.6196,-4.6235,-4.6235,-4.6235,-4.7111,-4.754,-4.754,-4.8397,-4.8806,-4.8806,-4.8806,-4.8339,-4.754,-4.754,-4.7053,-4.6235,-4.6235,-4.6215,-4.6196,-4.6196,-4.6196,-4.6196,-4.6196,-4.6196,-4.6196,-4.6196,-4.6196,-4.6196,-4.6196,-4.6196,-4.6196,-4.6196,-4.6196,-4.6196,-4.6196,-4.6196,-4.6196,-4.6196,-4.6196,-4.6196,-4.6196,-4.6176,-4.5923,-4.5085,-4.4228,-4.3344,-4.2494,-4.1691,-4.1133,-4.1094,-4.1108,-4.1092,-4.1092,-4.1103,0.0,-4.1091,-4.1091,-4.1111,-4.1108,-4.1108,-4.1108,-4.1108,-4.1108,-4.1108,-4.1108,-4.1108,-4.1108,-4.1091,-4.1091,-4.1091,-4.1094,-4.1035,-4.0955,-4.09,0.0,0.0,0.0,0.0,0.0,0.0,0.0,0.0,0.0,0.0,0.0,0.0,0.0,0.0,0.0,0.0,0.0,0.0,0.0,0.0,0.0,-4.5014,-4.5061,-4.5061,-4.5148,-4.5213,-4.5275,-4.5297,-4.5341,-4.5491,-4.549,-4.5591,-4.5777,-4.5914,-4.6017,-4.6047,-4.6146,-4.6196,-4.6196,-4.68,-4.7131,-4.7131,-4.8008,-4.8436,-4.8456,-4.869,-4.8806,-4.8806,-4.8806,-4.867,-4.8436,-4.8436,-4.7949,-4.7131,-4.7131,-4.6761,-4.6196,-4.6196,-4.6196,-4.6196,-4.6196,-4.6196,-4.6196,-4.6196,-4.6196,-4.6196,-4.6196,-4.6196,-4.6196,-4.6196,-4.6196,-4.6196,-4.6196,-4.6196,-4.6196,-4.6196,-4.6196,-4.6196,-4.6196,-4.5709,-4.5183,-4.4949,-4.4228,-4.352,-4.3286,-4.2539,-4.1783,-4.1207,-4.1108,-4.1101,-4.1091,-4.1093,-4.1094,-4.1108,-4.1107,-4.1103,-4.1091,-4.1108,-4.1108,-4.1108,-4.1108,-4.1108,-4.1108,-4.1108,-4.1097,-4.1107,-4.1054,-4.0994,-4.0952,-4.0937,-4.092,0.0,0.0,0.0,0.0,0.0,0.0,0.0,0.0,0.0,0.0,0.0,0.0,0.0,0.0,0.0,0.0,0.0,0.0,0.0,0.0,0.0,0.0,-4.4924,-4.5014,-4.4905,-4.5106,-4.5254,-4.5275,-4.5297,-4.5339,-4.5419,-4.5419,-4.5473,-4.5619,-4.6056,-4.6358,-4.6421,-4.6882,-4.7153,-4.7153,-4.7739,-4.8047,-4.8047,-4.8884,-4.9294,-4.9313,-4.9664,-4.9859,-4.9859,-4.9859,-4.9644,-4.9294,-4.9294,-4.8826,-4.8027,-4.7657,-4.7189,-4.6702,0.0,0.0,0.0,0.0,-4.6196,-4.6196,-4.6196,-4.6196,-4.6196,-4.6196,-4.6196,-4.6196,-4.6196,-4.6196,-4.6196,-4.6196,-4.6196,-4.6196,-4.6196,-4.6196,-4.6196,-4.6196,-4.5806,-4.5436,-4.5436,-4.4754,-4.415,-4.415,-4.3448,0.0,-4.1749,-4.1319,-4.1101,-4.1094,-4.1103,-4.111,-4.1094,-4.1094,-4.1094,-4.1091,-4.109,-4.109,-4.109,-4.109,0.0,0.0,0.0,-4.1093,-4.1053,-4.1011,0.0,0.0,0.0,-4.0863,-4.0855,-4.0871,0.0,0.0,-4.0848,-4.0821,0.0,0.0,0.0,0.0,0.0,0.0,0.0,0.0,0.0,0.0,0.0,0.0,0.0,0.0,0.0,0.0,-4.4688,-4.4857,-4.4624,-4.5076,-4.5371,-4.5233,-4.5352,-4.543,-4.543,-4.5507,-4.5628,-4.5762,-4.6491,-4.6964,-4.6974,-4.7928,0.0,0.0,0.0,-4.8916,-4.8943,-4.9742,-5.0151,-5.0151,-5.093,-5.13,-5.13,-5.13,-5.0872,-5.0151,-5.0151,-4.9683,-4.8865,-4.8008,-4.7521,-4.7287,-4.6507,-4.6196,-4.6196,-4.6196,-4.6196,-4.6196,-4.6196,0.0,0.0,-4.6196,-4.6196,-4.6196,-4.6196,-4.6196,-4.6196,-4.6196,-4.6196,-4.6196,-4.6196,-4.6196,-4.6196,-4.6196,-4.6196,-4.6196,-4.6196,-4.5592,-4.5046,-4.5046,-4.4345,-4.3468,-4.2611,-4.1769,-4.1207,-4.1109,-4.1091,-4.1103,-4.1105,-4.1105,-4.1105,-4.1107,-4.1107,0.0,-4.1107,-4.1107,-4.1107,-4.1107,-4.1105,-4.106,-4.0984,-4.098,-4.092,-4.079,-4.079,-4.0791,-4.079,-4.079,-4.079,-4.0803,-4.0863,-4.0813,0.0,0.0,0.0,0.0,0.0,0.0,0.0,0.0,0.0,0.0,0.0,0.0,0.0,0.0,0.0,-4.4136,-4.4383,-4.4599,-4.4599,-4.5561,-4.6037,-4.5352,-4.587,-4.6271,-4.6271,-4.6901,-4.7343,-4.7367,-4.7607,-4.7509,-4.6872,-4.7789,-4.807,-4.7473,-4.8854,-4.9664,-4.9761,-5.0618,-5.1047,-5.1047,-5.1222,0.0,-5.13,-5.13,-5.1203,-5.1047,-5.1047,-5.056,-4.9703,-4.8884,-4.7715,-4.6429,-4.6274,-4.6196,-4.6196,-4.6196,-4.6196,-4.6196,-4.6196,-4.6196,-4.6196,-4.6196,-4.6196,-4.6196,-4.6196,-4.6196,0.0,-4.6196,-4.6196,-4.6196,-4.6196,-4.6196,-4.6196,-4.6196,-4.6196,-4.6196,-4.6196,-4.6059,-4.5942,-4.5942,-4.5241,-4.4364,-4.3507,-4.2637,-4.1844,-4.1201,-4.1089,-4.1091,-4.1097,-4.1101,-4.1091,-4.1105,-4.1107,-4.1107,-4.1107,-4.1107,-4.1107,-4.1107,-4.1094,-4.1046,-4.0916,-4.0914,-4.0878,-4.08,-4.08,-4.0808,-4.079,-4.079,-4.079,-4.079,-4.0812,-4.075,0.0,0.0,0.0,0.0,0.0,0.0,0.0,0.0,0.0,0.0,0.0,-4.4802,-4.4457,0.0,-4.4242,-4.3767,-4.3986,-4.4344,-4.4696,-4.5435,-4.595,-4.5919,-4.6631,-4.715,-4.715,-4.715,-4.715,-4.715,-4.7197,-4.7067,-4.6685,-4.8008,-4.8646,-4.8256,-4.9673,-5.0487,-5.0549,-5.1042,-5.13,-5.13,-5.13,-5.13,-5.13,-5.13,-5.13,-5.13,-5.13,-5.1047,-5.056,-4.9313,-4.8027,-4.68,-4.6371,-4.6196,-4.6196,-4.6196,-4.6196,-4.6196,-4.6111,-4.6146,-4.6169,-4.5998,-4.6054,-4.6189,-4.613,-4.6146,-4.6196,-4.6196,-4.6196,-4.6196,-4.6196,-4.6196,-4.6196,-4.6196,-4.6196,-4.6196,-4.6196,-4.6196,-4.6196,-4.6196,-4.5845,-4.5144,-4.3838,-4.3227,-4.2533,-4.1286,-4.111,-4.1097,-4.11,-4.1106,-4.1091,-4.109,-4.1094,-4.1094,-4.1094,-4.1094,-4.1094,-4.1094,-4.1096,-4.1039,-4.091,-4.0906,-4.0877,-4.0803,-4.079,-4.079,-4.079,-4.079,-4.079,-4.079,-4.079,-4.0733,0.0,0.0,0.0,0.0,0.0,0.0,0.0,-4.4895,-4.4895,-4.4895,-4.4846,-4.4707,-4.4355,-4.4242,-4.4016,-4.3406,-4.3738,-4.4179,-4.4598,-4.5226,-4.58,-4.6282,-4.7082,-4.7567,-4.7484,-4.6988,-4.6705,-4.6748,-4.6748,-4.6691,-4.6519,-4.8084,-4.9029,-4.9067,-5.0167,-5.0862,-5.1105,-5.1211,-5.1265,-5.13,-5.13,-5.13,-5.13,-5.13,-5.13,-5.13,-5.13,-5.1125,-5.0716,-4.9317,-4.814,-4.7128,-4.6391,-4.6091,-4.6111,-4.6146,-4.6146,-4.6083,-4.5977,-4.6008,-4.6065,-4.5783,-4.5875,-4.6074,-4.5977,-4.6008,-4.6091,-4.6091,-4.6127,-4.6154,-4.6119,-4.6154,-4.6196,-4.6181,-4.6189,-4.6196,-4.6196,-4.6196,-4.6196,-4.6196,-4.6196,-4.565,-4.3897,-4.3598,-4.3039,-4.1344,-4.111,-4.111,-4.111,-4.111,-4.111,-4.111,-4.111,-4.111,-4.111,-4.111,-4.111,-4.111,-4.111,-4.1038,-4.0907,-4.0907,-4.0877,-4.0803,-4.079,-4.079,-4.079,-4.079,-4.079,-4.079,-4.079,-4.0746,-4.5827,-4.5629,-4.5381,-4.5235,-4.508,-4.4919,0.0,-4.4895,-4.4895,-4.4895,-4.4681,-4.4355,-4.4035,-4.3721,-4.3406,-4.3014,-4.3852,-4.4373,-4.3915,-4.5337,-4.6319,-4.5839,-4.6506,-4.6825,-4.6347,-4.6903,-4.7395,-4.7643,-4.7665,-4.7322,-4.6538,-4.7439,-4.8043,-4.8221,-4.9065,-5.0027,-5.1086,-5.1117,-5.1171,-5.13,-5.13,-5.13,-5.13,-5.13,-5.13,-5.13,-5.13,-5.0463,-4.9052,-4.8682,-4.7591,-4.6143,-4.5866,-4.5757,-4.577,-4.5966,-4.5914,-4.5757,-4.5731,-4.5744,-4.5744,-4.5717,-4.5731,-4.5757,-4.5731,-4.5744,-4.5757,-4.5757,-4.5883,-4.5977,-4.5803,-4.5978,-4.6162,-4.6037,-4.6102,-4.6196,-4.6196,-4.6196,-4.6196,-4.6196,-4.6196,-4.565,-4.3897,-4.3598,-4.3039,-4.1344,-4.111,-4.111,-4.111,-4.111,-4.111,-4.111,-4.111,-4.111,-4.111,-4.111,-4.111,-4.111,-4.111,-4.1038,-4.0907,-4.0907,-4.0877,-4.0803,-4.079,-4.079,-4.079,-4.079,-4.079,-4.079,-4.079,-4.0759,-4.5613,-4.5438,-4.5237,-4.5061,-4.4943,-4.4895,-4.4895,-4.4751,-4.461,-4.461,-4.4327,-4.4004,-4.3689,-4.349,-4.3301,-4.2957,-4.3304,-4.3743,-4.4051,-4.4814,-4.5281,-4.5134,-4.5426,-4.586,-4.6506,-4.6599,-4.6695,-4.6811,-4.653,-4.6194,-4.5812,-4.6596,-4.7078,-4.7163,-4.8087,-4.9082,-5.0027,-5.0172,-5.0494,-5.1023,-5.1023,-5.1023,-5.1023,-5.1023,-5.1023,-5.0984,-5.0518,-4.9916,-4.9167,-4.807,-4.7223,-4.6513,-4.5924,-4.5645,-4.5603,-4.5764,-4.5777,-4.5689,-4.56,-4.563,-4.5675,-4.5524,-4.5571,-4.5689,-4.5619,-4.563,-4.5703,-4.5703,-4.5744,-4.5803,-4.5717,-4.5796,-4.5886,-4.5847,-4.5871,-4.5917,-4.5917,-4.5917,-4.5938,-4.6056,-4.5676,-4.4954,-4.3805,-4.3169,-4.2455,-4.1286,-4.111,-4.111,-4.111,-4.111,-4.111,-4.111,-4.111,-4.111,-4.111,-4.111,-4.1078,-4.1038,-4.1038,-4.098,-4.0849,-4.0839,-4.0826,-4.0803,-4.079,-4.079,-4.079,-4.079,-4.079,-4.079,-4.079,-4.079,-4.5456,-4.53,-4.5148,-4.4943,-4.4895,-4.487,-4.4777,-4.4584,-4.4355,-4.427,-4.4004,-4.3689,-4.3422,-4.3336,-4.3178,-4.2957,-4.3081,-4.3429,-4.398,-4.4254,-4.4401,-4.4344,-4.4343,-4.477,-4.5861,-4.5698,-4.5549,-4.5628,-4.5342,-4.5173,-4.5173,-4.5789,-4.6271,-4.65,-4.726,-4.8068,-4.8952,-4.9114,-4.9502,-5.0109,-5.0109,-5.0109,-5.0109,-5.0109,-5.0109,-5.0089,-4.949,-4.9103,-4.8793,-4.7492,-4.68,-4.6515,-4.5851,-4.5541,-4.5455,-4.5555,-4.5587,-4.5571,-4.5491,-4.5507,-4.5555,-4.5361,-4.5438,-4.5571,-4.5473,-4.5507,-4.5587,-4.5587,-4.5634,-4.563,-4.5603,-4.5645,-4.5689,-4.566,-4.5675,-4.5703,-4.5703,-4.5703,-4.5744,-4.5891,-4.5235,-4.4413,-4.3669,-4.2809,-4.1979,-4.1221,-4.111,-4.111,-4.111,-4.111,-4.111,-4.111,-4.111,-4.111,-4.111,-4.1078,-4.1045,-4.0996,-4.098,-4.0926,-4.0787,-4.0807,-4.0804,-4.079,-4.079,-4.079,-4.079,-4.079,-4.079,-4.079,-4.079,-4.079,-4.5457,-4.53,-4.5148,-4.4943,-4.4895,-4.4802,-4.4484,-4.443,-4.4299,-4.3974,-4.3656,-4.3406,-4.3406,-4.3142,-4.292,-4.2882,-4.3534,-4.3844,-4.325,-4.387,-4.4163,-4.3522,-4.3518,-4.3569,-4.3587,-4.3883,-4.4158,-4.4421,-4.4669,-4.4819,-4.4819,-4.5148,-4.5679,-4.6481,-4.6519,-4.7066,-4.8143,-4.8143,-4.8229,-4.8382,-4.8382,-4.8382,-4.8382,-4.8382,-4.8382,-4.8382,-4.8363,-4.7845,-4.7057,-4.6882,-4.6296,-4.5528,-4.5361,-4.5317,-4.5317,-4.5298,-4.5298,-4.5298,-4.5317,-4.5317,-4.5298,-4.5297,-4.5317,-4.5298,-4.5317,-4.5317,-4.5298,-4.5298,-4.5419,-4.5473,-4.536,-4.5507,-4.5675,-4.5541,-4.5619,-4.5703,-4.5703,-4.5703,-4.5703,-4.5717,-4.5059,-4.4266,-4.3529,-4.2675,-4.1877,-4.1195,-4.111,-4.111,-4.111,-4.111,-4.111,-4.111,-4.111,-4.111,-4.111,-4.1038,-4.0996,-4.0996,-4.0935,-4.0869,-4.0787,-4.0807,-4.0804,-4.079,-4.079,-4.079,-4.079,-4.079,-4.079,-4.079,-4.079,-4.079,-4.5239,-4.5129,-4.4967,-4.4919,-4.4732,-4.4557,-4.443,-4.4046,-4.3703,-4.359,-4.3301,-4.3087,-4.3087,-4.2732,-4.2555,-4.2844,-4.2868,-4.2901,-4.3066,-4.336,-4.3506,-4.3431,-4.3411,-4.3446,-4.3497,-4.3814,-4.4048,-4.4121,-4.4374,-4.4624,-4.4776,-4.491,-4.5201,-4.5698,-4.5698,-4.6122,-4.7047,-4.7047,-4.7336,-4.7972,-4.7972,-4.7972,-4.7972,-4.7972,-4.7972,-4.7933,-4.7357,-4.6935,-4.6628,-4.6052,-4.5629,-4.5361,-4.5319,-4.5297,-4.5297,-4.5297,-4.5297,-4.5297,-4.5297,-4.5297,-4.5297,-4.5297,-4.5297,-4.5297,-4.5297,-4.5297,-4.5297,-4.5297,-4.5339,-4.5361,-4.5298,-4.538,-4.5419,-4.5361,-4.54,-4.5438,-4.5438,-4.5438,-4.5302,-4.4864,-4.4091,-4.3269,-4.2524,-4.1714,-4.1086,-4.0867,-4.0988,-4.111,-4.111,-4.111,-4.111,-4.111,-4.1071,-4.1038,-4.1038,-4.098,-4.0917,-4.0869,-4.0849,-4.0807,-4.0788,-4.0808,-4.0796,-4.079,-4.079,-4.079,-4.079,-4.079,-4.079,-4.079,-4.079,-4.079,-4.5151,-4.5038,-4.4895,-4.4895,-4.4655,-4.4355,-4.4242,-4.3818,-4.3371,-4.3249,-4.305,-4.2844,-4.2673,-4.2418,-4.2239,-4.236,-4.2279,-4.2297,-4.2476,-4.2691,-4.2862,-4.2844,-4.305,-4.3214,-4.3268,-4.3597,-4.3814,-4.3814,-4.4072,-4.4318,-4.4493,-4.4701,-4.4891,-4.5109,-4.5235,-4.5545,-4.6061,-4.6061,-4.6347,-4.692,-4.692,-4.692,-4.692,-4.692,-4.692,-4.6882,-4.6309,-4.6061,-4.6023,-4.5507,-4.5297,-4.5297,-4.5297,-4.5297,-4.5297,-4.5297,-4.5297,-4.5297,-4.5297,-4.5297,-4.5297,-4.5297,-4.5297,-4.5297,-4.5297,-4.5297,-4.5275,-4.5297,-4.5275,-4.5235,-4.5275,-4.5256,-4.5256,-4.5256,-4.5297,-4.5297,-4.5297,-4.5048,-4.4707,-4.4288,-4.327,-4.2324,-4.1914,-4.121,-4.0694,-4.0649,-4.0809,-4.0915,-4.0915,-4.0952,-4.0988,-4.096,-4.0952,-4.0952,-4.0952,-4.0907,-4.0849,-4.0787,-4.0804,-4.0665,-4.0358,-4.0301,-4.0121,-3.9812,-4.0056,-4.0229,-4.0256,-4.0546,-4.07,-4.07,-4.0778,-4.0733,-4.517,-4.5014,-4.487,-4.487,-4.461,-4.427,-4.3943,-4.3623,-4.3266,-4.2939,-4.2844,-4.2711,-4.2239,-4.2157,-4.1973,-4.1569,-4.1846,-4.1973,-4.1569,-4.1973,-4.2257,-4.1924,-4.2338,-4.2711,-4.2844,-4.3232,-4.3463,-4.3463,-4.3781,-4.3974,-4.4005,-4.4484,-4.4776,-4.48,-4.5109,-4.5277,-4.5297,-4.5297,-4.5297,-4.5297,-4.5297,-4.5297,-4.5297,-4.5297,-4.5297,-4.5297,-4.5297,-4.5297,-4.5297,-4.5297,-4.5297,-4.5297,-4.5297,-4.5297,-4.5297,-4.5297,-4.5297,-4.5297,-4.5297,-4.5297,-4.5297,-4.5297,-4.5297,-4.5297,-4.5297,-4.5254,-4.5213,-4.5275,-4.5192,-4.5125,-4.517,-4.5192,-4.5192,-4.5192,-4.5254,-4.5297,-4.5297,-4.4609,-4.3977,-4.3939,-4.2584,-4.1475,-4.1613,-4.1094,-4.0623,-4.0496,-4.053,-4.0577,-4.059,-4.0699,-4.0765,-4.0692,-4.0809,-4.0869,-4.0869,-4.0809,-4.0765,-4.0765,-4.0738,-4.0333,-3.9502,-3.9315,-3.8835,-3.8007,-3.8674,-3.9115,-3.9278,-4.0068,-4.0438,-4.0477,-4.0687,-4.0593,-4.4943,-4.4758,-4.453,-4.453,-4.4076,-4.3623,-4.3557,-4.3284,-4.2884,-4.2458,-4.2378,-4.2239,-4.1743,-4.141,-4.123,-4.1437,-4.1321,-4.123,-4.1481,-4.1613,-4.1717,-4.1753,-4.1966,-4.2115,-4.2221,-4.2732,-4.3032,-4.3032,-4.341,-4.3749,-4.4005,-4.4121,-4.4374,-4.4776,-4.4891,-4.5045,-4.5297,-4.5297,-4.5297,-4.5297,-4.5297,-4.5297,-4.5297,-4.5297,-4.5297,-4.5297,-4.5297,-4.5297,-4.5297,-4.5297,-4.5297,-4.5297,-4.5297,-4.5297,-4.5297,-4.5297,-4.5297,-4.5297,-4.5297,-4.5297,-4.5297,-4.5297,-4.5275,-4.5233,-4.5233,-4.517,-4.5125,-4.5148,-4.5125,-4.5084,-4.5125,-4.5125,-4.5125,-4.5125,-4.517,-4.5233,-4.5233,-4.4527,-4.3745,-4.3134,-4.1645,-4.0481,-4.0501,-4.0368,-4.0233,-4.0215,-4.0215,-4.0302,-4.0496,-4.0552,-4.0565,-4.0552,-4.0524,-4.053,-4.053,-4.0472,-4.0431,-4.0431,-3.9873,-3.9435,-3.9204,-3.8554,-3.8078,-3.7867,-3.8047,-3.8454,-3.9157,-3.9369,-3.9772,-4.0351,-4.0383,-4.0367,-4.4846,-4.4655,-4.4383,-4.4383,-4.3893,-4.3406,-4.3406,-4.2977,-4.2498,-4.2239,-4.2032,-4.176,-4.1276,-4.0972,-4.0802,-4.0879,-4.0832,-4.0802,-4.0879,-4.1047,-4.1157,-4.1082,-4.1338,-4.1587,-4.1682,-4.2239,-4.2673,-4.2882,-4.3268,-4.3582,-4.3781,-4.391,-4.4121,-4.443,-4.4546,-4.477,-4.5087,-4.5235,-4.5297,-4.5297,-4.5297,-4.5297,-4.5297,-4.5297,-4.5297,-4.5297,-4.5297,-4.5297,-4.5297,-4.5297,-4.5297,-4.5297,-4.5151,-4.5173,-4.5297,-4.5148,-4.5148,-4.5235,-4.5045,-4.5,-4.5,-4.5042,-4.5,-4.491,-4.477,-4.4669,-4.4617,-4.465,-4.4617,-4.4591,-4.4617,-4.4617,-4.4617,-4.4617,-4.4669,-4.4675,-4.4455,-4.3715,-4.2788,-4.1755,-4.0765,-4.0077,-4.0057,-4.0077,-4.0077,-4.0015,-4.0036,-4.0099,-4.0229,-4.0312,-4.0364,-4.0329,-4.0329,-4.0364,-4.0364,-4.0315,-4.0147,-3.9799,-3.9358,-3.8764,-3.8035,-3.7488,-3.7015,-3.6613,-3.6929,-3.7368,-3.7915,-3.8661,-3.9237,-3.9696,-4.0111,-4.023,-4.4726,-4.453,-4.427,-4.427,-4.3799,-4.3336,-4.3336,-4.2772,-4.2239,-4.2115,-4.1785,-4.1366,-4.0802,-4.0724,-4.058,-4.0171,-4.0434,-4.058,-4.0171,-4.0434,-4.058,-4.0288,-4.0707,-4.1047,-4.1185,-4.1717,-4.2239,-4.2673,-4.3142,-4.3444,-4.3497,-4.3781,-4.3942,-4.4005,-4.4279,-4.4519,-4.4751,-4.5042,-4.5173,-4.5173,-4.5173,-4.5173,-4.5173,-4.5213,-4.5235,-4.5235,-4.5297,-4.5256,-4.5235,-4.5235,-4.5194,-4.5109,-4.4819,-4.4868,-4.5106,-4.4827,-4.4852,-4.5,-4.465,-4.4527,-4.4527,-4.4599,-4.4599,-4.4474,-4.4157,-4.4028,-4.4016,-4.4058,-4.3986,-4.3912,-4.3986,-4.3986,-4.3986,-4.3986,-4.4028,-4.3951,-4.3439,-4.2561,-4.148,-4.0195,-3.9935,-3.9954,-3.9954,-3.9975,-3.9975,-3.9911,-3.9954,-3.9954,-3.9911,-4.004,-4.0139,-4.0081,-4.0176,-4.0248,-4.0248,-4.0248,-3.9904,-3.9097,-3.8944,-3.8178,-3.6607,-3.632,-3.585,-3.5089,-3.5704,-3.6141,-3.6384,-3.7832,-3.8671,-3.8899,-3.9716,-4.0005,-4.3974,-4.3786,-4.359,-4.359,-4.3266,-4.2995,-4.2995,-4.2882,-4.2537,-4.1785,-4.1569,-4.1213,-4.0385,-4.0221,-4.0221,-4.0121,-4.0171,-4.0221,-4.0121,-4.0171,-4.0221,-4.0121,-4.032,-4.0468,-4.0468,-4.1065,-4.1481,-4.1569,-4.248,-4.316,-4.3479,-4.3548,-4.3716,-4.4005,-4.4279,-4.4411,-4.4465,-4.4538,-4.4565,-4.4565,-4.4565,-4.4565,-4.4546,-4.4795,-4.4891,-4.4891,-4.5173,-4.5109,-4.4795,-4.4795,-4.4624,-4.4318,-4.4243,-4.4261,-4.4318,-4.4233,-4.4261,-4.429,-4.4204,-4.4146,-4.4117,-4.4175,-4.4175,-4.4087,-4.4028,-4.3986,-4.3912,-4.3924,-4.3912,-4.3912,-4.3893,-4.3912,-4.3912,-4.3912,-4.3955,-4.3804,-4.3071,-4.1726,-4.04,-3.9402,-3.9197,-3.9268,-3.9532,-3.9599,-3.967,-3.9867,-3.9911,-3.9911,-3.9911,-3.9933,-3.9954,-3.9954,-3.9956,-3.9977,-3.9977,-3.9977,-3.9635,-3.882,-3.8098,-3.7281,-3.6312,-3.5552,-3.5078,-3.4945,-3.5059,-3.5496,-3.6236,-3.652,-3.7394,-3.8741,-3.8895,-3.9311,-4.3786,-4.359,-4.3406,-4.3406,-4.3142,-4.2882,-4.2882,-4.2537,-4.2056,-4.1569,-4.1139,-4.0642,-4.0171,-4.007,-4.007,-4.007,-4.007,-4.007,-4.007,-4.007,-4.007,-4.007,-4.0238,-4.0355,-4.0387,-4.0741,-4.1082,-4.1366,-4.1888,-4.2498,-4.3142,-4.3375,-4.3582,-4.3749,-4.403,-4.4192,-4.4192,-4.4318,-4.4383,-4.4383,-4.4383,-4.4383,-4.4383,-4.4519,-4.4599,-4.4599,-4.472,-4.4669,-4.4511,-4.4419,-4.429,-4.4087,-4.3955,-4.3967,-4.4087,-4.3893,-4.3924,-4.4028,-4.3812,-4.3717,-4.367,-4.3539,-4.3572,-4.3638,-4.349,-4.3406,-4.3371,-4.3371,-4.3371,-4.3371,-4.3371,-4.3371,-4.3371,-4.3371,-4.2879,-4.2242,-4.141,-4.0399,-3.9547,-3.9082,-3.9008,-3.9036,-3.9216,-3.9242,-3.9268,-3.9414,-3.9439,-3.9439,-3.9439,-3.958,-3.9758,-3.9889,-3.9889,-3.9889,-3.9889,-3.9532,-3.8925,-3.8073,-3.7239,-3.6386,-3.5552,-3.5116,-3.4908,-3.4908,-3.4908,-3.5116,-3.5514,-3.5969,-3.6594,-3.7409,-3.8096,-3.8656,-4.349,-4.3406,-4.3284,-4.3284,-4.3087,-4.2882,-4.2882,-4.2239,-4.1613,-4.1525,-4.0832,-4.0221,-4.0121,-4.007,-4.007,-4.007,-4.007,-4.007,-4.007,-4.007,-4.007,-4.007,-4.0238,-4.0337,-4.0436,-4.0583,-4.0853,-4.1328,-4.1445,-4.1906,-4.2844,-4.3268,-4.3497,-4.3497,-4.3749,-4.391,-4.391,-4.4102,-4.4202,-4.4202,-4.4202,-4.4202,-4.4202,-4.4289,-4.4318,-4.4318,-4.4289,-4.426,-4.4173,-4.4028,-4.3918,-4.3825,-4.359,-4.3656,-4.3812,-4.356,-4.3575,-4.3735,-4.3387,-4.3301,-4.3249,-4.2995,-4.3087,-4.3231,-4.2995,-4.2882,-4.2882,-4.2882,-4.2882,-4.2882,-4.2882,-4.2882,-4.2846,-4.2683,-4.174,-4.0687,-3.9863,-3.9258,-3.8828,-3.8828,-3.8828,-3.8857,-3.8896,-3.8896,-3.8924,-3.898,-3.9008,-3.9008,-3.9008,-3.9216,-3.9483,-3.9693,-3.9826,-3.9889,-3.9889,-3.9153,-3.8319,-3.7447,-3.6632,-3.5799,-3.4946,-3.4908,-3.4889,-3.485,-3.485,-3.4812,-3.4752,-3.5432,-3.5867,-3.6036,-3.7122,-3.7772,-4.2588,-4.2745,-4.286,-4.286,-4.288,-4.2882,-4.2882,-4.2498,-4.2015,-4.1569,-4.1094,-4.0628,-4.0171,-4.007,-4.007,-4.007,-4.007,-4.007,-4.007,-4.007,-4.007,-4.007,-4.0238,-4.0288,-4.0305,-4.0551,-4.0745,-4.0776,-4.1237,-4.1906,-4.2844,-4.3268,-4.3497,-4.3497,-4.3513,-4.3566,-4.3566,-4.3582,-4.3582,-4.3582,-4.3582,-4.3582,-4.3597,-4.3892,-4.4048,-4.4048,-4.4221,-4.4084,-4.374,-4.3605,-4.3353,-4.3014,-4.2976,-4.2995,-4.3014,-4.2995,-4.2995,-4.2976,-4.2957,-4.2957,-4.2957,-4.292,-4.292,-4.2957,-4.292,-4.2882,-4.2882,-4.2882,-4.2882,-4.2882,-4.2882,-4.2882,-4.2719,-4.1995,-4.1144,-4.0328,-3.9619,-3.8803,-3.8256,-3.8256,-3.8256,-3.8354,-3.8585,-3.8646,-3.8718,-3.8952,-3.9008,-3.9008,-3.9008,-3.9036,-3.9063,-3.909,-3.958,-3.9889,-3.9889,-3.9153,-3.8319,-3.7447,-3.6632,-3.5799,-3.4946,-3.4908,-3.4792,-3.4626,-3.4645,-3.4517,-3.425,-3.4344,-3.4777,-3.5485,-3.5591,-3.6484,-4.2503,-4.2606,-4.2688,-4.2688,-4.2688,-4.2709,-4.2709,-4.2115,-4.1543,-4.1428,-4.0802,-4.0221,-4.0121,-4.007,-4.007,-4.007,-4.007,-4.0221,-4.0483,-4.0254,-4.0221,-4.0483,-4.032,-4.0238,-4.0387,-4.0534,-4.0758,-4.1146,-4.1648,-4.2198,-4.2844,-4.3032,-4.3268,-4.3479,-4.3497,-4.3497,-4.3497,-4.3497,-4.3497,-4.3497,-4.3497,-4.3497,-4.3479,-4.3649,-4.3716,-4.3716,-4.3646,-4.3545,-4.3391,-4.3213,-4.3032,-4.2882,-4.2882,-4.2882,-4.2882,-4.2882,-4.2882,-4.2882,-4.2882,-4.2882,-4.2882,-4.2882,-4.2882,-4.2882,-4.2882,-4.2882,-4.2882,-4.2882,-4.2882,-4.2882,-4.2882,-4.2538,-4.1977,-4.118,-4.0401,-3.9623,-3.8844,-3.8409,-3.8192,-3.8192,-3.8192,-3.8241,-3.8354,-3.8354,-3.8401,-3.8491,-3.8523,-3.8523,-3.8523,-3.8658,-3.8759,-3.8759,-3.9109,-3.9183,-3.8715,-3.7909,-3.7066,-3.6246,-3.5435,-3.4836,-3.4498,-3.448,-3.4435,-3.4363,-3.4363,-3.4293,-3.4197,-3.4197,-3.4346,-3.468,-3.5029,-3.5541,-4.2445,-4.2508,-4.2588,-4.2588,-4.2588,-4.2609,-4.2609,-4.1948,-4.1321,-4.1311,-4.0628,-4.007,-4.0037,-4.0037,-4.0037,-4.007,-4.0221,-4.0451,-4.0754,-4.0611,-4.0659,-4.0972,-4.0802,-4.0676,-4.0819,-4.0913,-4.1174,-4.1648,-4.2032,-4.2418,-4.2882,-4.2882,-4.3069,-4.3497,-4.3497,-4.3444,-4.3339,-4.3444,-4.3444,-4.3339,-4.3444,-4.3497,-4.3497,-4.3463,-4.3463,-4.3463,-4.3251,-4.3178,-4.3142,-4.2975,-4.2882,-4.2882,-4.2882,-4.2882,-4.2882,-4.2882,-4.2882,-4.2882,-4.2882,-4.2882,-4.2882,-4.2882,-4.2806,-4.2673,-4.2673,-4.2673,-4.2673,-4.2673,-4.2577,-4.2498,-4.2498,-4.1905,-4.1094,-4.0305,-3.957,-3.8834,-3.8148,-3.8002,-3.8002,-3.8002,-3.8106,-3.814,-3.802,-3.8106,-3.8192,-3.8192,-3.8192,-3.8192,-3.8192,-3.8368,-3.8478,-3.8478,-3.8658,-3.8514,-3.7958,-3.7095,-3.6259,-3.5448,-3.4649,-3.4197,-3.4197,-3.4197,-3.4173,-3.4074,-3.4074,-3.4049,-3.3972,-3.3972,-3.3972,-3.3965,-3.4339,-3.4658,-4.2287,-4.2405,-4.2503,-4.2503,-4.2566,-4.2609,-4.2609,-4.2234,-4.1735,-4.1213,-4.072,-4.0269,-3.9986,-3.9901,-3.9952,-4.0087,-4.0483,-4.0802,-4.0802,-4.1185,-4.1481,-4.1481,-4.1735,-4.1839,-4.1709,-4.1864,-4.2032,-4.2157,-4.2216,-4.2418,-4.2882,-4.2882,-4.3069,-4.3497,-4.3497,-4.3304,-4.292,-4.3304,-4.3304,-4.292,-4.3304,-4.3497,-4.3497,-4.3446,-4.3394,-4.3394,-4.3178,-4.3104,-4.3104,-4.2956,-4.2882,-4.2882,-4.2882,-4.2882,-4.2882,-4.2882,-4.2882,-4.2882,-4.2882,-4.2882,-4.2882,-4.2882,-4.2595,-4.2198,-4.2198,-4.2198,-4.2198,-4.2198,-4.1888,-4.1525,-4.1525,-4.0963,-4.0207,-3.9417,-3.8661,-3.8007,-3.761,-3.7505,-3.7505,-3.7505,-3.788,-3.8054,-3.7596,-3.788,-3.8192,-3.8192,-3.8192,-3.8192,-3.8192,-3.8192,-3.8192,-3.8192,-3.8225,-3.8104,-3.7904,-3.7095,-3.6259,-3.5448,-3.4649,-3.4197,-3.4197,-3.4197,-3.4074,-3.3807,-3.3788,-3.3671,-3.3411,-3.3411,-3.3411,-3.3411,-3.3411,-3.3846,-4.2287,-4.2328,-4.2346,-4.2346,-4.2369,-4.2409,-4.2409,-4.1984,-4.1604,-4.1516,-4.1157,-4.0832,-4.0913,-4.0931,-4.0943,-4.1047,-4.1185,-4.141,-4.1717,-4.163,-4.1613,-4.1931,-4.1864,-4.1796,-4.1839,-4.1948,-4.2198,-4.2634,-4.2673,-4.2864,-4.3304,-4.3304,-4.3375,-4.3497,-4.3232,-4.316,-4.3304,-4.3142,-4.3142,-4.3304,-4.3444,-4.3463,-4.3411,-4.3429,-4.334,-4.3251,-4.3141,-4.3104,-4.3104,-4.2956,-4.2882,-4.2882,-4.2882,-4.2882,-4.2882,-4.2882,-4.2882,-4.2882,-4.2882,-4.2673,-4.2418,-4.2418,-4.2098,-4.1717,-4.1717,-4.1717,-4.1717,-4.1717,-4.1613,-4.1358,-4.0893,-4.019,-3.9375,-3.8643,-3.783,-3.7238,-3.7108,-3.7094,-3.7094,-3.7094,-3.7226,-3.7246,-3.7132,-3.7208,-3.7301,-3.7301,-3.7301,-3.7301,-3.7301,-3.7301,-3.7301,-3.7301,-3.7559,-3.739,-3.6535,-3.62,-3.5488,-3.4128,-3.3789,-3.3643,-3.3643,-3.3643,-3.3587,-3.352,-3.352,-3.3481,-3.3393,-3.3393,-3.3393,-3.3393,-3.3393,-3.3538,-4.2246,-4.2287,-4.2287,-4.2287,-4.2287,-4.2287,-4.2287,-4.2044,-4.177,-4.1666,-4.1383,-4.122,-4.1265,-4.1311,-4.1338,-4.1499,-4.1656,-4.1846,-4.2157,-4.2098,-4.2157,-4.2516,-4.2356,-4.2315,-4.2476,-4.2498,-4.2693,-4.3105,-4.3123,-4.3232,-4.3497,-4.3497,-4.3497,-4.3497,-4.3268,-4.3105,-4.3014,-4.3105,-4.3105,-4.3014,-4.3178,-4.3232,-4.3214,-4.3142,-4.3142,-4.3196,-4.3068,-4.2994,0.0,-4.2938,-4.2882,-4.2882,-4.2882,-4.2882,-4.2882,-4.2882,-4.2806,-4.2634,-4.2634,-4.232,-4.1931,-4.1931,-4.163,-4.1185,-4.1001,-4.1094,-4.1185,-4.1001,-4.0955,-4.0782,-4.0037,-3.9274,-3.8512,-3.7767,-3.6988,-3.6457,-3.6638,-3.6678,-3.6678,-3.6678,-3.6781,-3.686,-3.6719,-3.6781,-3.69,-3.69,-3.69,-3.69,-3.69,-3.69,-3.69,-3.69,-3.7114,-3.6736,-3.5466,-3.5624,-3.5113,-3.3502,-3.3393,-3.3393,-3.3393,-3.3393,-3.3393,-3.3393,-3.3393,-3.3393,-3.3393,-3.3393,-3.3382,-3.3352,-3.3352,-3.3352,0.0,-4.2246,-4.2287,-4.2287,-4.2287,-4.2287,-4.2287,-4.2287,0.0,-4.1666,-4.1578,-4.1472,-4.1213,-4.1213,-4.1303,-4.1525,-4.1973,-4.2239,-4.2239,-4.2634,-4.2938,-4.3104,-4.3104,-4.3178,-4.3394,-4.3394,-4.3411,-4.3479,-4.3497,-4.3497,-4.3497,-4.3497,-4.3497,-4.3444,-4.3463,-4.3087,-4.2257,-4.3014,-4.2995,-4.2216,-4.2634,-4.2844,-4.2806,-4.2631,-4.2747,-4.3069,-4.2882,-4.2806,-4.2806,-4.2806,-4.2806,-4.2806,-4.2806,-4.2806,-4.2806,-4.2806,-4.2537,-4.2157,-4.2157,-4.1846,-4.1437,-4.1393,-4.1094,-4.0659,-4.0221,-4.0385,-4.0676,-4.0204,-4.0037,-3.9834,-3.9106,-3.8379,-3.7635,-3.6874,-3.6146,-3.5711,-3.6174,-3.6259,-3.6259,-3.6259,-3.6557,-3.6701,-3.6326,-3.6557,-3.6821,-3.6821,-3.6821,-3.6821,-3.6821,-3.6821,-3.6821,-3.6821,-3.6821,-3.6247,-3.4703,-3.5256,-3.502,-3.3424,-3.3334,-3.3364,-3.3334,-3.3334,-3.3364,-3.3334,-3.3304,-3.3304,-3.3304,-3.3304,-3.3274,-3.3201,-3.3201,-3.3152,-4.0972,0.0,-4.2287,-4.2287,-4.2287,-4.2287,0.0,-4.2287,-4.2287,-4.2145,-4.2103,-4.2103,-4.2163,-4.221,-4.2274,-4.2472,-4.2652,-4.2729,-4.2729,-4.2844,-4.2938,-4.3104,-4.3012,-4.3068,-4.3359,-4.3305,-4.3322,-4.3497,-4.3497,-4.3497,-4.3497,-4.3497,-4.3375,-4.3032,-4.3032,-4.2957,-4.2729,-4.2577,-4.24,-4.2198,-4.2338,-4.2297,-4.2133,-4.211,-4.199,-4.1913,-4.1828,-4.1828,-4.1828,-4.1828,-4.1828,-4.1828,-4.1828,-4.1828,-4.1828,-4.1828,-4.1743,-4.1656,-4.1656,-4.1366,-4.0896,-4.0531,-4.0336,-4.0254,-4.0121,-4.0171,-4.0271,-4.0121,-3.9681,-3.9089,-3.8345,-3.7601,-3.6857,-3.6079,-3.5757,-3.5622,-3.5739,-3.5739,-3.5739,-3.5739,-3.5827,-3.5854,-3.5783,-3.5854,-3.5898,-3.5898,-3.5898,-3.5898,-3.5898,-3.5898,-3.5898,-3.5898,-3.6241,-3.5803,-3.4281,-3.4581,-3.4199,-3.2659,-3.2781,-3.2813,-3.2553,-3.2813,-3.2813,-3.2553,-3.2468,-3.2368,-3.2317,-3.2317,-3.2317,-3.2317,-3.2317,-3.2283,-4.0252,-4.0955,-4.1683,-4.1856,-4.1941,-4.2002,-4.2246,-4.2287,-4.2287,-4.2287,-4.2287,-4.2346,-4.2463,-4.2548,-4.2649,-4.2783,-4.288,-4.2882,-4.2882,-4.2882,-4.2938,-4.2994,-4.2994,-4.3068,-4.3305,-4.3305,-4.3358,-4.3497,-4.3497,-4.3497,-4.3497,-4.3497,-4.341,-4.3178,-4.3013,-4.2806,-4.2577,-4.2338,-4.2074,-4.1864,-4.1864,-4.1821,-4.1709,-4.1666,-4.1666,-4.1692,-4.163,-4.1543,-4.1481,-4.1481,-4.1481,-4.1481,-4.1481,-4.1481,-4.1481,-4.1481,-4.1348,-4.1185,-4.1185,-4.0879,-4.0451,-4.0171,-4.007,-4.007,-4.007,-4.007,-4.0003,-3.9681,-3.9292,-3.8751,-3.7669,-3.7094,-3.6586,-3.5808,-3.5622,-3.5622,-3.5622,-3.5622,-3.5622,-3.5622,-3.5622,-3.5622,-3.5622,-3.5622,-3.5622,-3.5622,-3.5622,-3.5622,-3.5622,-3.5622,-3.5622,-3.5622,-3.5827,-3.5361,-3.3857,-3.3945,-3.3543,-3.2371,-3.2468,-3.2468,-3.2231,-3.2384,-3.2384,-3.2179,-3.2092,-3.2056,-3.2003,-3.2003,-3.1967,-3.1914,-3.1914,-3.1878,-3.9594,-4.0103,-4.0642,-4.1248,-4.1445,-4.1622,-4.2086,-4.2246,-4.2287,-4.2287,-4.2287,-4.2328,-4.2463,-4.2548,-4.2649,-4.2745,-4.2824,-4.2882,-4.2882,-4.2882,-4.29,-4.2938,-4.2994,-4.3123,-4.3214,-4.3305,-4.3411,-4.3479,-4.3497,-4.3497,-4.3497,-4.3497,-4.3479,-4.341,-4.2995,-4.2595,-4.2074,-4.2074,-4.1864,-4.1401,-4.1401,-4.1401,-4.1356,-4.1328,-4.1418,-4.1666,-4.1534,-4.1428,-4.1303,-4.1303,-4.1303,-4.1303,-4.1303,-4.1303,-4.1303,-4.1303,-4.1047,-4.0707,-4.0707,-4.0434,-4.007,-4.007,-4.007,-4.007,-4.007,-4.0003,-3.9749,-3.8923,-3.877,-3.8514,-3.7127,-3.6688,-3.6434,-3.5684,-3.547,-3.547,-3.5379,-3.5424,-3.547,-3.5379,-3.5424,-3.547,-3.547,-3.5424,-3.5362,-3.547,-3.5487,-3.5487,-3.5487,-3.5532,-3.5532,-3.5532,-3.5532,-3.4975,-3.3506,-3.3389,-3.2985,-3.2067,-3.2109,-3.2127,-3.2004,-3.1915,-3.1861,-3.1823,-3.1823,-3.1787,-3.177,-3.177,-3.1696,-3.1605,-3.1514,-3.1493,-3.8898,-3.9115,-3.9523,-4.0642,-4.122,-4.1516,-4.1622,-4.1959,-4.2287,-4.2287,-4.2287,-4.2287,-4.2346,-4.249,-4.2609,-4.2609,-4.2786,-4.2882,-4.2882,-4.2882,-4.2938,-4.3067,-4.2994,-4.3068,-4.334,-4.3305,-4.3322,-4.3497,-4.3497,-4.3497,-4.3497,-4.3497,-4.3339,-4.2995,-4.2537,-4.2074,-4.1604,-4.1604,-4.1401,-4.1012,-4.1012,-4.0918,-4.0823,-4.0823,-4.0728,-4.0517,-4.0517,-4.0468,-4.0286,-4.0286,-4.0286,-4.0286,-4.0286,-4.0286,-4.0286,-4.0286,-4.0254,-4.0221,-4.0221,-4.0171,-4.007,-4.007,-4.007,-4.007,-4.007,-3.9648,-3.8906,-3.7753,-3.7701,-3.7872,-3.7009,-3.6282,-3.5621,-3.5055,-3.4927,-3.4769,-3.4317,-3.4577,-3.4785,-3.4333,-3.4625,-3.4927,-3.4927,-3.4529,-3.4382,-3.4864,-3.4849,-3.4835,-3.4835,-3.5135,-3.5337,-3.5337,-3.5337,-3.4768,-3.3439,-3.324,-3.2447,-3.0803,-3.1314,-3.164,-3.1511,-3.124,-3.1038,-3.0918,-3.0918,-3.0821,-3.074,-3.074,-3.0699,-3.0699,-3.0293,-3.0293,-3.8544,-3.8711,-3.8969,-3.9662,-4.0235,-4.0767,-4.1065,-4.149,-4.1856,-4.1856,-4.2103,-4.2287,-4.2287,-4.2427,-4.2588,-4.2706,-4.2842,-4.2882,-4.2882,-4.2882,-4.2938,-4.2994,-4.2938,-4.3013,-4.3251,-4.3251,-4.3268,-4.3479,-4.3497,-4.3497,-4.3497,-4.3497,-4.3304,-4.292,-4.2458,-4.199,-4.1516,-4.1283,-4.1088,-4.0888,-4.0888,-4.0888,-4.0793,-4.0793,-4.0631,-4.0387,-4.0387,-4.0288,-4.007,-4.007,-4.007,-4.007,-4.007,-4.007,-4.007,-4.007,-4.007,-4.007,-4.007,-4.007,-4.007,-4.007,-4.007,-4.007,-4.007,-3.9396,-3.8338,-3.7269,-3.6837,-3.647,-3.5528,-3.4921,-3.4496,-3.4366,-3.4268,-3.4103,-3.3903,-3.4003,-3.4053,-3.3802,-3.4003,-3.4153,-3.4153,-3.3953,-3.3853,-3.4103,-3.4136,-3.4086,-3.4086,-3.4284,-3.4382,-3.4382,-3.4382,-3.3991,-3.2967,-3.2492,-3.181,-3.074,-3.0726,-3.069,-3.0649,-3.0435,-3.0156,-2.9837,-2.9837,-2.981,-2.975,-2.975,-2.975,-2.975,-2.9528,-2.9528,-3.8148,-3.8448,-3.8672,-3.8876,-3.9401,-4.0053,-4.0497,-4.1065,-4.1472,-4.1472,-4.1917,-4.2287,-4.2287,-4.2427,-4.2566,-4.2763,-4.288,-4.2882,-4.2882,-4.2882,-4.2882,-4.2882,-4.2882,-4.2975,-4.3142,-4.3178,-4.3286,-4.3463,-4.3497,-4.3497,-4.3497,-4.3497,-4.3268,-4.275,-4.2378,-4.1906,-4.1356,-4.1041,-4.0888,-4.0888,-4.0888,-4.0888,-4.0888,-4.0888,-4.0728,-4.0485,-4.0485,-4.0337,-4.007,-4.007,-4.007,-4.007,-4.007,-4.007,-4.007,-4.007,-4.007,-4.007,-4.007,-4.007,-4.007,-4.007,-4.002,-3.9868,-3.9648,-3.8703,-3.7475,-3.6427,-3.5554,-3.4785,-3.4115,-3.3751,-3.3649,-3.3716,-3.3547,-3.3391,-3.3391,-3.3391,-3.3391,-3.3235,-3.3339,-3.3391,-3.3391,-3.3287,-3.3287,-3.3391,-3.3391,-3.3391,-3.3391,-3.3443,-3.3495,-3.3495,-3.3495,-3.3208,-3.2472,-3.1557,-3.0958,-3.0681,-3.0136,-2.9793,-2.9793,-2.9705,-2.9483,-2.912,-2.9074,-2.9074,-2.9074,-2.9074,-2.9074,-2.9074,-2.8982,-2.8982,-3.7476,-3.8017,-3.8616,-3.8616,-3.9206,-3.9834,-4.0003,-4.0814,-4.1472,-4.1472,-4.1917,-4.2287,-4.2287,-4.245,-4.2649,-4.2783,-4.288,-4.2882,-4.2882,-4.2882,-4.2882,-4.2882,-4.2882,-4.2938,-4.3104,-4.3142,-4.3251,-4.3394,-4.3463,-4.3497,-4.3497,-4.3497,-4.3124,-4.2297,-4.2198,-4.1796,-4.0965,-4.0918,-4.0888,-4.0888,-4.0888,-4.0888,-4.0888,-4.0793,-4.0648,-4.0468,-4.0387,-4.0238,-4.007,-4.007,-4.007,-4.007,-4.007,-4.007,-4.007,-4.007,-4.007,-4.007,-4.007,-4.007,-4.007,-4.007,-3.9696,-3.9126,-3.8394,-3.7179,-3.5776,-3.4478,-3.349,-3.2958,-3.3511,-3.3582,-3.3495,-3.3002,-3.2895,-3.2734,-3.2247,-3.2492,-3.2695,-3.2191,-3.2547,-3.2841,-3.2841,-3.2437,-3.2287,-3.2788,-3.2734,-3.2695,-3.2695,-3.2986,-3.3251,-3.3251,-3.3251,-3.2914,-3.2183,-3.0661,-2.9852,-3.007,-2.9559,-2.921,-2.9166,-2.9166,-2.912,-2.9074,-2.9074,-2.9074,-2.9074,-2.9074,-2.9074,-2.9074,-2.8591,-2.8638,-3.7282,-3.7902,-3.852,-3.856,-3.8821,-3.9115,-3.9312,-4.0186,-4.0955,-4.1019,-4.1727,-4.2287,-4.2287,-4.2427,-4.2566,-4.2649,-4.2765,-4.2842,-4.2882,-4.2882,-4.2882,-4.2882,-4.2882,-4.2975,-4.316,-4.3178,-4.3286,-4.3428,-4.3497,-4.3375,-4.3142,-4.3123,-4.2693,-4.1778,-4.1778,-4.1507,-4.0935,-4.0888,-4.0888,-4.0888,-4.0888,-4.0888,-4.0888,-4.0745,-4.0648,-4.0468,-4.0337,-4.0238,-4.007,-4.007,-4.007,-4.007,-4.007,-4.007,-4.007,-4.007,-4.007,-4.007,-4.007,-4.007,-4.002,-3.9489,-3.9209,-3.8793,-3.7622,-3.6309,-3.507,-3.4045,-3.2946,-3.2191,-3.2547,-3.2477,-3.2312,-3.2287,-3.212,-3.1966,-3.1883,-3.1925,-3.1951,-3.1754,-3.1853,-3.2007,-3.2007,-3.1796,-3.1754,-3.1951,-3.1951,-3.191,-3.191,-3.2048,-3.2145,-3.2145,-3.2145,-3.1885,-3.1143,-3.0196,-2.9493,-2.9144,-2.8819,-2.8607,-2.8591,-2.8591,-2.8463,-2.8189,-2.8189,-2.8189,-2.8189,-2.8189,-2.8189,-2.814,-2.7944,-2.7993,-3.6966,-3.7711,-3.8391,-3.8504,-3.856,-3.8616,-3.8821,-3.9645,-4.0431,-4.0754,-4.1596,-4.2287,-4.2287,-4.2405,-4.2526,-4.257,-4.2688,-4.2822,-4.29,-4.2882,-4.2882,-4.2882,-4.2882,-4.2957,-4.3087,-4.316,-4.3251,-4.3375,-4.3339,-4.3178,-4.292,-4.2768,-4.2338,-4.1516,-4.1472,-4.1328,-4.0871,-4.0888,-4.0888,-4.0888,-4.0888,-4.0888,-4.0871,-4.0745,-4.0583,-4.0485,-4.0288,-4.0188,-4.007,-4.007,-4.007,-4.007,-4.007,-4.007,-4.007,-4.007,-4.007,-4.007,-3.985,-3.9799,-3.9679,-3.887,-3.8509,-3.8068,-3.6573,-3.5378,-3.4345,-3.3306,-3.2372,-3.1727,-3.1826,-3.164,-3.1539,-3.1769,-3.1655,-3.1539,-3.167,-3.1597,-3.1482,-3.1482,-3.1482,-3.1482,-3.1482,-3.1482,-3.1409,-3.1219,-3.1161,-3.1087,-3.0896,-3.0896,-3.0896,-3.0896,-3.0896,-3.0705,-3.025,-2.9832,-2.9197,-2.837,-2.8372,-2.8305,-2.8076,-2.8076,-2.7929,-2.7625,-2.7625,-2.7625,-2.7625,-2.7625,-2.7509,-2.7306,-2.7306,-2.7188,-3.6384,-3.7385,-3.8391,-3.8391,-3.8391,-3.8464,-3.8576,-3.9206,-3.9986,-4.0659,-4.1596,-4.2287,-4.2287,-4.2405,-4.2544,-4.257,-4.2706,-4.2822,-4.29,-4.2882,-4.2882,-4.2882,-4.2882,-4.2882,-4.2882,-4.3087,-4.3196,-4.3214,-4.3013,-4.2882,-4.2882,-4.2458,-4.199,-4.1516,-4.1472,-4.1328,-4.0871,-4.0888,-4.0888,-4.0888,-4.0888,-4.0888,-4.0888,-4.0631,-4.0485,-4.0468,-4.0238,-4.007,-4.007,-4.007,-4.007,-4.007,-4.007,-4.007,-4.007,-4.007,-4.0087,-4.002,-3.9418,-3.9206,-3.9082,-3.823,-3.7557,-3.6805,-3.5167,-3.4268,-3.3487,-3.1913,-3.1482,-3.1482,-3.1482,-3.1482,-3.1482,-3.1482,-3.1482,-3.1482,-3.1482,-3.1482,-3.1482,-3.1482,-3.1482,-3.1467,-3.1467,-3.1467,-3.1278,-3.0584,-3.0524,-3.0269,-2.9566,-2.9504,-2.9504,-2.9504,-2.9504,-2.9504,-2.9504,-2.95,-2.9001,-2.7778,-2.8276,-2.8293,-2.759,-2.7575,-2.7575,-2.7575,-2.7575,-2.7575,-2.7575,-2.7575,-2.7255,-2.6683,-2.6683,-2.6336,-3.6966,-3.7711,-3.8391,-3.8391,-3.8391,-3.8464,-3.8576,-3.9098,-3.9817,-4.0938,-4.1472,-4.1856,-4.2228,-4.2328,-4.2387,-4.2526,-4.2588,-4.2688,-4.2804,-4.2862,-4.2882,-4.2882,-4.2882,-4.2938,-4.3049,-4.288,-4.2786,-4.2826,-4.2577,-4.2239,-4.1948,-4.1778,-4.1534,-4.1071,-4.1088,-4.0995,-4.0888,-4.0888,-4.0888,-4.0888,-4.0888,-4.084,-4.0745,-4.0583,-4.0436,-4.0337,-4.0188,-4.007,-4.007,-4.007,-4.007,-4.007,-4.007,-4.007,-4.007,-4.007,-3.985,-3.9418,-3.9259,-3.8832,-3.8246,-3.7456,-3.698,-3.6367,-3.447,-3.3728,-3.3291,-3.1898,-3.1482,-3.1482,-3.1482,-3.1161,-3.0896,-3.1409,-3.1482,-3.1482,-3.1482,-3.1146,-3.0777,-3.0777,-3.0389,-3.0072,-3.0072,-3.0072,-3.0011,-2.9827,-2.9827,-2.969,-2.9504,-2.9504,-2.9504,-2.9504,-2.9504,-2.9504,-2.9504,-2.9064,-2.8626,-2.8264,-2.7627,-2.6995,-2.6351,-2.6721,-2.6774,-2.6322,-2.6322,-2.6322,-2.6322,-2.6322,-2.6215,-2.6068,-2.6068,-2.596,-3.7282,-3.7902,-3.8391,-3.8391,-3.8391,-3.8391,-3.8504,-3.9007,-3.9732,-4.0542,-4.0938,-4.1338,-4.1856,-4.2002,-4.2044,-4.2163,-4.2409,-4.2512,-4.2234,-4.2613,-4.275,-4.24,-4.2673,-4.2806,-4.2476,-4.2552,-4.2552,-4.2378,-4.2074,-4.1778,-4.1534,-4.1356,-4.1163,-4.0935,-4.0888,-4.0888,-4.0888,-4.0888,-4.0888,-4.0888,-4.084,-4.0631,-4.0271,-4.0419,-4.0436,-4.0288,-4.0188,-4.007,-4.007,-4.007,-4.007,-4.0087,-3.985,-3.9918,-4.002,-3.9575,-3.9295,-3.9135,-3.8557,-3.8035,-3.7499,-3.6707,-3.6337,-3.589,-3.4059,-3.3499,-3.3215,-3.1898,-3.1482,-3.1409,-3.1161,-3.0777,-3.0644,-3.1351,-3.1087,-3.0777,-3.1029,-3.0584,-3.0072,-3.0072,-2.9766,-2.9504,-2.9504,-2.9504,-2.938,-2.9142,-2.8889,-2.8698,-2.8698,-2.8698,-2.8698,-2.8698,-2.8698,-2.8698,-2.8634,-2.8496,-2.8181,-2.7561,-2.7354,-2.6641,-2.5287,-2.5909,-2.6068,-2.5728,-2.5728,-2.5728,-2.5728,-2.5728,-2.5632,-2.5481,-2.5356,-2.5189,-3.7417,-3.7902,-3.8408,-3.8335,-3.8335,-3.8391,-3.8391,-3.8952,-3.9558,-3.9732,-4.0186,-4.072,-4.1338,-4.1445,-4.149,-4.1622,-4.2092,-4.2175,-4.1393,-4.2139,-4.244,-4.1613,-4.2262,-4.2458,-4.1569,-4.2092,-4.2292,-4.1881,-4.1578,-4.1445,-4.1445,-4.1088,-4.0888,-4.0888,-4.0888,-4.0888,-4.0888,-4.0888,-4.0871,-4.0823,-4.068,-4.0254,-3.9558,-4.0204,-4.0387,-4.0288,-4.007,-4.002,-4.002,-4.002,-3.9969,-3.9901,-3.9312,-3.947,-3.9799,-3.8723,-3.8629,-3.8849,-3.7531,-3.7055,-3.6814,-3.5991,-3.5688,-3.5383,-3.395,-3.3499,-3.3215,-3.1898,-3.1467,-3.1278,-3.0644,-3.0404,-3.0464,-3.1161,-3.0389,-2.969,-3.0269,-2.9889,-2.938,-2.938,-2.938,-2.9317,-2.9317,-2.9317,-2.9142,-2.8468,-2.7908,-2.7523,-2.7523,-2.7523,-2.7523,-2.7469,-2.7469,-2.7403,-2.7268,-2.7842,-2.7604,-2.6255,-2.721,-2.6827,-2.4653,-2.5212,-2.5508,-2.5398,-2.5398,-2.5398,-2.5398,-2.5398,-2.5245,-2.4892,-2.458,-2.4189,-3.7358,-3.7902,-3.8278,-3.7727,-3.8033,-3.8391,-3.8391,-3.8544,-3.886,-3.9506,-3.9834,-4.0186,-4.0832,-4.0943,-4.0943,-4.099,-4.1139,-4.1241,-4.1168,-4.1437,-4.1613,-4.1525,-4.1656,-4.17,-4.1525,-4.1428,-4.1356,-4.1373,-4.1024,-4.0918,-4.1041,-4.0965,-4.0888,-4.0888,-4.0888,-4.0888,-4.0888,-4.0888,-4.0728,-4.0453,-4.0137,-3.9697,-3.9135,-3.9969,-4.0288,-4.0138,-3.9592,-3.9365,-3.9365,-3.9365,-3.9135,-3.8668,-3.8557,-3.8574,-3.8684,-3.8407,-3.7994,-3.7531,-3.7175,-3.6646,-3.5991,-3.5752,-3.5653,-3.5299,-3.3903,-3.3499,-3.3215,-3.1898,-3.1087,-3.0703,-3.0524,-2.9718,-2.9093,-2.9766,-2.969,-2.9566,-2.969,-2.9205,-2.8725,-2.8725,-2.8274,-2.7894,-2.7894,-2.7894,-2.7894,-2.7723,-2.759,-2.7523,-2.7523,-2.7523,-2.7469,-2.7335,-2.7335,-2.7268,-2.7079,-2.7214,-2.7149,-2.6832,-2.6634,-2.6272,-2.5794,-2.5519,-2.4917,-2.4028,-2.4015,-2.4015,-2.4015,-2.4015,-2.3956,-2.391,-2.3852,-2.3734,-3.7578,-3.8017,-3.8254,-3.7543,-3.7633,-3.7873,-3.7873,-3.7873,-3.8137,-3.8941,-3.9259,-3.9542,-4.0186,-4.0351,-4.04,-4.04,-4.0703,-4.078,-4.04,-4.0891,-4.1168,-4.0784,-4.1168,-4.1303,-4.0861,-4.0926,-4.0943,-4.0884,-4.0776,-4.0745,-4.0871,-4.0888,-4.0888,-4.0888,-4.0888,-4.0888,-4.0888,-4.0888,-4.068,-4.0305,-3.9885,-3.9315,-3.8684,-3.9135,-3.9279,-3.9226,-3.8903,-3.8739,-3.8739,-3.8739,-3.8574,-3.8278,-3.7953,-3.8067,-3.8222,-3.7531,-3.7175,-3.7071,-3.6585,-3.6102,-3.5688,-3.5653,-3.5554,-3.531,-3.4277,-3.3739,-3.3214,-3.1901,-3.1011,-3.0329,-2.9718,-2.903,-2.8532,-2.8519,-2.8519,-2.8648,-2.8967,-2.8468,-2.8039,-2.8039,-2.7723,-2.7523,-2.7523,-2.7523,-2.7523,-2.7523,-2.7523,-2.7469,-2.7403,-2.7403,-2.7335,-2.7146,-2.7146,-2.7079,-2.6863,-2.6875,-2.6807,-2.6739,-2.646,-2.6155,-2.5876,-2.5614,-2.497,-2.393,-2.3917,-2.3777,-2.3509,-2.3509,-2.3509,-2.3628,-2.3437,-2.339,-3.7637,-3.7902,-3.8044,-3.7446,-3.7323,-3.729,-3.7177,-3.7242,-3.7485,-3.8212,-3.8613,-3.9007,-3.9542,-3.98,-3.9868,-3.9868,-4.0317,-4.0366,-3.959,-4.04,-4.072,-3.9986,-4.0689,-4.0955,-4.0171,-4.0531,-4.0724,-4.0468,-4.0583,-4.0745,-4.0888,-4.0888,-4.0888,-4.0888,-4.0888,-4.0888,-4.0793,-4.0793,-4.0517,-3.9969,-3.9401,-3.8723,-3.801,-3.801,-3.8124,-3.8278,-3.8181,-3.8108,-3.8108,-3.8108,-3.8067,-3.7953,-3.7401,-3.7504,-3.7822,-3.6616,-3.6492,-3.6768,-3.5991,-3.5688,-3.5638,-3.5554,-3.5504,-3.537,-3.4681,-3.3946,-3.3089,-3.1842,-3.082,-2.9903,-2.8789,-2.8417,-2.8157,-2.7656,-2.7523,-2.7656,-2.8222,-2.7908,-2.7523,-2.7523,-2.7523,-2.7523,-2.7523,-2.7523,-2.7456,-2.7469,-2.7469,-2.7403,-2.7268,-2.7121,-2.6998,-2.6943,-2.6726,-2.6508,-2.644,-2.6358,-2.622,-2.6094,-2.6094,-2.5871,-2.5333,-2.5321,-2.4917,-2.4065,-2.4092,-2.3891,-2.3427,-2.3304,-2.3292,-2.3401,-2.3157,-2.3108,-3.6677,-3.6845,-3.7109,-3.7263,-3.7323,-3.7161,-3.6578,-3.6902,-3.7339,-3.7452,-3.816,-3.886,-3.9061,-3.9239,-3.9415,-3.9415,-3.9451,-3.952,-3.9501,-3.9729,-3.9918,-3.9901,-4.0121,-4.0254,-4.0121,-4.0171,-4.0271,-4.0337,-4.0436,-4.0583,-4.0697,-4.084,-4.0888,-4.0888,-4.0888,-4.0728,-4.0387,-4.0387,-3.985,-3.8739,-3.7812,-3.715,-3.6708,-3.6708,-3.7326,-3.8294,-3.7738,-3.7519,-3.7519,-3.7519,-3.7238,-3.6723,-3.6445,-3.6445,-3.643,-3.6148,-3.5958,-3.5864,-3.5752,-3.5653,-3.5489,-3.5504,-3.5504,-3.537,-3.4681,-3.3602,-3.2484,-3.1718,-3.0199,-2.8725,-2.8546,-2.8105,-2.759,-2.7523,-2.7523,-2.7523,-2.759,-2.759,-2.7523,-2.7523,-2.7523,-2.7523,-2.7523,-2.7523,-2.7469,-2.7335,-2.7335,-2.7268,-2.7079,-2.6414,-2.6195,-2.6714,-2.5569,-2.4921,-2.5441,-2.485,-2.4469,-2.4409,-2.4409,-2.4374,-2.4304,-2.4304,-2.4025,-2.3456,-2.3621,-2.3622,-2.355,-2.2944,-2.2611,-2.2678,-2.2611,-2.2611,-3.7282,-3.6758,-3.634,-3.6641,-3.6432,-3.6044,-3.5736,-3.5898,-3.6351,-3.7161,-3.7714,-3.8259,-3.8778,-3.9094,-3.9272,-3.9272,-3.9272,-3.9325,-3.9379,-3.9484,-3.9642,-3.9781,-3.9884,-4.0037,-4.007,-4.007,-4.0138,-4.0305,-4.0337,-4.0436,-4.0583,-4.0631,-4.0728,-4.0793,-4.0793,-4.0648,-4.0288,-4.0104,-3.9315,-3.7994,-3.7314,-3.6816,-3.6492,-3.6492,-3.6769,-3.7282,-3.6997,-3.6892,-3.6892,-3.6892,-3.6646,-3.6336,-3.6211,-3.6148,-3.6085,-3.5894,-3.5752,-3.5688,-3.5589,-3.5554,-3.5504,-3.5504,-3.5213,-3.478,-3.4471,-3.3209,-3.171,-3.1036,-2.9697,-2.8417,-2.8039,-2.7723,-2.7523,-2.7523,-2.7523,-2.7523,-2.7523,-2.7523,-2.7523,-2.7523,-2.7523,-2.7469,-2.7403,-2.7403,-2.7335,-2.7146,-2.6769,-2.6414,-2.622,-2.5487,-2.5052,-2.5205,-2.4624,-2.4337,-2.4636,-2.4337,-2.4108,-2.4108,-2.4108,-2.4108,-2.4108,-2.4108,-2.4005,-2.3715,-2.3572,-2.3302,-2.2954,-2.2672,-2.2468,-2.2468,-2.2468,-2.2468,-3.7598,-3.6646,-3.5632,-3.576,-3.5432,-3.5033,-3.4839,-3.5004,-3.5477,-3.6546,-3.7156,-3.7709,-3.8374,-3.8854,-3.9202,-3.9218,-3.9202,-3.9218,-3.9272,-3.9448,-3.9554,-3.9642,-3.9798,-3.9884,-4.0037,-4.0037,-4.0087,-4.0238,-4.0305,-4.0337,-4.0436,-4.0485,-4.0534,-4.0648,-4.0648,-4.0436,-3.9969,-3.9385,-3.8541,-3.7445,-3.7029,-3.6754,-3.6492,-3.6492,-3.6492,-3.6492,-3.6492,-3.6492,-3.6414,-3.6414,-3.6352,-3.6148,-3.607,-3.6022,-3.5894,-3.5703,-3.5638,-3.5638,-3.5554,-3.5504,-3.5504,-3.5504,-3.4986,-3.4312,-3.4312,-3.2815,-3.1054,-3.0515,-2.9388,-2.8091,-2.7656,-2.7523,-2.7523,-2.7523,-2.7469,-2.739,-2.7175,-2.7323,-2.739,-2.7108,-2.7255,-2.7268,-2.6973,-2.6905,-2.6769,-2.6427,-2.5836,-2.5405,-2.5264,-2.4564,-2.4059,-2.412,-2.3756,-2.361,-2.3829,-2.361,-2.3537,-2.3537,-2.3537,-2.3537,-2.3537,-2.3537,-2.3463,-2.3463,-2.3034,-2.2737,-2.2659,-2.2439,-2.2299,-2.2299,-2.2299,-2.2299,-3.6773,-3.5925,-3.4851,-3.451,-3.4606,-3.4643,-3.3918,-3.453,-3.5202,-3.5266,-3.6458,-3.7492,-3.7541,-3.8275,-3.886,-3.8969,-3.9023,-3.9094,-3.9272,-3.9448,-3.9501,-3.9501,-3.9642,-3.9781,-3.9901,-3.9901,-3.9952,-4.007,-4.0238,-4.0288,-4.0305,-4.0436,-4.0485,-4.0534,-4.0534,-4.0054,-3.9082,-3.777,-3.7121,-3.6999,-3.6677,-3.6492,-3.6492,-3.6492,-3.6492,-3.6492,-3.6492,-3.6414,-3.6211,-3.6211,-3.6148,-3.5973,-3.5816,-3.5688,-3.5703,-3.5554,-3.5504,-3.5504,-3.5504,-3.5504,-3.5504,-3.5504,-3.4986,-3.4312,-3.4312,-3.2478,-3.0446,-3.0378,-2.8999,-2.7523,-2.7523,-2.7523,-2.7523,-2.7523,-2.7403,-2.7121,-2.6333,-2.6756,-2.7053,-2.6032,-2.6483,-2.6794,-2.6032,-2.5894,-2.5533,-2.4696,-2.448,-2.4409,-2.4192,-2.3559,-2.335,-2.4047,-2.282,-2.2252,-2.3001,-2.2327,-2.1949,-2.1949,-2.1949,-2.1949,-2.1949,-2.1949,-2.1797,-2.1655,-2.1634,-2.2059,-2.2999,-2.2178,-2.1811,-2.1811,-2.1811,-2.1735,-3.671,-3.5466,-3.4175,-3.4295,-3.4186,-3.4014,-3.3758,-3.4092,-3.4619,-3.5088,-3.5626,-3.6312,-3.7199,-3.815,-3.886,-3.8969,-3.9023,-3.9094,-3.9272,-3.9325,-3.9379,-3.9501,-3.9537,-3.9642,-3.9901,-3.9901,-3.9952,-4.007,-4.0121,-4.0188,-4.0188,-4.0238,-4.032,-4.0468,-4.0238,-3.9592,-3.8423,-3.7508,-3.6877,-3.6693,-3.6554,-3.6492,-3.6492,-3.6492,-3.6414,-3.6274,-3.6274,-3.6274,-3.6196,-3.6085,-3.5958,-3.5831,-3.5752,-3.5638,-3.5554,-3.5504,-3.5504,-3.5504,-3.5504,-3.5504,-3.5424,-3.4905,-3.4192,-3.3492,-3.3059,-3.1387,-2.9671,-2.9671,-2.8618,-2.7469,-2.7403,-2.7403,-2.7335,-2.7214,-2.6769,-2.6114,-2.5193,-2.6126,-2.685,-2.5963,-2.6045,-2.6126,-2.5767,-2.5264,-2.4755,-2.4264,-2.3768,-2.3497,-2.3423,-2.2692,-2.2317,-2.2606,-2.209,-2.1959,-2.2176,-2.1959,-2.1731,-2.1655,-2.1578,-2.1578,-2.1436,-2.1436,-2.1359,-2.1282,-2.1282,-2.1502,-2.1807,-2.1578,-2.1436,-2.1436,-2.1436,-2.1359,-3.6502,-3.5053,-3.3618,-3.3868,-3.3662,-3.345,-3.3555,-3.3745,-3.4129,-3.4716,-3.5007,-3.5477,-3.6416,-3.7536,-3.8417,-3.8772,-3.8914,-3.8969,-3.9148,-3.9272,-3.9325,-3.9448,-3.9432,-3.9537,-3.9746,-3.9798,-3.9884,-4.0037,-3.9867,-3.9918,-4.007,-3.9918,-3.9901,-4.0221,-3.9487,-3.8717,-3.8059,-3.721,-3.6693,-3.6492,-3.6492,-3.6492,-3.6414,-3.6414,-3.6289,-3.6148,-3.607,-3.6006,-3.6006,-3.5958,-3.5767,-3.5638,-3.5638,-3.5604,-3.5504,-3.5504,-3.5504,-3.5504,-3.5504,-3.5344,-3.4986,-3.4461,-3.3616,-3.2621,-3.1915,-3.0485,-2.9093,-2.8898,-2.8088,-2.7335,-2.7214,-2.7214,-2.7066,-2.6645,-2.6126,-2.5405,-2.4204,-2.5075,-2.5861,-2.5052,-2.504,-2.511,-2.4779,-2.4276,-2.3768,-2.3401,-2.2905,-2.2628,-2.2628,-2.2101,-2.1807,-2.1807,-2.1731,-2.1731,-2.1731,-2.1655,-2.1502,-2.1436,-2.1436,-2.1359,-2.1215,-2.1205,-2.1205,-2.1138,-2.1138,-2.1051,-2.0964,-2.1128,-2.1205,-2.1205,-2.1205,-2.1205,0.0,0.0,0.0,-3.3251,-3.3049,-3.3005,-3.3256,-3.3503,-3.3745,-3.405,-3.4667,-3.5153,-3.5169,-3.6319,-3.7556,-3.8414,-3.8694,-3.886,-3.8969,-3.9148,-3.9272,-3.9272,-3.9272,-3.9325,-3.9501,-3.9642,-3.9729,-3.9901,-3.9487,-3.947,-4.002,-3.9523,-3.9312,-3.9625,-3.8197,-3.7535,-3.7886,-3.6952,-3.6492,-3.6492,-3.6492,-3.6414,-3.6196,-3.6211,-3.6148,-3.5973,-3.5752,-3.5688,-3.5688,-3.5688,-3.5589,-3.5504,-3.5504,-3.5504,-3.5504,-3.5504,-3.5504,-3.5439,-3.5439,-3.492,-3.4245,-3.423,-3.3115,-3.1662,-3.1083,-2.9881,-2.8549,-2.8081,-2.746,-2.7024,-2.7011,-2.6943,-2.6726,-2.5779,-2.5557,-2.5063,-2.3361,-2.3706,-2.4059,-2.3139,-2.3559,-2.3829,-2.3139,-2.3001,-2.2703,-2.1959,-2.1807,-2.1807,-2.1807,-2.1807,-2.1807,-2.1807,-2.1655,-2.1502,-2.1512,-2.1282,-2.1205,-2.1205,-2.1205,-2.1205,-2.1205,-2.1205,-2.1051,-2.0906,-2.0906,-2.0819,-2.0566,-2.0964,-2.1205,-2.1205,-2.1205,-2.1205,-3.6322,0.0,0.0,0.0,0.0,0.0,-3.3555,-3.3503,-3.3503,-3.3761,-3.3957,-3.4365,-3.5088,-3.5509,-3.6173,-3.7475,-3.8219,-3.8711,-3.886,-3.8969,-3.9094,-3.9094,-3.9202,-3.9325,-3.9501,-3.9642,-3.9729,-3.9901,-3.9487,-3.9259,-3.9418,-3.8974,-3.859,-3.8383,-3.7854,-3.746,-3.7225,-3.6739,-3.6492,-3.6492,-3.6352,-3.6274,-3.6196,-3.6085,-3.5958,-3.5752,-3.5688,-3.5638,-3.5554,-3.5554,-3.5554,-3.5504,-3.5504,-3.5504,-3.5504,-3.5504,-3.5052,-3.4394,-3.4394,-3.3808,-3.2961,-3.242,-3.1717,-3.085,-3.0137,-2.906,-2.8119,-2.7965,-2.746,-2.6943,-2.6794,-2.6302,-2.5734,-2.5441,-2.4504,-2.357,-2.3065,-2.2767,-2.2606,-2.2927,-2.3139,-2.3202,-2.3075,-2.2553,-2.2035,-2.1807,-2.1807,-2.1807,-2.1807,-2.1807,-2.1731,-2.1578,-2.1502,-2.1436,-2.1282,-2.1205,-2.1128,-2.0984,-2.0984,-2.0896,-2.0799,-2.0809,-2.0722,-2.0654,-2.0654,-2.0333,-1.9696,-2.0411,-2.0809,-2.0809,-2.0809,-2.0809,-3.6256,-3.5307,-3.4721,-3.4431,0.0,0.0,-3.4018,-3.3968,-3.3917,-3.4267,-3.4234,-3.428,-3.4904,-3.5129,-3.5558,-3.6707,-3.754,-3.8219,-3.8662,-3.886,-3.9023,-3.9023,-3.9202,-3.9325,-3.9395,-3.9292,-3.9382,-3.9781,-3.892,-3.8334,-3.8407,-3.8181,-3.8026,-3.787,-3.7401,-3.7134,-3.7015,-3.6693,-3.6492,-3.6352,-3.6274,-3.6148,-3.6006,-3.5894,-3.5767,-3.5589,-3.5589,-3.5539,-3.5359,-3.5359,-3.5359,-3.5359,-3.5359,-3.5294,-3.5213,-3.4935,-3.4423,-3.3905,-3.3533,-3.2723,-3.1752,-3.1288,-3.054,-2.9595,-2.8954,-2.8214,-2.7583,-2.7354,-2.7062,-2.6671,-2.622,-2.5734,-2.517,-2.4515,-2.3655,-2.2927,-2.2553,-2.2101,-2.1959,-2.2402,-2.2478,-2.2478,-2.2478,-2.2101,-2.1807,-2.1807,-2.1807,-2.1807,-2.1655,-2.1655,-2.1578,-2.1436,-2.1282,-2.1205,-2.1061,-2.0974,-2.0886,-2.0819,-2.0741,-2.0576,-2.0089,-2.0089,-1.9923,-1.952,-1.952,-1.9283,-1.8727,-1.9608,-2.0089,-2.001,-1.9678,-1.9923,-3.6338,-3.5383,-3.488,-3.488,-3.448,0.0,-3.4529,-3.4577,-3.4625,-3.4975,-3.4818,-3.4594,-3.4546,-3.4771,-3.5263,-3.5953,-3.6686,-3.7469,-3.8446,-3.8821,-3.8969,-3.8969,-3.9148,-3.9272,-3.9272,-3.8882,-3.892,-3.9625,-3.8181,-3.7266,-3.7298,-3.7298,-3.7417,-3.7711,-3.6968,-3.6616,-3.6938,-3.6616,-3.6352,-3.6211,-3.6148,-3.6006,-3.5688,-3.5688,-3.5589,-3.5504,-3.5504,-3.5359,-3.5213,-3.5148,-3.5148,-3.5148,-3.5082,-3.5001,-3.4787,-3.4002,-3.3602,-3.3462,-3.2652,-3.15,-3.04,-3.04,-2.9444,-2.8198,-2.769,-2.7372,-2.708,-2.6603,-2.6465,-2.6164,-2.5523,-2.5158,-2.4731,-2.3361,-2.2927,-2.2628,-2.1959,-2.1807,-2.1731,-2.1731,-2.1731,-2.1731,-2.1731,-2.1731,-2.1731,-2.1731,-2.1731,-2.1655,-2.1512,-2.1512,-2.1359,-2.1205,-2.0984,-2.0906,-2.0906,-2.0731,-2.0566,-2.0479,-2.0489,-2.0089,-1.9222,-1.9143,-1.8807,-1.7997,-1.7917,-1.7836,-1.7836,-1.8727,-1.9143,-1.9143,-1.8318,-1.8798,-3.7395,-3.6287,-3.5424,-3.5424,-3.5021,0.0,-3.4721,-3.4431,-3.4086,-3.4034,-3.3949,-3.3848,-3.3607,-3.3614,-3.3879,-3.4562,-3.5463,-3.6667,-3.8213,-3.8655,-3.886,-3.886,-3.9094,-3.9272,-3.9272,-3.9309,-3.9362,-3.9537,-3.8495,-3.7519,-3.6723,-3.6662,-3.6723,-3.6785,-3.6616,-3.6476,-3.6336,-3.6274,-3.6211,-3.6037,-3.5879,-3.5752,-3.5688,-3.5604,-3.5489,-3.5504,-3.5359,-3.5228,-3.5213,-3.5001,-3.4935,-3.4935,-3.4288,-3.4438,-3.4721,-3.3325,-3.2444,-3.1819,-3.107,-2.9849,-2.8613,-2.8613,-2.81,-2.749,-2.7377,-2.7037,-2.6603,-2.6559,-2.6025,-2.5523,-2.5312,-2.4371,-2.3361,-2.3075,-2.2478,-2.1959,-2.1655,-2.1578,-2.1502,-2.1359,-2.1425,-2.1512,-2.1359,-2.1359,-2.1359,-2.1359,-2.1359,-2.1282,-2.1282,-2.1282,-2.1205,-2.0984,-2.0906,-2.0819,-2.0654,-2.0644,-2.0323,-1.9618,-1.9539,-1.9134,-1.8327,-1.8238,-1.8158,-1.7997,-1.735,-1.6935,-1.6944,-1.7836,-1.8238,-1.8238,-1.8078,-1.8158,-3.7802,-3.6583,-3.5622,-3.5622,-3.5424,0.0,0.0,-3.5068,-3.488,-3.4833,-3.4448,-3.4118,-3.3968,-3.3591,-3.3514,-3.4178,-3.4861,-3.5828,-3.744,-3.8277,-3.8711,-3.8805,-3.904,-3.9202,-3.9272,-3.9077,-3.8662,-3.8141,-3.8026,-3.7445,-3.6289,-3.6226,-3.6226,-3.6226,-3.6226,-3.6226,-3.6085,-3.6085,-3.6022,-3.5831,-3.5752,-3.5638,-3.5589,-3.5554,-3.5504,-3.5504,-3.5294,-3.5148,-3.5001,-3.4438,-3.4153,-3.4002,-3.3782,-3.3575,-3.3325,-3.1864,-3.1151,-3.0641,-2.96,-2.8571,-2.7695,-2.7695,-2.7318,-2.6866,-2.6866,-2.6678,-2.6533,-2.6533,-2.5955,-2.5229,-2.4791,-2.3768,-2.2756,-2.2327,-2.1883,-2.1512,-2.1359,-2.1359,-2.1282,-2.1051,-2.1138,-2.1205,-2.1205,-2.1205,-2.1205,-2.1205,-2.1205,-2.1128,-2.1061,-2.1061,-2.0974,-2.0741,-2.0342,-2.0098,-1.9932,-1.9432,-1.8957,-1.8559,-1.8399,-1.7908,-1.7017,-1.7017,-1.6772,-1.6363,-1.6049,-1.5809,-1.5718,-1.6296,-1.687,-1.735,-1.678,-1.7025,-3.8171,-3.68,-3.5694,-3.5622,-3.5622,-3.5622,0.0,0.0,0.0,-3.5783,-3.5161,-3.4577,-3.4366,-3.3748,-3.3398,-3.3841,-3.4333,-3.4988,-3.6135,-3.7239,-3.8107,-3.8662,-3.886,-3.904,-3.9202,-3.8662,-3.7879,-3.6966,-3.7294,-3.7131,-3.6037,-3.5973,-3.5973,-3.5973,-3.5973,-3.5973,-3.5973,-3.5973,-3.5846,-3.5638,-3.5638,-3.5524,-3.5439,-3.5424,-3.5359,-3.5359,-3.5162,-3.5016,-3.4802,-3.3865,-3.3297,-3.3003,-3.3003,-3.2579,-3.1784,-3.0388,-2.9796,-2.9608,-2.8375,-2.7582,-2.713,-2.713,-2.6816,-2.6533,-2.6533,-2.6533,-2.6452,-2.6314,-2.5664,-2.4862,-2.4047,-2.3095,-2.222,-2.1578,-2.1359,-2.1205,-2.1128,-2.1128,-2.1051,-2.0906,-2.0829,-2.0896,-2.1051,-2.1051,-2.1051,-2.1051,-2.1051,-2.1051,-2.0829,-2.0829,-2.0741,-2.0411,-1.9696,-1.9134,-1.8975,-1.8149,-1.7577,-1.7415,-1.718,-1.669,-1.5794,-1.5711,-1.5387,-1.4734,-1.4915,-1.4915,-1.4734,-1.4915,-1.5484,-1.6288,-1.5409,-1.5809,-3.9345,-3.7718,-3.6131,-3.5694,-3.5622,-3.5622,-3.5622,0.0,-3.547,-3.5021,0.0,-3.4464,-3.3547,0.0,0.0,-3.271,-3.3419,-3.4038,-3.421,-3.4845,-3.6124,-3.8342,-3.8766,-3.886,-3.9023,-3.859,-3.8051,-3.7531,-3.7071,-3.6554,-3.6037,-3.5973,-3.5973,-3.5973,-3.5973,-3.5894,-3.5752,-3.5752,-3.5653,-3.5504,-3.5344,-3.5213,-3.5213,-3.5067,-3.5001,-3.4935,-3.4817,-3.4765,-3.4631,-3.3659,-3.2861,-3.2146,-3.1476,-3.1315,-3.1216,-2.9597,-2.8856,-2.846,-2.7665,-2.7017,-2.6622,-2.6622,-2.6584,-2.6533,-2.6533,-2.6533,-2.6383,-2.5664,-2.4707,-2.3818,-2.3021,-2.2155,-2.1349,-2.1282,-2.1205,-2.1128,-2.0984,-2.0906,-2.0896,-2.0644,-2.0644,-2.0644,-2.0644,-2.0644,-2.0644,-2.0644,-2.0644,-2.0644,-2.0644,-2.0644,-2.0333,-1.9539,-1.9204,-1.8718,-1.798,-1.7577,-1.7017,-1.6198,-1.6198,-1.5794,-1.4901,-1.4817,-1.4817,-1.4734,-1.4734,-1.4734,-1.4734,-1.4734,-1.4817,-1.4894,-1.4817,-1.4817,-3.9307,-3.7923,-3.658,-3.6114,-3.6028,-3.5968,-3.565,-3.5622,-3.5532,-3.5316,0.0,0.0,0.0,0.0,0.0,0.0,-3.2936,-3.3443,-3.3833,-3.4026,-3.4767,-3.643,-3.6525,-3.6838,-3.7812,-3.8163,-3.8051,-3.7531,-3.6906,-3.6258,-3.5733,-3.5683,-3.5683,-3.5683,-3.5683,-3.5683,-3.5604,-3.5604,-3.5474,-3.5294,-3.5228,-3.5148,-3.5001,-3.4935,-3.4935,-3.4868,-3.475,-3.4467,-3.3948,-3.2946,-3.2074,-3.1093,-3.0033,-2.9764,-2.9813,-2.8771,-2.8151,-2.7697,-2.7044,-2.6653,-2.6465,-2.6339,-2.6339,-2.6339,-2.6188,-2.5816,-2.537,-2.5075,-2.3975,-2.2947,-2.2585,-2.1787,-2.1061,-2.1061,-2.0974,-2.0809,-2.0731,-2.0731,-2.0731,-2.0644,-2.0566,-2.0566,-2.0566,-2.0566,-2.0566,-2.0566,-2.0566,-2.0401,-1.9756,-1.9678,-1.9283,-1.8238,-1.7585,-1.709,-1.6764,-1.6034,-1.5462,-1.5054,-1.4977,-1.4741,-1.4328,-1.4328,-1.4328,-1.4328,-1.4489,-1.4489,-1.4328,-1.4489,-1.4398,-1.4153,-1.4398,-1.4566,-3.9065,-3.7925,-3.6865,-3.6284,-3.6156,-3.6097,-3.5694,-3.5622,-3.5622,-3.5622,-3.4864,0.0,0.0,0.0,-3.2586,-3.2437,0.0,-3.2944,-3.341,-3.3274,-3.364,-3.498,-3.4888,-3.519,-3.6318,-3.6988,-3.7229,-3.6849,-3.6384,-3.5894,-3.5504,-3.5504,-3.5504,-3.5504,-3.5504,-3.5504,-3.5504,-3.5439,-3.5359,-3.5213,-3.5082,-3.5016,-3.4868,-3.4802,-3.4735,-3.4735,-3.4616,-3.4099,-3.3297,-3.229,-3.1355,-3.0405,-2.9063,-2.8536,-2.8487,-2.7938,-2.7388,-2.6851,-2.6464,-2.6327,-2.6327,-2.6201,-2.6131,-2.6062,-2.5688,-2.5158,-2.4636,-2.4204,-2.3243,-2.2274,-2.2069,-2.1405,-2.0819,-2.0819,-2.0731,-2.0566,-2.0566,-2.0566,-2.0489,-2.0489,-2.0489,-2.0411,-2.0411,-2.0489,-2.0489,-2.0489,-2.0489,-2.001,-1.9036,-1.8877,-1.839,-1.709,-1.6363,-1.5786,-1.5545,-1.481,-1.4321,-1.4321,-1.4166,-1.4088,-1.4088,-1.4088,-1.4088,-1.4088,-1.4153,-1.4153,-1.3997,-1.4068,-1.3977,-1.3652,-1.4068,-1.4314,-3.8879,-3.7697,-3.6786,-3.5854,-3.5605,-3.5622,-3.5622,-3.5622,-3.5622,-3.5622,-3.5178,-3.4625,-3.4086,-3.3563,-3.2986,0.0,-3.2398,0.0,0.0,-3.2237,-3.2767,-3.4691,-3.4774,-3.4716,-3.4789,-3.4939,-3.5095,-3.5248,-3.5262,-3.5294,-3.5504,-3.5504,-3.5504,-3.5504,-3.5504,-3.5504,-3.5504,-3.5294,-3.5213,-3.5213,-3.4898,-3.4698,-3.4698,-3.4481,-3.4414,-3.4414,-3.4196,-3.3673,-3.2861,-3.1942,-3.1057,-3.019,-2.8822,-2.8012,-2.7484,-2.693,-2.6402,-2.5923,-2.591,-2.591,-2.591,-2.591,-2.591,-2.5758,-2.5016,-2.4707,-2.442,-2.2872,-2.2274,-2.1821,-2.1118,-2.0809,-2.0644,-2.0644,-2.0566,-2.0566,-2.0566,-2.0411,-2.0342,-2.0342,-2.0108,-1.9942,-1.9942,-2.0108,-2.0342,-2.0342,-2.0098,-1.9618,-1.8718,-1.8638,-1.7989,-1.6206,-1.5869,-1.5372,-1.4559,-1.4243,-1.4088,-1.4088,-1.4088,-1.4088,-1.4088,-1.4088,-1.4088,-1.4088,-1.3822,-1.3737,-1.3737,-1.3483,-1.3392,-1.3392,-1.3913,-1.3997,-3.8785,-3.8231,-3.7755,-3.6768,-3.6586,-3.6481,-3.5783,-3.5622,-3.5622,-3.5622,-3.488,-3.4235,-3.4036,-3.3266,0.0,0.0,0.0,-3.2398,0.0,-3.1894,-3.1674,-3.2019,-3.2792,-3.3211,-3.3211,-3.4273,-3.4942,-3.5003,-3.512,-3.5213,-3.5294,-3.5439,-3.5504,-3.5504,-3.5504,-3.5439,-3.5294,-3.5213,-3.5082,-3.4898,-3.4765,-3.4631,-3.4481,-3.4414,-3.4346,-3.4196,-3.3534,-3.2804,-3.1942,-3.1057,-2.9935,-2.8669,-2.7912,-2.715,-2.6578,-2.6698,-2.6377,-2.591,-2.591,-2.591,-2.591,-2.5758,-2.5688,-2.5535,-2.4564,-2.3975,-2.339,-2.2285,-2.1527,-2.1011,-2.0799,-2.0644,-2.0566,-2.0411,-2.042,-2.0342,-2.0177,-2.0098,-2.002,-2.002,-1.9942,-1.9696,-1.9125,-1.9036,-1.9036,-1.9125,-1.9125,-1.847,-1.6838,-1.6675,-1.6191,-1.4901,-1.4657,-1.4489,-1.4243,-1.4166,-1.4088,-1.4088,-1.4088,-1.4088,-1.4088,-1.3913,-1.3828,-1.3828,-1.3652,-1.3483,-1.3483,-1.3398,-1.3307,-1.3222,-1.3483,-1.3568,-3.8583,-3.8281,-3.8099,-3.7285,-3.7038,-3.6803,-3.6054,-3.5783,-3.5667,-3.5667,-3.4927,-3.4317,-3.4415,-3.3443,0.0,0.0,0.0,0.0,0.0,-3.1838,-3.1278,-3.0807,-3.1263,-3.1827,-3.2407,-3.3367,-3.4181,-3.4773,-3.4958,-3.5026,-3.5067,-3.5213,-3.5294,-3.5294,-3.5294,-3.5213,-3.5082,-3.5016,-3.4883,-3.4698,-3.4631,-3.4549,-3.4414,-3.4346,-3.4045,-3.3604,-3.3017,-3.206,-3.0895,-3.0304,-2.9237,-2.7799,-2.7267,-2.6661,-2.6081,-2.6189,-2.5981,-2.5688,-2.5688,-2.5688,-2.5688,-2.5535,-2.5312,-2.4933,-2.3975,-2.3169,-2.2435,-2.1614,-2.1011,-2.0566,-2.0489,-2.0489,-2.0411,-2.0186,-2.0186,-2.0098,-1.9942,-1.9863,-1.9784,-1.9784,-1.946,-1.9045,-1.8479,-1.7989,-1.7819,-1.798,-1.7989,-1.7334,-1.5786,-1.5628,-1.522,-1.4166,-1.4088,-1.4088,-1.4088,-1.4088,-1.4088,-1.3997,-1.3997,-1.3913,-1.3828,-1.3652,-1.3568,-1.3568,-1.3398,-1.3313,-1.3313,-1.3222,-1.3052,-1.2966,-1.3052,-1.3052]},{"header":{"parameterUnit":"m.s-1","parameterCategory":1,"la1":30.6,"la2":29.2853,"lo1":-89.7004,"lo2":-87.6739,"dy":0.0162,"dx":0.0183,"nx":112,"ny":82,"refTime":"2023-05-22T12:00:00:Z","depth":0,"parameterNumber":3,"parameterNumberName":"V-component_of_WINDS"},"data":[0.0,0.0,0.0,0.0,0.0,0.0,0.0,0.0,0.0,0.0,0.0,0.0,0.0,0.0,0.0,0.0,0.0,0.0,0.0,0.0,0.0,0.0,0.0,0.0,0.0,0.0,0.0,0.0,0.0,0.0,0.0,0.0,0.0,0.0,0.0,0.0,0.0,0.0,0.0,0.0,0.0,0.0,0.0,0.0,0.0,0.0,0.0,0.0,0.0,0.0,0.0,0.0,0.0,0.0,0.0,0.0,0.0,0.0,0.0,0.0,0.0,0.0,0.0,0.0,0.0,0.0,0.0,0.0,0.0,0.0,0.0,0.0,0.0,0.0,0.0,0.0,0.0,0.0,0.0,0.0,0.0,0.0,0.0,0.0,0.0,0.0,0.0,0.0,0.0,0.0,-0.4204,-0.501,-0.528,-0.546,-0.546,-0.5644,-0.5733,-0.5733,0.0,0.0,0.0,0.0,0.0,0.0,0.0,0.0,0.0,0.0,0.0,0.0,0.0,0.0,0.0,0.0,0.0,0.0,0.0,0.0,0.0,0.0,0.0,0.0,0.0,0.0,0.0,0.0,0.0,0.0,0.0,0.0,0.0,0.0,0.0,0.0,0.0,0.0,0.0,0.0,0.0,0.0,0.0,0.0,0.0,0.0,0.0,0.0,0.0,0.0,0.0,0.0,0.0,0.0,0.0,0.0,0.0,0.0,0.0,0.0,0.0,0.0,0.0,0.0,0.0,0.0,0.0,0.0,0.0,0.0,0.0,0.0,0.0,0.0,0.0,0.0,0.0,0.0,0.0,0.0,0.0,0.0,0.0,0.0,0.0,0.0,0.0,0.0,0.0,0.0,0.0,0.0,0.0,0.0,0.0,0.0,0.0,0.0,0.0,0.0,0.0,0.0,0.0,0.0,-0.5191,-0.5282,-0.5552,-0.5644,-0.5644,-0.5644,-0.5733,-0.5733,0.0,0.0,0.0,0.0,0.0,0.0,0.0,0.0,0.0,0.0,0.0,0.0,0.0,0.0,0.0,0.0,0.0,0.0,0.0,0.0,0.0,0.0,0.0,0.0,0.0,0.0,0.0,0.0,0.0,0.0,0.0,0.0,0.0,0.0,0.0,0.0,0.0,0.0,0.0,0.0,0.0,0.0,0.0,0.0,0.0,0.0,0.0,0.0,0.0,0.0,0.0,0.0,0.0,0.0,0.0,0.0,0.0,0.0,0.0,0.0,0.0,0.0,0.0,0.0,0.0,0.0,0.0,0.0,0.0,0.0,0.0,0.0,0.0,0.0,0.0,0.0,0.0,0.0,0.0,0.0,0.0,0.0,0.0,0.0,0.0,0.0,0.0,0.0,0.0,0.0,0.0,0.0,0.0,0.0,0.0,0.0,0.0,0.0,0.0,0.0,0.0,0.0,0.0,-0.546,-0.5727,-0.5552,-0.5644,-0.5733,-0.5733,-0.5733,-0.5733,-0.5908,-0.6169,0.0,0.0,0.0,0.0,0.0,0.0,0.0,0.0,0.0,0.0,0.0,0.0,0.0,0.0,0.0,0.0,0.0,0.0,0.0,0.0,0.0,0.0,0.0,0.0,0.0,0.0,0.0,0.0,0.0,0.0,0.0,0.0,0.0,0.0,0.0,0.0,0.0,0.0,0.0,0.0,0.0,0.0,0.0,0.0,0.0,0.0,0.0,0.0,0.0,0.0,0.0,0.0,0.0,0.0,0.0,0.0,0.0,0.0,0.0,0.0,0.0,0.0,0.0,0.0,0.0,0.0,0.0,0.0,0.0,0.0,0.0,0.0,0.0,0.0,0.0,0.0,0.0,0.0,0.0,0.0,0.0,0.0,0.0,0.0,0.0,0.0,0.0,0.0,0.0,0.0,0.0,0.0,0.0,0.0,0.0,0.0,0.0,0.0,0.0,0.0,0.0,0.0,-0.5547,-0.6083,-0.5908,-0.5908,-0.5908,-0.5908,-0.5908,-0.5997,-0.6171,-0.6343,0.0,0.0,0.0,0.0,0.0,0.0,0.0,0.0,0.0,0.0,0.0,0.0,0.0,0.0,0.0,0.0,0.0,0.0,0.0,0.0,0.0,0.0,0.0,0.0,0.0,0.0,0.0,0.0,0.0,0.0,0.0,0.0,0.0,0.0,0.0,0.0,0.0,0.0,0.0,0.0,0.0,0.0,0.0,0.0,0.0,0.0,0.0,0.0,0.0,0.0,0.0,0.0,0.0,0.0,0.0,0.0,0.0,0.0,0.0,0.0,0.0,0.0,0.0,0.0,0.0,0.0,0.0,0.0,0.0,0.0,0.0,0.0,0.0,0.0,0.0,0.0,0.0,0.0,0.0,0.0,0.0,0.0,0.0,0.0,0.0,0.0,0.0,0.0,0.0,0.0,0.0,0.0,0.0,0.0,0.0,0.0,0.0,0.0,0.0,0.0,0.0,0.0,-0.6169,-0.6171,-0.6343,-0.6343,-0.6343,-0.6343,-0.6343,-0.6343,-0.6343,-0.6428,0.0,0.0,0.0,0.0,0.0,0.0,0.0,0.0,0.0,0.0,0.0,0.0,0.0,0.0,0.0,0.0,0.0,0.0,0.0,0.0,0.0,0.0,0.0,0.0,0.0,0.0,0.0,0.0,0.0,0.0,0.0,0.0,0.0,0.0,0.0,0.0,0.0,0.0,0.0,0.0,0.0,0.0,0.0,0.0,0.0,0.0,0.0,0.0,0.0,0.0,0.0,0.0,0.0,0.0,0.0,0.0,0.0,0.0,0.0,0.0,0.0,0.0,0.0,0.0,0.0,0.0,0.0,0.0,0.0,0.0,0.0,0.0,0.0,0.0,0.0,0.0,0.0,0.0,0.0,0.0,0.0,0.0,0.0,0.0,0.0,0.0,0.0,0.0,0.0,0.0,0.0,0.0,0.0,0.0,0.0,0.0,0.0,0.0,0.0,0.0,0.0,0.0,-0.5985,-0.5897,-0.634,-0.6428,-0.6428,-0.6428,-0.6428,-0.6432,-0.6612,0.0,0.0,0.0,0.0,0.0,0.0,0.0,0.0,0.0,0.0,0.0,0.0,0.0,0.0,0.0,0.0,0.0,0.0,0.0,0.0,0.0,0.0,0.0,0.0,0.0,0.0,0.0,0.0,0.0,0.0,0.0,0.0,0.0,0.0,0.0,0.0,0.0,0.0,0.0,0.0,0.0,0.0,0.0,0.0,0.0,0.0,0.0,0.0,0.0,0.0,0.0,0.0,0.0,0.0,0.0,0.0,0.0,0.0,0.0,0.0,0.0,0.0,0.0,0.0,0.0,0.0,0.0,0.0,0.0,0.0,0.0,0.0,0.0,0.0,0.0,0.0,0.0,0.0,0.0,0.0,0.0,0.0,0.0,0.0,0.0,0.0,0.0,0.0,0.0,0.0,0.0,0.0,0.0,0.0,0.0,0.0,0.0,0.0,0.0,0.0,0.0,0.0,-0.6074,-0.5716,-0.5625,-0.6163,-0.6428,-0.6609,-0.6609,-0.6609,-0.6697,-0.6881,0.0,0.0,0.0,0.0,0.0,0.0,0.0,0.0,0.0,0.0,0.0,0.0,0.0,0.0,0.0,0.0,0.0,0.0,0.0,0.0,0.0,0.0,0.0,0.0,0.0,0.0,0.0,0.0,0.0,0.0,0.0,0.0,0.0,0.0,0.0,0.0,0.0,0.0,0.0,0.0,0.0,0.0,0.0,0.0,0.0,0.0,0.0,0.0,0.0,0.0,0.0,0.0,0.0,0.0,0.0,0.0,0.0,0.0,0.0,0.0,0.0,0.0,0.0,0.0,0.0,0.0,0.0,0.0,0.0,0.0,0.0,0.0,0.0,0.0,0.0,0.0,0.0,0.0,0.0,0.0,0.0,0.0,0.0,0.0,0.0,0.0,0.0,0.0,0.0,0.0,0.0,0.0,0.0,0.0,0.0,0.0,0.0,0.0,0.0,0.0,0.0,0.0,-0.563,-0.5539,-0.5447,-0.5719,-0.6517,-0.7051,-0.7139,-0.7139,-0.7139,0.0,0.0,0.0,0.0,0.0,0.0,0.0,0.0,0.0,0.0,0.0,0.0,0.0,0.0,0.0,0.0,0.0,0.0,0.0,0.0,0.0,0.0,0.0,0.0,0.0,0.0,0.0,0.0,0.0,0.0,0.0,0.0,0.0,0.0,0.0,0.0,0.0,0.0,0.0,0.0,0.0,0.0,0.0,0.0,0.0,0.0,0.0,0.0,0.0,0.0,0.0,0.0,0.0,0.0,0.0,0.0,0.0,0.0,0.0,0.0,0.0,0.0,0.0,0.0,0.0,0.0,0.0,0.0,0.0,0.0,0.0,0.0,0.0,0.0,0.0,0.0,0.0,0.0,0.0,0.0,0.0,0.0,0.0,0.0,0.0,0.0,0.0,0.0,0.0,0.0,0.0,0.0,0.0,0.0,0.0,0.0,0.0,0.0,0.0,0.0,0.0,0.0,0.0,-0.5542,-0.4472,-0.4204,-0.5542,-0.5985,-0.634,-0.7051,-0.7139,-0.7139,-0.7139,0.0,0.0,0.0,0.0,0.0,0.0,0.0,0.0,0.0,0.0,0.0,0.0,0.0,0.0,0.0,0.0,0.0,0.0,0.0,0.0,0.0,0.0,0.0,0.0,0.0,0.0,0.0,0.0,0.0,0.0,0.0,0.0,0.0,0.0,0.0,0.0,0.0,0.0,0.0,0.0,0.0,0.0,0.0,0.0,0.0,0.0,0.0,0.0,0.0,0.0,0.0,0.0,0.0,0.0,0.0,0.0,0.0,0.0,0.0,0.0,0.0,0.0,0.0,0.0,0.0,0.0,0.0,0.0,0.0,0.0,0.0,0.0,0.0,0.0,0.0,0.0,0.0,0.0,0.0,0.0,0.0,0.0,0.0,0.0,0.0,0.0,0.0,0.0,0.0,0.0,0.0,0.0,0.0,0.0,0.0,0.0,0.0,0.0,0.0,0.0,0.0,0.0,-0.4472,-0.3582,-0.3314,-0.4472,-0.4917,-0.5359,-0.5891,-0.634,-0.634,-0.598,0.0,0.0,0.0,0.0,0.0,0.0,0.0,0.0,0.0,0.0,0.0,0.0,0.0,0.0,0.0,0.0,0.0,0.0,0.0,0.0,0.0,0.0,0.0,0.0,0.0,0.0,0.0,0.0,0.0,0.0,0.0,0.0,0.0,0.0,0.0,0.0,0.0,0.0,0.0,0.0,0.0,0.0,0.0,0.0,0.0,0.0,0.0,0.0,0.0,0.0,0.0,0.0,0.0,0.0,0.0,0.0,0.0,0.0,0.0,0.0,0.0,0.0,0.0,0.0,0.0,0.0,0.0,0.0,0.0,0.0,0.0,0.0,0.0,0.0,0.0,0.0,0.0,0.0,0.0,0.0,0.0,0.0,0.0,0.0,0.0,0.0,0.0,0.0,0.0,0.0,0.0,0.0,0.0,0.0,0.0,0.0,0.0,0.0,0.0,0.0,0.0,0.0,-0.2867,-0.2778,-0.2778,-0.2867,-0.3667,-0.42,-0.4287,-0.5092,-0.5184,-0.4378,0.0,0.0,0.0,0.0,0.0,0.0,0.0,0.0,0.0,0.0,0.0,0.0,0.0,0.0,0.0,0.0,0.0,0.0,0.0,0.0,0.0,0.0,0.0,0.0,0.0,0.0,0.0,0.0,0.0,0.0,0.0,0.0,0.0,0.0,0.0,0.0,0.0,0.0,0.0,0.0,0.0,0.0,0.0,0.0,0.0,0.0,0.0,0.0,0.0,0.0,0.0,0.0,0.0,0.0,0.0,0.0,0.0,0.0,0.0,0.0,0.323,0.323,0.0,0.0,0.0,0.0,0.0,0.0,0.0,0.0,0.0,0.0,0.0,0.0,0.0,0.0,0.0,0.0,0.0,0.0,0.0,0.0,0.0,0.0,0.0,0.0,0.0,0.0,0.0,0.0,0.0,0.0,0.0,0.0,0.0,0.0,0.0,0.0,0.0,0.0,0.0,0.0,-0.2778,-0.2241,-0.2062,-0.2778,-0.3045,-0.3489,-0.42,-0.4467,-0.4556,-0.4289,-0.4645,0.0,0.0,0.0,0.0,0.0,0.0,0.0,0.0,0.0,0.0,0.0,0.0,0.0,0.0,0.0,0.0,0.0,0.0,0.0,0.0,0.0,0.0,0.0,0.0,0.0,0.0,0.0,0.0,0.0,0.0,0.0,0.0,0.0,0.0,0.0,0.0,0.0,0.0,0.0,0.0,0.0,0.0,0.0,0.0,0.0,0.0,0.0,0.0,0.0,0.0,0.0,0.0,0.0,0.0,0.0,0.0,0.0,0.0,0.0,0.323,0.323,0.0,0.0,0.0,0.0,0.0,0.0,0.0,0.0,0.0,0.0,0.0,0.0,0.0,0.0,0.0,0.0,0.0,0.0,0.0,0.0,0.0,0.0,0.0,0.0,0.0,0.0,0.0,0.0,0.0,0.0,0.0,0.0,0.0,0.0,0.0,0.0,0.0,0.0,0.0,0.0,-0.2152,-0.1704,-0.1614,-0.2152,-0.2152,-0.2419,-0.2864,-0.331,-0.34,-0.2953,-0.3753,0.0,0.0,0.0,0.0,0.0,0.0,0.0,0.0,0.0,0.0,0.0,0.0,0.0,0.0,0.0,0.0,0.0,0.0,0.0,0.0,0.0,0.0,0.0,0.0,0.0,0.0,0.0,0.0,0.0,0.0,0.0,0.0,0.0,0.0,0.0,0.0,0.0,0.0,0.0,0.0,0.0,0.0,0.0,0.0,0.0,0.0,0.0,0.0,0.0,0.0,0.0,0.0,0.0,0.323,0.323,0.323,0.323,0.323,0.323,0.323,0.323,0.323,0.323,0.0,0.0,0.0,0.0,0.0,0.0,0.0,0.0,0.0,0.0,0.0,0.0,0.0,0.0,0.0,0.0,0.0,0.0,0.0,0.0,0.0,0.0,0.121,0.121,0.1714,0.2017,0.1411,0.0,0.0,0.0,0.0,0.0,0.0,0.0,0.0,0.0,0.0,0.0,-0.1436,-0.1436,-0.1436,-0.1436,-0.1436,-0.1436,-0.1436,-0.2152,-0.224,-0.1436,-0.2862,-0.3489,0.0,0.0,0.0,0.0,0.0,0.0,0.0,0.0,0.0,0.0,0.0,0.0,0.0,0.0,0.0,0.0,0.0,0.0,0.0,0.0,0.0,0.0,0.0,0.0,0.0,0.0,0.0,0.0,0.0,0.0,0.0,0.0,1.1292,1.1194,0.0,0.0,0.0,0.0,0.0,0.0,0.0,0.0,0.0,0.0,0.0,0.0,0.0,0.3331,0.3331,0.323,0.323,0.323,0.323,0.323,0.323,0.323,0.323,0.323,0.323,0.0,0.323,0.323,0.0,0.0,0.0,0.0,0.0,0.0,0.0,0.0,0.0,0.0,0.0,0.0,0.0,0.0,0.0,0.0,0.0,0.0,0.0,0.0,0.0,0.0,0.2927,0.2927,0.2927,0.3027,0.2927,0.1815,0.0602,-0.0198,-0.0387,-0.0569,0.0,0.0,0.0,0.0,0.0,0.0,-0.1436,-0.1436,-0.1436,-0.1436,-0.1436,-0.1436,-0.1436,-0.1524,-0.1524,-0.1436,-0.1614,-0.2151,-0.2867,-0.2867,0.0,0.0,0.0,0.0,0.0,0.0,0.0,0.0,0.0,0.0,0.0,0.0,0.0,0.0,0.0,0.0,0.0,0.0,0.0,0.0,0.0,0.0,0.0,0.0,0.0,0.0,0.0,0.0,0.0,1.1096,1.1002,1.1002,0.9316,0.8127,0.0,0.0,0.0,0.0,0.0,0.0,0.0,0.0,0.0,0.3531,0.3331,0.323,0.323,0.323,0.323,0.323,0.323,0.323,0.323,0.323,0.323,0.323,0.323,0.323,0.323,0.323,0.323,0.313,0.0,0.0,0.0,0.0,0.0806,0.0907,0.131,0.1513,0.1513,0.1513,0.0,0.0,0.0,0.0,0.0,0.0,0.0,0.1008,0.1815,0.2219,0.2623,0.313,0.323,0.323,0.323,0.2602,0.1882,0.108,0.029,-0.0379,-0.0836,-0.1182,0.0,0.0,0.0,-0.1436,-0.1436,-0.1436,-0.1436,-0.1436,-0.1436,-0.1436,-0.1436,-0.1436,-0.1436,-0.1436,-0.1436,-0.1614,-0.2062,-0.2062,-0.2062,0.0,0.0,0.0,0.0,0.0,0.0,0.0,0.0,0.0,0.0,0.0,0.0,0.0,0.0,0.0,0.0,0.0,0.0,0.0,0.0,0.0,0.0,0.0,0.0,0.0,0.0,0.0,0.0,1.0998,1.0801,1.0801,0.9118,0.7925,0.0,0.0,0.0,0.0,0.0,0.0,0.323,0.323,0.323,0.323,0.323,0.323,0.323,0.323,0.323,0.323,0.323,0.323,0.323,0.323,0.323,0.323,0.323,0.323,0.323,0.323,0.323,0.313,0.2522,0.232,0.2219,0.1613,0.1412,0.1513,0.2118,0.232,0.232,0.232,0.2118,0.1815,0.1109,0.0,0.0,0.0,0.0,0.131,0.2118,0.232,0.2422,0.3029,0.323,0.3226,0.3211,0.2973,0.2643,0.2045,0.0862,-0.0094,-0.0368,-0.0997,0.0,-0.1436,-0.1436,-0.1436,-0.1436,-0.1436,-0.1436,-0.1436,-0.1436,-0.1436,-0.1436,-0.1436,-0.1436,-0.1436,-0.1436,-0.1436,-0.1436,-0.1436,-0.1436,-0.1436,0.0,0.0,0.0,0.0,0.0,0.0,0.0,0.0,0.0,0.0,0.0,0.0,0.0,0.0,0.0,0.0,0.0,0.0,0.0,0.0,0.0,0.0,0.0,0.0,0.0,0.0,0.0,0.0,0.0,1.0801,0.9813,0.0,0.0,0.0,0.0,0.4033,0.3531,0.323,0.323,0.323,0.323,0.323,0.323,0.323,0.323,0.323,0.323,0.323,0.323,0.323,0.323,0.323,0.323,0.323,0.323,0.323,0.323,0.323,0.323,0.323,0.313,0.313,0.313,0.313,0.313,0.313,0.313,0.313,0.313,0.313,0.2623,0.1916,0.131,0.1008,0.0,0.0,0.1513,0.2118,0.2927,0.313,0.313,0.323,0.323,0.3214,0.3157,0.2453,0.195,0.2009,0.1315,0.046,-0.027,0.0,-0.1436,-0.1436,-0.1436,-0.1436,-0.1436,-0.1436,-0.1436,-0.1436,-0.1436,-0.1436,-0.1436,-0.1436,-0.1436,-0.1436,-0.1436,-0.1436,-0.1436,-0.1436,-0.1436,-0.1436,-0.1256,0.0,0.0,0.0,0.0,0.0,0.0,0.0,0.0,0.0,0.0,0.0,0.0,0.0,0.0,0.0,0.0,0.0,0.0,0.0,0.0,0.0,0.0,0.0,0.0,0.0,0.0,0.0,0.0,1.0314,0.9217,0.0,0.6924,0.5732,0.4634,0.3531,0.3331,0.323,0.323,0.323,0.323,0.323,0.323,0.323,0.323,0.323,0.323,0.323,0.323,0.323,0.323,0.323,0.323,0.323,0.323,0.323,0.323,0.323,0.323,0.323,0.323,0.323,0.323,0.323,0.323,0.323,0.323,0.323,0.323,0.323,0.3027,0.2725,0.2522,0.2422,0.2321,0.2422,0.2623,0.2826,0.313,0.323,0.323,0.323,0.32,0.3166,0.3144,0.2886,0.2637,0.262,0.158,0.0643,0.036,-0.0269,-0.0897,-0.1345,-0.1436,-0.1436,-0.1436,-0.1436,-0.1436,-0.1436,-0.1436,-0.1436,-0.1436,-0.1436,-0.1436,-0.1436,-0.1436,-0.1436,-0.1436,-0.1436,-0.1345,-0.1166,-0.1166,-0.1076,0.0,0.0,0.0,0.0,0.0,0.0,0.0,0.0,0.0,0.0,0.0,0.0,0.0,0.0,0.0,0.0,0.0,0.0,0.0,0.0,0.0,0.0,0.0,0.0,0.0,1.0511,1.0216,1.0019,0.9122,0.8124,0.7021,0.6326,0.5334,0.3833,0.3732,0.3632,0.323,0.323,0.323,0.323,0.323,0.323,0.323,0.3251,0.3262,0.3262,0.3282,0.3292,0.3292,0.3292,0.3281,0.3262,0.3262,0.3249,0.323,0.323,0.323,0.323,0.323,0.323,0.323,0.323,0.323,0.323,0.323,0.323,0.323,0.323,0.323,0.323,0.323,0.323,0.323,0.323,0.323,0.323,0.323,0.323,0.323,0.323,0.32,0.3165,0.3143,0.306,0.2982,0.2962,0.1931,0.1094,0.1079,0.0269,-0.0538,-0.0987,-0.1256,-0.1436,-0.1436,-0.1436,-0.1436,-0.1436,-0.1436,-0.1436,-0.1436,-0.1436,-0.1436,-0.1436,-0.1436,-0.1436,-0.1436,-0.1436,-0.1345,-0.1166,-0.0717,-0.0269,0.009,0.0,0.0,0.0,0.0,0.0,0.0,0.0,0.0,0.0,0.0,0.0,0.0,0.0,0.0,0.0,0.0,0.0,0.0,0.0,0.0,0.0,0.0,0.0,1.0801,1.0314,1.0019,1.0019,0.9727,0.9225,0.8124,0.8021,0.7126,0.5035,0.4834,0.4334,0.3331,0.323,0.323,0.323,0.3233,0.3233,0.3233,0.3294,0.3324,0.3324,0.3384,0.3413,0.3413,0.3413,0.338,0.3324,0.3324,0.329,0.3233,0.3233,0.3232,0.323,0.323,0.323,0.323,0.323,0.323,0.323,0.323,0.323,0.323,0.323,0.323,0.323,0.323,0.323,0.323,0.323,0.323,0.323,0.323,0.323,0.323,0.323,0.3229,0.3211,0.3153,0.3093,0.3126,0.2971,0.2367,0.1796,0.1794,0.0628,-0.0359,-0.0359,-0.0897,0.0,-0.1345,-0.1345,-0.1346,-0.1436,-0.1436,-0.1436,-0.1436,-0.1436,-0.1436,-0.1436,-0.1436,-0.1436,-0.1345,-0.1345,-0.1345,-0.1256,0.009,0.1341,0.2502,0.0,0.0,0.0,0.0,0.0,0.0,0.0,0.0,0.0,0.0,0.0,0.0,0.0,0.0,0.0,0.0,0.0,0.0,0.0,0.0,0.0,1.0703,1.0507,1.0507,1.0216,0.992,0.9727,0.9628,0.9225,0.8124,0.8021,0.7425,0.6027,0.5231,0.4634,0.4332,0.3632,0.323,0.323,0.3273,0.3296,0.3296,0.3357,0.3387,0.3388,0.3405,0.3413,0.3413,0.3413,0.3403,0.3387,0.3387,0.3353,0.3296,0.3296,0.327,0.323,0.323,0.323,0.323,0.323,0.323,0.323,0.323,0.323,0.323,0.323,0.323,0.323,0.323,0.323,0.323,0.323,0.323,0.323,0.323,0.323,0.323,0.323,0.3196,0.3159,0.3143,0.3093,0.3139,0.3122,0.2881,0.2464,0.1889,0.1436,0.0987,0.0448,0.0269,-0.009,-0.0628,-0.0718,-0.0897,-0.1345,-0.1436,-0.1436,-0.1436,-0.1436,-0.1436,-0.1436,-0.1436,-0.1166,-0.0718,-0.0269,0.0358,0.143,0.1787,0.2145,0.0,0.0,0.0,0.0,0.0,0.0,0.0,0.0,0.0,0.0,0.0,0.0,0.0,0.0,0.0,0.0,0.0,0.0,0.0,0.0,0.0,0.0,1.0993,1.0703,1.0988,1.031,0.9826,0.9727,0.9628,0.9327,0.8726,0.8623,0.8223,0.7123,0.6575,0.6103,0.5597,0.4618,0.4022,0.4022,0.3548,0.336,0.336,0.3418,0.3447,0.3448,0.3473,0.3486,0.3486,0.3486,0.3471,0.3447,0.3447,0.3414,0.3358,0.3332,0.33,0.3266,0.0,0.0,0.0,0.0,0.323,0.323,0.323,0.323,0.323,0.323,0.323,0.323,0.323,0.323,0.323,0.323,0.323,0.323,0.323,0.323,0.323,0.323,0.3203,0.3177,0.3177,0.3129,0.3087,0.3087,0.3038,0.0,0.2371,0.1985,0.1615,0.1256,0.0897,0.0538,0.009,0.009,-0.009,-0.0448,-0.0538,-0.0538,-0.0538,-0.0538,0.0,0.0,0.0,-0.0269,0.0358,0.0626,0.0,0.0,0.0,0.3306,0.3844,0.3666,0.0,0.0,0.3484,0.3571,0.0,0.0,0.0,0.0,0.0,0.0,0.0,0.0,0.0,0.0,0.0,0.0,0.0,0.0,0.0,0.0,1.1765,1.1184,1.1853,1.0614,0.9747,0.9924,0.9743,0.9657,0.9657,0.9673,0.9283,0.8275,0.8302,0.7859,0.6916,0.5991,0.0,0.0,0.0,0.3528,0.3422,0.3478,0.3507,0.3507,0.3561,0.3587,0.3587,0.3587,0.3557,0.3507,0.3507,0.3474,0.3417,0.3357,0.3323,0.3307,0.3252,0.323,0.323,0.323,0.323,0.323,0.323,0.0,0.0,0.323,0.323,0.323,0.323,0.323,0.323,0.323,0.323,0.323,0.323,0.323,0.323,0.323,0.323,0.323,0.323,0.3188,0.315,0.315,0.3101,0.304,0.298,0.2372,0.1889,0.1885,0.1345,0.0897,0.0807,0.0807,0.0807,0.0718,0.0718,0.0,0.0718,0.0718,0.0718,0.0718,0.0807,0.1075,0.161,0.17,0.2503,0.4107,0.4107,0.4648,0.5733,0.5733,0.5733,0.5644,0.3755,0.366,0.0,0.0,0.0,0.0,0.0,0.0,0.0,0.0,0.0,0.0,0.0,0.0,0.0,0.0,0.0,1.3494,1.2727,1.195,1.195,1.0938,0.9996,0.9743,0.975,0.9835,0.9835,0.9969,0.9955,0.9745,0.9038,0.8377,0.8054,0.7142,0.6115,0.499,0.4919,0.4454,0.348,0.354,0.357,0.357,0.3582,0.0,0.3587,0.3587,0.358,0.357,0.357,0.3536,0.3476,0.3418,0.3337,0.3247,0.3236,0.323,0.323,0.323,0.323,0.323,0.323,0.323,0.323,0.323,0.323,0.323,0.323,0.323,0.0,0.323,0.323,0.323,0.323,0.323,0.323,0.323,0.323,0.323,0.323,0.3221,0.3213,0.3213,0.3164,0.3102,0.3042,0.2888,0.2743,0.27,0.2603,0.2243,0.1705,0.1615,0.1345,0.0807,0.0718,0.0718,0.0718,0.0718,0.0718,0.0718,0.1256,0.1972,0.2861,0.34,0.4206,0.5371,0.5371,0.5463,0.5733,0.5733,0.5733,0.5733,0.5282,0.5455,0.0,0.0,0.0,0.0,0.0,0.0,0.0,0.0,0.0,0.0,0.0,1.1482,1.2538,0.0,1.321,1.4644,1.3974,1.3346,1.3665,1.2814,1.1563,1.0075,1.0018,1.0022,1.0022,1.0022,1.0022,1.0022,0.9602,0.9256,0.9075,0.8357,0.7487,0.6782,0.5879,0.5084,0.4422,0.3905,0.3587,0.3587,0.3587,0.3587,0.3587,0.3587,0.3587,0.3587,0.3587,0.357,0.3536,0.3448,0.3358,0.3273,0.3243,0.323,0.323,0.323,0.323,0.323,0.3831,0.3632,0.333,0.4429,0.4029,0.3331,0.3833,0.3632,0.323,0.323,0.323,0.323,0.323,0.323,0.323,0.323,0.323,0.323,0.323,0.323,0.323,0.323,0.3206,0.3157,0.3065,0.3118,0.2974,0.2887,0.2875,0.2784,0.2424,0.2334,0.2243,0.1884,0.1794,0.1794,0.1794,0.1794,0.1794,0.1794,0.2154,0.278,0.3669,0.4119,0.4748,0.5644,0.5733,0.5733,0.5733,0.5733,0.5733,0.5733,0.5733,0.5997,0.0,0.0,0.0,0.0,0.0,0.0,0.0,1.1194,1.1194,1.1194,1.1389,1.177,1.2823,1.321,1.3878,1.5798,1.5274,1.4889,1.5356,1.4586,1.3241,1.1111,1.087,1.0763,1.0418,1.0309,1.0141,0.9937,0.9937,0.9925,0.9888,0.9347,0.8866,0.8652,0.6939,0.5795,0.5371,0.448,0.381,0.3587,0.3587,0.3587,0.3587,0.3587,0.3587,0.3587,0.3587,0.3575,0.3546,0.3665,0.3683,0.3606,0.3753,0.383,0.3831,0.3632,0.3632,0.393,0.4832,0.4531,0.4131,0.5824,0.5227,0.4031,0.4832,0.4531,0.383,0.383,0.363,0.3531,0.3731,0.3531,0.323,0.3432,0.3331,0.323,0.323,0.323,0.323,0.323,0.323,0.3192,0.307,0.3144,0.301,0.2891,0.2875,0.2875,0.2875,0.2875,0.2875,0.2875,0.2875,0.2875,0.2875,0.2875,0.2875,0.2875,0.2875,0.332,0.43,0.43,0.4748,0.5644,0.5733,0.5733,0.5733,0.5733,0.5733,0.5733,0.5733,0.5908,0.6237,0.7431,0.8924,0.9821,1.0511,1.1096,0.0,1.1194,1.1194,1.1194,1.1868,1.2823,1.3884,1.4841,1.5798,1.6943,1.6505,1.5822,1.5121,1.4622,1.383,1.282,1.2897,1.2547,1.1341,1.1369,1.116,1.0236,1.0132,1.0059,0.9892,0.9975,0.9556,0.8503,0.8321,0.7365,0.5369,0.526,0.4702,0.3587,0.3587,0.3587,0.3587,0.3587,0.3587,0.3587,0.3587,0.3529,0.3538,0.4473,0.4792,0.4748,0.5632,0.6024,0.5924,0.4933,0.5231,0.6024,0.6224,0.6124,0.6124,0.6323,0.6224,0.6024,0.6224,0.6124,0.6024,0.6024,0.5329,0.4832,0.5827,0.463,0.343,0.4433,0.3932,0.323,0.323,0.323,0.323,0.323,0.323,0.3192,0.307,0.3144,0.301,0.2891,0.2875,0.2875,0.2875,0.2875,0.2875,0.2875,0.2875,0.2875,0.2875,0.2875,0.2875,0.2875,0.2875,0.332,0.43,0.43,0.4748,0.5644,0.5733,0.5733,0.5733,0.5733,0.5733,0.5733,0.5733,0.5819,0.7531,0.8627,0.9719,1.0507,1.0998,1.1194,1.1194,1.1678,1.2058,1.2058,1.292,1.398,1.4937,1.5507,1.6082,1.7138,1.7058,1.6682,1.6251,1.598,1.5592,1.4992,1.4979,1.446,1.2679,1.1943,1.1318,1.0915,1.0209,0.9819,0.9738,0.9904,0.9792,0.9274,0.8804,0.8103,0.7365,0.6605,0.6088,0.5588,0.5588,0.5588,0.5588,0.5588,0.5588,0.5584,0.5533,0.5467,0.5493,0.5796,0.5798,0.5814,0.625,0.6822,0.7223,0.6126,0.6027,0.6523,0.712,0.6921,0.6623,0.7822,0.7422,0.6523,0.7123,0.6921,0.6423,0.6423,0.6124,0.5827,0.6323,0.5724,0.5127,0.5629,0.5429,0.5029,0.5029,0.5029,0.4828,0.4232,0.4097,0.3834,0.3255,0.3113,0.2969,0.2887,0.2875,0.2875,0.2875,0.2875,0.2875,0.2875,0.2875,0.2875,0.2875,0.2875,0.3053,0.332,0.332,0.3765,0.4654,0.4743,0.5013,0.5644,0.5733,0.5733,0.5733,0.5733,0.5733,0.5733,0.5733,0.5733,0.8425,0.9422,1.0216,1.0998,1.1194,1.1292,1.158,1.2155,1.2823,1.3113,1.398,1.4937,1.5697,1.5988,1.6466,1.7138,1.7406,1.7326,1.6992,1.6987,1.6822,1.6359,1.6249,1.5635,1.413,1.2888,1.2098,1.18,1.0677,1.0015,1.0015,0.9942,0.9835,0.9884,0.9186,0.88,0.8632,0.7779,0.7177,0.6931,0.6931,0.6931,0.6931,0.6931,0.6931,0.6928,0.6845,0.6792,0.6749,0.6886,0.689,0.6952,0.716,0.7723,0.8322,0.7521,0.7322,0.7422,0.8124,0.7922,0.7521,0.9126,0.8524,0.7422,0.8223,0.7922,0.7322,0.7322,0.7024,0.6921,0.7223,0.6822,0.6523,0.6722,0.6623,0.6423,0.6423,0.6423,0.6124,0.5432,0.5154,0.4766,0.3725,0.3463,0.3304,0.2973,0.2875,0.2875,0.2875,0.2875,0.2875,0.2875,0.2875,0.2875,0.2875,0.3053,0.323,0.3587,0.3765,0.4121,0.5008,0.501,0.5191,0.5733,0.5733,0.5733,0.5733,0.5733,0.5733,0.5733,0.5733,0.5733,0.8528,0.9422,1.0216,1.0998,1.1194,1.1482,1.2441,1.2635,1.3017,1.4076,1.5032,1.5798,1.5798,1.656,1.7232,1.7326,1.7589,1.7603,1.7037,1.706,1.6842,1.6272,1.5947,1.575,1.5757,1.479,1.3817,1.2737,1.176,1.1175,1.1175,1.0216,0.9709,0.988,0.9888,0.9362,0.8381,0.8381,0.7747,0.6585,0.6585,0.6585,0.6585,0.6585,0.6585,0.6585,0.6582,0.6618,0.6613,0.7635,0.8059,0.8028,0.9126,0.9529,0.9529,0.9525,0.9525,0.9525,0.9529,0.9529,0.9525,0.9628,0.9529,0.9525,0.9529,0.9529,0.9525,0.9525,0.8726,0.8223,0.9229,0.7922,0.6623,0.7723,0.7123,0.6423,0.6423,0.6423,0.6423,0.6323,0.6232,0.5828,0.4767,0.4485,0.4032,0.3061,0.2875,0.2875,0.2875,0.2875,0.2875,0.2875,0.2875,0.2875,0.2875,0.332,0.3587,0.3587,0.4032,0.4476,0.5008,0.501,0.5191,0.5733,0.5733,0.5733,0.5733,0.5733,0.5733,0.5733,0.5733,0.5733,0.9616,1.0212,1.09,1.1096,1.1673,1.2252,1.2635,1.3782,1.4835,1.5222,1.6082,1.6756,1.6756,1.7591,1.8064,1.7419,1.7976,1.81,1.7182,1.6971,1.6809,1.6238,1.6123,1.6028,1.5832,1.4873,1.41,1.3806,1.2829,1.1853,1.1268,1.0886,1.0332,0.9713,0.9713,0.9593,0.9358,0.9358,0.9308,0.8999,0.8999,0.8999,0.8999,0.8999,0.8999,0.8992,0.8884,0.8805,0.8747,0.8952,0.9076,0.9126,0.9426,0.9628,0.9628,0.9628,0.9628,0.9628,0.9628,0.9628,0.9628,0.9628,0.9628,0.9628,0.9628,0.9628,0.9628,0.9628,0.9327,0.9126,0.9525,0.9027,0.8623,0.9023,0.8825,0.8524,0.8524,0.8524,0.8294,0.7508,0.7279,0.6853,0.5598,0.5307,0.5136,0.4837,0.3676,0.2875,0.2875,0.2875,0.2875,0.2875,0.3142,0.332,0.332,0.3765,0.421,0.4476,0.4654,0.501,0.546,0.5463,0.5552,0.5733,0.5733,0.5733,0.5733,0.5733,0.5733,0.5733,0.5733,0.5733,1.0113,1.0605,1.1194,1.1194,1.1965,1.2823,1.321,1.4555,1.5893,1.6278,1.685,1.7419,1.7785,1.8334,1.8696,1.8419,1.8603,1.8611,1.8249,1.7792,1.7426,1.7419,1.6958,1.6588,1.6393,1.5439,1.4873,1.4873,1.3896,1.3022,1.2339,1.156,1.0881,1.0207,0.9821,0.9681,0.9791,0.9791,0.9851,0.9973,0.9973,0.9973,0.9973,0.9973,0.9973,0.9965,0.9843,0.9791,0.9782,0.9673,0.9628,0.9628,0.9628,0.9628,0.9628,0.9628,0.9628,0.9628,0.9628,0.9628,0.9628,0.9628,0.9628,0.9628,0.9628,0.9628,0.9727,0.9628,0.9727,0.9821,0.9727,0.9723,0.9723,0.9723,0.9628,0.9628,0.9628,0.9575,0.9299,0.8508,0.8215,0.7749,0.6545,0.5975,0.5719,0.5894,0.483,0.403,0.403,0.3853,0.3676,0.3764,0.3853,0.3853,0.3853,0.43,0.4654,0.5008,0.5191,0.5354,0.5582,0.5843,0.5996,0.595,0.6165,0.6192,0.6016,0.606,0.6083,0.6083,0.5822,0.5997,1.0117,1.0703,1.1292,1.1292,1.2058,1.3113,1.4172,1.5127,1.6177,1.7131,1.7419,1.7692,1.8696,1.888,1.9239,2.0051,1.9513,1.9239,2.0051,1.9239,1.8703,1.9438,1.8519,1.7692,1.7419,1.6487,1.5927,1.5927,1.4968,1.4394,1.4298,1.2441,1.1268,1.117,1.0207,0.9624,0.9628,0.9628,0.9628,0.9628,0.9628,0.9628,0.9628,0.9628,0.9628,0.9628,0.9628,0.9628,0.9628,0.9628,0.9628,0.9628,0.9628,0.9628,0.9628,0.9628,0.9628,0.9628,0.9628,0.9628,0.9628,0.9628,0.9628,0.9628,0.9628,0.9826,0.992,0.9727,1.0019,1.0314,1.0117,1.0019,1.0019,1.0019,0.9826,0.9628,0.9628,0.9482,0.9448,0.944,0.9051,0.8532,0.7619,0.6601,0.6071,0.6505,0.6419,0.6245,0.6157,0.5539,0.5186,0.5447,0.483,0.4476,0.4476,0.483,0.5186,0.5186,0.5544,0.5758,0.564,0.6227,0.6499,0.636,0.708,0.7161,0.6573,0.6705,0.6858,0.6864,0.6171,0.652,1.0998,1.1575,1.2349,1.2349,1.3686,1.5127,1.5317,1.6183,1.7217,1.8241,1.8427,1.8696,1.9687,2.0421,2.0782,2.0322,2.0602,2.0782,2.0232,1.996,1.9786,1.9803,1.9347,1.8972,1.8688,1.7591,1.6951,1.6951,1.6015,1.5064,1.4298,1.3806,1.2829,1.1268,1.0881,1.04,0.9628,0.9628,0.9628,0.9628,0.9628,0.9628,0.9628,0.9628,0.9628,0.9628,0.9628,0.9628,0.9628,0.9628,0.9628,0.9628,0.9628,0.9628,0.9628,0.9628,0.9628,0.9628,0.9628,0.9628,0.9628,0.9628,0.9727,0.9924,0.9924,1.0117,1.0314,1.0216,1.0314,1.0408,1.0314,1.0314,1.0314,1.0314,1.0117,0.9924,0.9924,0.9769,0.9598,0.9464,0.9232,0.9067,0.8886,0.858,0.846,0.8548,0.8548,0.7925,0.6505,0.6151,0.6062,0.6151,0.6328,0.6419,0.6419,0.6773,0.7129,0.7129,0.7031,0.7042,0.7001,0.6972,0.6971,0.6933,0.7138,0.7301,0.7257,0.7297,0.7371,0.757,0.7394,0.7482,1.1389,1.1965,1.2727,1.2727,1.4262,1.5798,1.5798,1.6929,1.8149,1.8696,1.9155,1.9695,2.0692,2.1329,2.1695,2.1507,2.1596,2.1695,2.1507,2.1141,2.097,2.1159,2.061,2.0059,1.977,1.8696,1.7785,1.7326,1.6393,1.554,1.4968,1.4586,1.3806,1.2635,1.2145,1.137,1.0306,0.9821,0.9628,0.9628,0.9628,0.9628,0.9628,0.9628,0.9628,0.9628,0.9628,0.9628,0.9628,0.9628,0.9628,0.9628,1.0113,1.0015,0.9628,1.0216,1.0216,0.9821,1.04,1.0596,1.0596,1.0502,1.0596,1.0886,1.137,1.176,1.1955,1.1755,1.1955,1.2052,1.1955,1.1955,1.1955,1.1955,1.176,1.1346,1.0775,1.0596,1.0272,0.9544,0.9318,0.9345,0.9432,0.9345,0.9345,0.9607,0.9519,0.9074,0.8093,0.7562,0.739,0.7474,0.7474,0.739,0.739,0.7654,0.7804,0.7646,0.7561,0.7447,0.7307,0.7457,0.7531,0.7449,0.7849,0.7943,0.7714,0.7866,0.8072,0.8166,0.7888,0.8185,1.1775,1.2349,1.3113,1.3113,1.4549,1.5988,1.5988,1.739,1.8696,1.8972,1.9596,2.0512,2.1695,2.1882,2.2148,2.296,2.2413,2.2148,2.296,2.2413,2.2148,2.2794,2.1872,2.1141,2.0872,1.9786,1.8696,1.7785,1.6669,1.592,1.5832,1.4968,1.449,1.4298,1.3221,1.2242,1.1365,1.0502,1.0015,1.0015,1.0015,1.0015,1.0015,0.992,0.9821,0.9821,0.9628,0.9723,0.9821,0.9821,0.9916,1.0207,1.1175,1.0979,1.031,1.1385,1.1287,1.0596,1.1755,1.2139,1.2139,1.195,1.195,1.2334,1.329,1.3776,1.3878,1.368,1.3974,1.4268,1.3974,1.3974,1.3974,1.3974,1.3776,1.3228,1.2047,1.1703,1.1212,1.0022,0.9772,0.9777,0.9777,0.9689,0.9689,0.9951,0.9777,0.9777,0.9951,0.9244,0.8807,0.8978,0.8448,0.8097,0.8097,0.8097,0.8028,0.7777,0.7746,0.7594,0.7282,0.7803,0.803,0.794,0.8572,0.8677,0.8149,0.8474,0.8662,0.8713,0.8261,0.8777,1.4076,1.4651,1.5222,1.5222,1.6177,1.7044,1.7044,1.7326,1.8056,1.9596,2.0051,2.0773,2.2501,2.2872,2.2872,2.3047,2.296,2.2872,2.3047,2.296,2.2872,2.3047,2.2696,2.2432,2.2432,2.115,2.0232,2.0051,1.8141,1.6676,1.5825,1.5635,1.5159,1.4298,1.3221,1.263,1.2436,1.2247,1.215,1.215,1.215,1.215,1.2145,1.1272,1.0881,1.0881,1.0015,1.0207,1.1272,1.1272,1.1853,1.2813,1.3,1.3006,1.2813,1.3102,1.3006,1.2909,1.3199,1.3392,1.3488,1.3295,1.3295,1.3584,1.3776,1.3974,1.4268,1.4166,1.4268,1.4268,1.4262,1.4268,1.4268,1.4268,1.407,1.3706,1.3168,1.2757,1.2352,1.2141,1.2077,1.1912,1.1149,1.0982,1.0722,1.0125,0.9951,0.9951,0.9951,0.9864,0.9777,0.9777,0.9685,0.9598,0.9598,0.9598,0.9516,0.923,0.9059,0.8864,0.8634,0.8617,0.8584,0.8551,0.866,0.8768,0.8867,0.8936,0.9064,0.939,0.9338,0.9528,1.4651,1.5222,1.5798,1.5798,1.656,1.7326,1.7326,1.8056,1.9055,2.0051,2.0962,2.1952,2.296,2.3135,2.3135,2.3135,2.3135,2.3135,2.3135,2.3135,2.3135,2.3135,2.2882,2.2715,2.2618,2.1891,2.1159,2.0512,1.9422,1.8149,1.6669,1.6109,1.554,1.5064,1.4094,1.3511,1.3511,1.3022,1.2727,1.2727,1.2727,1.2727,1.2727,1.2242,1.195,1.195,1.1565,1.176,1.2344,1.2528,1.2909,1.3584,1.407,1.3968,1.3584,1.4262,1.4166,1.3776,1.4447,1.4734,1.493,1.5311,1.5216,1.5026,1.5507,1.5798,1.5893,1.5893,1.5893,1.5893,1.5893,1.5893,1.5893,1.5893,1.5184,1.4339,1.4057,1.3322,1.2659,1.2699,1.2674,1.2589,1.2083,1.1997,1.1912,1.1488,1.1402,1.1402,1.1402,1.0977,1.0467,1.0038,1.0038,1.0038,1.0038,0.9856,0.9705,0.9493,0.9285,0.9072,0.8864,0.8755,0.8703,0.8703,0.8703,0.8755,0.8855,0.8968,0.9124,0.9327,1.003,1.0358,1.5507,1.5798,1.6183,1.6183,1.6756,1.7326,1.7326,1.8696,1.996,2.0141,2.1596,2.2872,2.3047,2.3135,2.3135,2.3135,2.3135,2.3135,2.3135,2.3135,2.3135,2.3135,2.2882,2.2706,2.253,2.2264,2.1722,2.0718,2.0439,1.943,1.7419,1.6393,1.5832,1.5832,1.5064,1.4586,1.4586,1.38,1.3409,1.3409,1.3409,1.3409,1.3409,1.3119,1.3022,1.3022,1.3119,1.3216,1.3505,1.3776,1.4058,1.4345,1.5222,1.5032,1.4447,1.5425,1.5324,1.474,1.5792,1.6082,1.6278,1.7044,1.6756,1.6271,1.7044,1.7326,1.7326,1.7326,1.7326,1.7326,1.7326,1.7326,1.7311,1.7245,1.6232,1.5212,1.4904,1.3999,1.3275,1.3275,1.3275,1.319,1.3014,1.3014,1.293,1.276,1.2674,1.2674,1.2674,1.2083,1.1322,1.0636,1.0207,1.0038,1.0038,0.9762,0.9554,0.9337,0.9133,0.8926,0.8713,0.8703,0.878,0.8932,0.8932,0.9003,0.9231,0.9411,0.9443,0.9571,1.0557,1.1189,1.8187,1.7815,1.7535,1.7535,1.7434,1.7326,1.7326,1.8149,1.9147,2.0051,2.1051,2.2059,2.296,2.3135,2.3135,2.3135,2.3135,2.3135,2.3135,2.3135,2.3135,2.3135,2.2882,2.2794,2.2803,2.2362,2.2008,2.1909,2.0898,1.943,1.7419,1.6393,1.5832,1.5832,1.573,1.5642,1.5642,1.554,1.554,1.554,1.554,1.554,1.5439,1.458,1.41,1.41,1.3414,1.3794,1.4848,1.5121,1.5886,1.6943,1.7037,1.7044,1.6943,1.7044,1.7044,1.7037,1.7138,1.7138,1.7138,1.7232,1.7232,1.7138,1.7232,1.7326,1.7326,1.7326,1.7326,1.7326,1.7326,1.7326,1.726,1.6967,1.6623,1.6191,1.5807,1.5481,1.5166,1.5166,1.5166,1.4915,1.4139,1.3971,1.3711,1.2845,1.2674,1.2674,1.2674,1.2589,1.2504,1.2419,1.0977,1.0038,1.0038,0.9762,0.9554,0.9337,0.9133,0.8926,0.8713,0.8703,0.9079,0.9765,0.9771,1.0143,1.0881,1.0911,1.0965,1.1188,1.1307,1.1591,1.8481,1.8195,1.79,1.79,1.79,1.78,1.78,1.8972,2.015,2.043,2.1695,2.2872,2.3047,2.3135,2.3135,2.3135,2.3135,2.2872,2.2325,2.2775,2.2872,2.2325,2.2696,2.2882,2.2618,2.2353,2.19,2.1078,1.9977,1.8788,1.7419,1.6951,1.6393,1.5825,1.5832,1.5832,1.5832,1.5832,1.5832,1.5832,1.5832,1.5832,1.5825,1.535,1.5159,1.5159,1.5242,1.5527,1.6008,1.6372,1.6842,1.7326,1.7326,1.7326,1.7326,1.7326,1.7326,1.7326,1.7326,1.7326,1.7326,1.7326,1.7326,1.7326,1.7326,1.7326,1.7326,1.7326,1.7326,1.7326,1.7326,1.7186,1.696,1.6638,1.6323,1.6009,1.5694,1.5518,1.5431,1.5431,1.5431,1.5257,1.4915,1.4915,1.4741,1.4391,1.4307,1.4307,1.4307,1.388,1.3535,1.3535,1.2425,1.1514,1.1376,1.1139,1.0891,1.0565,1.0412,1.0236,1.0137,1.0132,1.0282,1.0588,1.0588,1.0812,1.1111,1.1111,1.116,1.1268,1.1891,1.2324,1.8566,1.8373,1.8187,1.8187,1.8187,1.8087,1.8087,1.9338,2.0602,2.0709,2.2059,2.3135,2.3232,2.3232,2.3232,2.3135,2.2872,2.2422,2.1784,2.205,2.1961,2.1329,2.1695,2.1971,2.1704,2.1526,2.0979,1.9977,1.9155,1.8334,1.7326,1.7326,1.6857,1.5832,1.5832,1.592,1.6204,1.592,1.592,1.6204,1.592,1.5832,1.5832,1.5927,1.5927,1.5927,1.6494,1.6683,1.6777,1.7145,1.7326,1.7326,1.7326,1.7326,1.7326,1.7326,1.7326,1.7326,1.7326,1.7326,1.7326,1.7326,1.7512,1.7785,1.7785,1.7785,1.7785,1.7785,1.7963,1.8149,1.8149,1.7896,1.7655,1.7316,1.6898,1.6484,1.5899,1.5741,1.5741,1.5741,1.559,1.5506,1.5748,1.559,1.5431,1.5431,1.5431,1.5431,1.5431,1.4824,1.4482,1.4482,1.388,1.3168,1.2242,1.2053,1.1781,1.1432,1.1175,1.1111,1.1111,1.1111,1.1186,1.1484,1.1484,1.1558,1.1781,1.1781,1.1781,1.1861,1.2668,1.3044,1.8827,1.8658,1.8481,1.8481,1.8288,1.8087,1.8087,1.8804,1.9795,2.0773,2.1765,2.2668,2.3319,2.3503,2.3416,2.3144,2.2325,2.1695,2.1695,2.0872,2.0232,2.0232,1.9795,1.9621,1.9894,1.9521,1.9155,1.888,1.8796,1.8334,1.7326,1.7326,1.6857,1.5832,1.5832,1.6298,1.7232,1.6298,1.6298,1.7232,1.6298,1.5832,1.5832,1.6028,1.6224,1.6224,1.6791,1.6979,1.6979,1.7246,1.7326,1.7326,1.7326,1.7326,1.7326,1.7326,1.7326,1.7326,1.7326,1.7326,1.7326,1.7326,1.7971,1.8788,1.8788,1.8788,1.8788,1.8788,1.9422,2.0141,2.0141,1.9869,1.9502,1.9118,1.8752,1.8129,1.6942,1.6698,1.6698,1.6698,1.5982,1.5665,1.6542,1.5982,1.5431,1.5431,1.5431,1.5431,1.5431,1.5431,1.5431,1.5431,1.5347,1.4532,1.2407,1.2053,1.1781,1.1432,1.1175,1.1111,1.1111,1.1111,1.1484,1.2305,1.2298,1.2673,1.3499,1.3499,1.3499,1.3499,1.3499,1.3675,1.8827,1.8735,1.8743,1.8743,1.8643,1.855,1.855,1.9355,2.0068,2.0249,2.097,2.1596,2.1526,2.1535,2.1427,2.1141,2.0872,2.0421,1.9786,1.9968,1.996,1.933,1.9521,1.9712,1.9621,1.9338,1.8788,1.7878,1.7785,1.7318,1.6298,1.6298,1.6109,1.5832,1.6487,1.6676,1.6298,1.6669,1.6669,1.6298,1.592,1.5927,1.6123,1.613,1.6312,1.6494,1.6885,1.6979,1.6979,1.7246,1.7326,1.7326,1.7326,1.7326,1.7326,1.7326,1.7326,1.7326,1.7326,1.7785,1.8334,1.8334,1.8964,1.9786,1.9786,1.9786,1.9786,1.9786,1.996,2.0172,1.9834,1.9493,1.9204,1.8743,1.8451,1.8062,1.77,1.7594,1.7594,1.7594,1.7359,1.7269,1.7513,1.735,1.7196,1.7196,1.7196,1.7196,1.7196,1.7196,1.7196,1.7196,1.6624,1.5583,1.3933,1.3715,1.3445,1.2845,1.2802,1.2746,1.2746,1.2746,1.2893,1.3119,1.3119,1.3273,1.3492,1.3492,1.3492,1.3492,1.3492,1.355,1.892,1.8827,1.8827,1.8827,1.8827,1.8827,1.8827,1.9271,1.9812,1.9985,2.052,2.0889,2.0799,2.0709,2.061,2.024,1.9869,1.9513,1.888,1.8964,1.888,1.8156,1.8527,1.8619,1.8249,1.8149,1.7684,1.6763,1.677,1.6487,1.5832,1.5832,1.5832,1.5832,1.6393,1.6763,1.6943,1.6763,1.6763,1.6943,1.6574,1.6487,1.6588,1.6777,1.6777,1.6581,1.6965,1.7153,0.0,1.7239,1.7326,1.7326,1.7326,1.7326,1.7326,1.7326,1.7512,1.7878,1.7878,1.8511,1.933,1.933,1.9968,2.0872,2.123,2.1051,2.0872,2.123,2.132,2.123,2.0842,2.0445,2.0048,1.966,1.9255,1.8877,1.8567,1.8487,1.8487,1.8487,1.8238,1.8078,1.8407,1.8238,1.7997,1.7997,1.7997,1.7997,1.7997,1.7997,1.7997,1.7997,1.7504,1.6742,1.5513,1.4847,1.4187,1.3536,1.3492,1.3492,1.3492,1.3492,1.3492,1.3492,1.3492,1.3492,1.3492,1.3492,1.3572,1.3645,1.3645,1.3645,0.0,1.892,1.8827,1.8827,1.8827,1.8827,1.8827,1.8827,0.0,1.9985,2.0167,2.0339,2.0773,2.0773,2.0593,2.0141,1.9239,1.8696,1.8696,1.7878,1.7239,1.6979,1.6979,1.6791,1.6224,1.6224,1.6123,1.5825,1.5832,1.5832,1.5832,1.5832,1.5832,1.592,1.5927,1.6756,1.8703,1.6943,1.6936,1.8796,1.7878,1.7419,1.7512,1.7986,1.7707,1.6857,1.7326,1.7512,1.7512,1.7512,1.7512,1.7512,1.7512,1.7512,1.7512,1.7512,1.8056,1.888,1.888,1.9513,2.0322,2.0413,2.1051,2.1961,2.2872,2.2501,2.1971,2.2862,2.3115,2.2998,2.2578,2.2158,2.1728,2.1289,2.0869,2.0411,1.9539,1.9381,1.9381,1.9381,1.8727,1.8399,1.9213,1.8727,1.8158,1.8158,1.8158,1.8158,1.8158,1.8158,1.8158,1.8158,1.8158,1.7777,1.702,1.5605,1.4416,1.3674,1.3637,1.3564,1.3637,1.3637,1.3564,1.3637,1.371,1.371,1.371,1.371,1.3783,1.4008,1.4008,1.4072,2.1329,0.0,1.8827,1.8827,1.8827,1.8827,0.0,1.8827,1.8827,1.9096,1.9188,1.9188,1.9104,1.8904,1.8711,1.8357,1.7885,1.7699,1.7699,1.7419,1.7239,1.6979,1.716,1.6965,1.6319,1.6407,1.6305,1.5832,1.5832,1.5832,1.5832,1.5832,1.6109,1.6951,1.6951,1.7138,1.7699,1.7963,1.8326,1.8788,1.8519,1.8611,1.898,1.908,1.9247,1.9322,1.9505,1.9505,1.9505,1.9505,1.9505,1.9505,1.9505,1.9505,1.9505,1.9505,1.9687,1.9869,1.9869,2.0512,2.1516,2.2236,2.2589,2.2775,2.3047,2.296,2.2784,2.3047,2.291,2.2568,2.2139,2.1709,2.1279,2.083,2.0644,2.0566,2.0323,2.0323,2.0323,2.0323,2.0167,2.0079,2.0245,2.0079,2.0001,2.0001,2.0001,2.0001,2.0001,2.0001,2.0001,2.0001,1.9371,1.8737,1.794,1.696,1.6038,1.5229,1.4681,1.4609,1.518,1.4609,1.4609,1.518,1.5313,1.5525,1.5675,1.5675,1.5675,1.5675,1.5675,1.5745,2.2658,2.132,1.9994,1.9629,1.9446,1.9363,1.892,1.8827,1.8827,1.8827,1.8827,1.8743,1.8574,1.828,1.7994,1.7721,1.7434,1.7326,1.7326,1.7326,1.7239,1.7153,1.7153,1.6965,1.6407,1.6407,1.6211,1.5832,1.5832,1.5832,1.5832,1.5832,1.6015,1.6574,1.7052,1.7512,1.7963,1.8519,1.9063,1.9521,1.9521,1.9613,1.9894,1.9985,1.9985,1.9886,1.9968,2.015,2.0232,2.0232,2.0232,2.0232,2.0232,2.0232,2.0232,2.0232,2.0503,2.0872,2.0872,2.1507,2.2422,2.296,2.3135,2.3135,2.3135,2.3135,2.3096,2.291,2.2685,2.2373,2.1748,2.1416,2.1123,2.0674,2.0566,2.0566,2.0566,2.0566,2.0566,2.0566,2.0566,2.0566,2.0566,2.0566,2.0566,2.0566,2.0566,2.0566,2.0566,2.0566,2.0566,2.0566,2.0167,1.9601,1.8767,1.8239,1.7369,1.5788,1.5313,1.5313,1.5807,1.5446,1.5446,1.5956,1.6088,1.6158,1.6306,1.6306,1.6376,1.6437,1.6437,1.6507,2.379,2.2921,2.1952,2.0791,2.0439,2.0076,1.918,1.892,1.8827,1.8827,1.8827,1.8735,1.8574,1.828,1.7994,1.7815,1.752,1.7326,1.7326,1.7326,1.7333,1.7239,1.7153,1.6878,1.6588,1.6407,1.6123,1.5825,1.5832,1.5832,1.5832,1.5832,1.5825,1.6015,1.7044,1.7971,1.9063,1.9063,1.9521,2.0529,2.0529,2.0529,2.0619,2.0718,2.0538,1.9985,2.0257,2.043,2.0593,2.0593,2.0593,2.0593,2.0593,2.0593,2.0593,2.0593,2.1141,2.1872,2.1872,2.2413,2.3135,2.3135,2.3135,2.3135,2.3135,2.3096,2.2949,2.2699,2.2497,2.2236,2.1435,2.1182,2.1035,2.081,2.0789,2.0789,2.0944,2.0867,2.0789,2.0944,2.0867,2.0789,2.0789,2.0867,2.0934,2.0789,2.0799,2.0799,2.0799,2.0722,2.0722,2.0722,2.0722,2.0397,1.9736,1.9472,1.8567,1.6693,1.6184,1.6018,1.6219,1.6349,1.6498,1.6655,1.6655,1.6724,1.6715,1.6715,1.6853,1.6982,1.7111,1.7189,2.502,2.468,2.3983,2.1952,2.0889,2.0249,2.0076,1.9455,1.8827,1.8827,1.8827,1.8827,1.8743,1.8365,1.8087,1.8087,1.7613,1.7326,1.7326,1.7326,1.7239,1.7073,1.7153,1.6965,1.6312,1.6407,1.6305,1.5832,1.5832,1.5832,1.5832,1.5832,1.6204,1.7044,1.8056,1.9063,2.0068,2.0068,2.0529,2.1463,2.1463,2.1642,2.182,2.182,2.1998,2.2344,2.2344,2.2432,2.2677,2.2677,2.2677,2.2677,2.2677,2.2677,2.2677,2.2677,2.2775,2.2872,2.2872,2.296,2.3135,2.3135,2.3135,2.3135,2.3135,2.2891,2.2689,2.2909,2.2541,2.1865,2.1367,2.0947,2.0878,2.1482,2.1614,2.1832,2.2499,2.2134,2.1842,2.251,2.2059,2.1614,2.1614,2.2209,2.2435,2.168,2.1776,2.1873,2.1873,2.1425,2.1128,2.1128,2.1128,2.1202,2.1303,2.0369,1.9981,2.0485,1.8262,1.7001,1.7198,1.7765,1.8192,1.8395,1.8395,1.8519,1.8654,1.8654,1.8721,1.8721,1.9299,1.9299,2.5633,2.538,2.4946,2.3714,2.2648,2.1676,2.115,2.0348,1.9629,1.9629,1.9188,1.8827,1.8827,1.8558,1.8187,1.7908,1.7527,1.7326,1.7326,1.7326,1.7239,1.7153,1.7239,1.7052,1.6494,1.6494,1.6393,1.5825,1.5832,1.5832,1.5832,1.5832,1.6298,1.7232,1.8241,1.9247,2.0249,2.0808,2.1275,2.1741,2.1741,2.1741,2.1919,2.1919,2.2176,2.2618,2.2618,2.2794,2.3135,2.3135,2.3135,2.3135,2.3135,2.3135,2.3135,2.3135,2.3135,2.3135,2.3135,2.3135,2.3135,2.3135,2.3135,2.3135,2.3135,2.309,2.315,2.3175,2.2796,2.2349,2.2201,2.214,2.2188,2.2424,2.2574,2.2787,2.3084,2.2936,2.2861,2.3231,2.2936,2.2713,2.2713,2.301,2.3158,2.2787,2.2809,2.2883,2.2883,2.2585,2.2435,2.2435,2.2435,2.2391,2.2341,2.1506,2.0658,1.9868,1.9014,1.8623,1.869,1.911,1.9584,2.0031,2.0031,2.0107,2.0161,2.0161,2.0161,2.0161,2.0484,2.0484,2.6218,2.5812,2.5475,2.5126,2.4145,2.3008,2.2217,2.115,2.0339,2.0339,1.9546,1.8827,1.8827,1.8558,1.8288,1.7822,1.7434,1.7326,1.7326,1.7326,1.7326,1.7326,1.7326,1.7145,1.6777,1.6683,1.64,1.5927,1.5832,1.5832,1.5832,1.5832,1.6393,1.7598,1.8427,1.943,2.0619,2.1365,2.1741,2.1741,2.1741,2.1741,2.1741,2.1741,2.1998,2.2441,2.2441,2.2706,2.3135,2.3135,2.3135,2.3135,2.3135,2.3135,2.3135,2.3135,2.3135,2.3135,2.3135,2.3135,2.3135,2.3135,2.3222,2.3367,2.3355,2.3601,2.3874,2.3769,2.3533,2.3243,2.3119,2.3305,2.3452,2.339,2.3599,2.3818,2.3818,2.3818,2.3818,2.4036,2.3891,2.3818,2.3818,2.3963,2.3963,2.3818,2.3818,2.3818,2.3818,2.3745,2.3672,2.3672,2.3672,2.3469,2.3055,2.2823,2.1677,1.9452,1.9758,2.0096,2.0096,2.0226,2.0549,2.106,2.1123,2.1123,2.1123,2.1123,2.1123,2.1123,2.125,2.125,2.7103,2.6373,2.5559,2.5559,2.4498,2.3347,2.3096,2.1587,2.0339,2.0339,1.9546,1.8827,1.8827,1.8458,1.7994,1.7721,1.7434,1.7326,1.7326,1.7326,1.7326,1.7326,1.7326,1.7239,1.6979,1.6777,1.6494,1.6224,1.5927,1.5832,1.5832,1.5832,1.6662,1.8611,1.8788,1.9712,2.1553,2.1642,2.1741,2.1741,2.1741,2.1741,2.1741,2.1919,2.2185,2.2432,2.2618,2.2882,2.3135,2.3135,2.3135,2.3135,2.3135,2.3135,2.3135,2.3135,2.3135,2.3135,2.3135,2.3135,2.3135,2.3135,2.3734,2.433,2.3991,2.426,2.4703,2.505,2.5008,2.4611,2.3683,2.3514,2.3672,2.442,2.4564,2.4779,2.5535,2.5158,2.4862,2.5606,2.5087,2.4636,2.4636,2.5229,2.5453,2.4707,2.4779,2.4862,2.4862,2.4409,2.4047,2.4047,2.4047,2.3913,2.349,2.4171,2.3745,2.1747,2.1084,2.0835,2.0996,2.0996,2.106,2.1123,2.1123,2.1123,2.1123,2.1123,2.1123,2.1123,2.1741,2.1678,2.7336,2.6539,2.5738,2.5644,2.5211,2.468,2.4327,2.2736,2.132,2.1239,1.9903,1.8827,1.8827,1.8558,1.8288,1.7994,1.7714,1.7527,1.7326,1.7326,1.7326,1.7326,1.7326,1.7145,1.6784,1.6683,1.64,1.6021,1.5832,1.6109,1.6669,1.677,1.7684,1.9704,1.9704,2.0357,2.1651,2.1741,2.1741,2.1741,2.1741,2.1741,2.1741,2.2008,2.2185,2.2432,2.2706,2.2882,2.3135,2.3135,2.3135,2.3135,2.3135,2.3135,2.3135,2.3135,2.3135,2.3135,2.3135,2.3135,2.3222,2.3963,2.4382,2.4714,2.4902,2.5306,2.5597,2.5538,2.5625,2.5606,2.5087,2.5146,2.5358,2.5453,2.5664,2.5886,2.605,2.5968,2.5873,2.6176,2.6025,2.5804,2.5804,2.6094,2.6176,2.5873,2.5873,2.5955,2.5955,2.5721,2.5569,2.5569,2.5569,2.5363,2.4883,2.4781,2.4313,2.3286,2.2214,2.1655,2.1741,2.1741,2.1939,2.2322,2.2322,2.2322,2.2322,2.2322,2.2322,2.2384,2.2628,2.2567,2.773,2.6775,2.5895,2.5728,2.5644,2.5559,2.5211,2.3704,2.2296,2.1784,2.0175,1.8827,1.8827,1.8658,1.8381,1.8179,1.79,1.7628,1.7333,1.7326,1.7326,1.7326,1.7326,1.7138,1.6864,1.6676,1.6494,1.6109,1.6204,1.6574,1.7232,1.7606,1.8519,2.0249,2.0339,2.0718,2.1731,2.1741,2.1741,2.1741,2.1741,2.1741,2.1731,2.2008,2.2264,2.2441,2.2794,2.2969,2.3135,2.3135,2.3135,2.3135,2.3135,2.3135,2.3135,2.3135,2.3135,2.3135,2.3474,2.356,2.3724,2.4882,2.5368,2.5677,2.5847,2.6298,2.6593,2.6021,2.6098,2.627,2.6119,2.6314,2.6465,2.6188,2.6327,2.6465,2.6339,2.6396,2.6533,2.6533,2.6533,2.6533,2.6533,2.6533,2.6589,2.6782,2.685,2.6905,2.7095,2.7095,2.7095,2.7095,2.7095,2.6928,2.6528,2.5818,2.5269,2.488,2.3492,2.2616,2.2433,2.2433,2.2616,2.3078,2.3078,2.3078,2.3078,2.3078,2.3185,2.3424,2.3424,2.3531,2.8426,2.7162,2.5895,2.5895,2.5895,2.5822,2.5654,2.4498,2.3086,2.1961,2.0175,1.8827,1.8827,1.8658,1.8388,1.8179,1.7908,1.7628,1.7333,1.7326,1.7326,1.7326,1.7326,1.7326,1.7326,1.6864,1.6581,1.6588,1.7052,1.7326,1.7326,1.8241,1.9247,2.0249,2.0339,2.0718,2.1731,2.1741,2.1741,2.1741,2.1741,2.1741,2.1741,2.2176,2.2441,2.2432,2.2882,2.3135,2.3135,2.3135,2.3135,2.3135,2.3135,2.3135,2.3135,2.3135,2.3144,2.3222,2.4155,2.4498,2.4659,2.5786,2.6789,2.7358,2.6742,2.7136,2.7605,2.6779,2.6533,2.6533,2.6533,2.6533,2.6533,2.6533,2.6533,2.6533,2.6533,2.6533,2.6533,2.6533,2.6533,2.6521,2.6521,2.6521,2.6714,2.7417,2.7484,2.7736,2.8427,2.8492,2.8492,2.8492,2.8492,2.8492,2.8492,2.7389,2.6691,2.6708,2.5016,2.374,2.315,2.3138,2.3138,2.3138,2.3138,2.3138,2.3138,2.3138,2.3484,2.4131,2.4131,2.4452,2.773,2.6775,2.5895,2.5895,2.5895,2.5822,2.5654,2.4669,2.3337,2.1311,2.0339,1.9629,1.8912,1.8735,1.8651,1.8381,1.8187,1.79,1.7621,1.7426,1.7326,1.7326,1.7326,1.7239,1.7066,1.7434,1.7613,1.7412,1.7963,1.8696,1.9338,1.9704,2.0257,2.1266,2.1275,2.1454,2.1741,2.1741,2.1741,2.1741,2.1741,2.183,2.2008,2.2264,2.253,2.2706,2.2969,2.3135,2.3135,2.3135,2.3135,2.3135,2.3135,2.3135,2.3135,2.3135,2.3474,2.4155,2.4413,2.4978,2.5797,2.6964,2.7614,2.7905,2.7665,2.7804,2.7811,2.6766,2.6533,2.6533,2.6533,2.685,2.7095,2.6589,2.6533,2.6533,2.6533,2.6837,2.7229,2.7229,2.7604,2.792,2.792,2.792,2.7986,2.8182,2.8182,2.8298,2.8492,2.8492,2.8492,2.8492,2.8492,2.8492,2.8492,2.7823,2.7404,2.7414,2.6103,2.5063,2.4465,2.406,2.4002,2.4439,2.4439,2.4439,2.4439,2.4439,2.4553,2.4738,2.4738,2.4851,2.7336,2.6539,2.5895,2.5895,2.5895,2.5895,2.5728,2.485,2.3521,2.2013,2.1311,2.061,1.9629,1.9363,1.9271,1.9104,1.855,1.8265,1.8804,1.7978,1.7598,1.8326,1.7785,1.7512,1.8249,1.8172,1.8172,1.8427,1.9063,1.9704,2.0257,2.0619,2.1087,2.1651,2.1741,2.1741,2.1741,2.1741,2.1741,2.1741,2.183,2.2176,2.2784,2.252,2.253,2.2794,2.2969,2.3135,2.3135,2.3135,2.3135,2.3144,2.3474,2.3396,2.3222,2.3897,2.4317,2.4573,2.54,2.6141,2.6871,2.8039,2.8518,2.8548,2.8201,2.8109,2.7871,2.6766,2.6533,2.6589,2.685,2.7229,2.7351,2.6658,2.6905,2.7229,2.6973,2.7417,2.792,2.792,2.8247,2.8492,2.8492,2.8492,2.862,2.8889,2.9142,2.9331,2.9331,2.9331,2.9331,2.9331,2.9331,2.9331,2.9393,2.8872,2.8552,2.8665,2.7474,2.6641,2.63,2.5129,2.4738,2.5063,2.5063,2.5063,2.5063,2.5063,2.5189,2.537,2.5467,2.5632,2.7185,2.6539,2.5906,2.5979,2.5979,2.5895,2.5895,2.4935,2.3887,2.3521,2.2736,2.1765,2.061,2.0439,2.0348,2.0076,1.9072,1.8888,2.0413,1.8872,1.8234,1.996,1.8596,1.8241,2.0051,1.9072,1.8719,1.953,2.0167,2.0439,2.0439,2.1275,2.1741,2.1741,2.1741,2.1741,2.1741,2.1741,2.1731,2.182,2.2087,2.2775,2.3887,2.2862,2.2618,2.2794,2.3135,2.3222,2.3222,2.3222,2.3309,2.3387,2.4327,2.4069,2.356,2.5147,2.5326,2.4988,2.6894,2.7545,2.7867,2.9015,2.9419,2.9297,2.8362,2.8109,2.7871,2.6766,2.6521,2.6714,2.7351,2.7617,2.755,2.685,2.7604,2.8298,2.7736,2.8117,2.862,2.862,2.862,2.8684,2.8684,2.8684,2.8889,2.9608,3.019,3.0568,3.0568,3.0568,3.0568,3.0642,3.0642,3.0702,3.0821,3.0251,2.9992,3.0203,2.9052,2.8393,2.8361,2.6452,2.5397,2.5398,2.5398,2.5398,2.5398,2.5398,2.5577,2.6002,2.6244,2.663,2.7267,2.6539,2.6063,2.6787,2.6385,2.5895,2.5895,2.5633,2.5115,2.3973,2.3347,2.2736,2.1596,2.1427,2.1427,2.1338,2.0962,2.0674,2.0863,2.0322,1.996,2.0141,1.9869,1.9778,2.0141,2.043,2.0619,2.0628,2.1356,2.1642,2.1365,2.1553,2.1741,2.1741,2.1741,2.1741,2.1741,2.1741,2.1998,2.2539,2.294,2.3617,2.4573,2.3309,2.2794,2.3057,2.3907,2.4241,2.4241,2.4241,2.4573,2.5231,2.54,2.5411,2.5242,2.5663,2.6235,2.6894,2.7383,2.8119,2.9015,2.9341,2.9521,2.9489,2.8448,2.8109,2.7871,2.6766,2.6905,2.7284,2.7484,2.8325,2.8967,2.8247,2.8298,2.8427,2.8298,2.8826,2.9359,2.9359,2.9794,3.0176,3.0176,3.0176,3.0176,3.0387,3.0507,3.0568,3.0568,3.0568,3.0642,3.0762,3.0762,3.0821,3.1014,3.0895,3.0822,3.0866,3.0104,2.9695,2.9672,2.7849,2.6837,2.6803,2.6788,2.6788,2.6788,2.6788,2.6841,2.6907,2.6959,2.7063,2.6928,2.6373,2.5924,2.6166,2.5864,2.5546,2.5546,2.5546,2.5362,2.4808,2.4413,2.3877,2.2736,2.2482,2.2394,2.2394,2.1756,2.1569,2.2394,2.14,2.0863,2.1686,2.0863,2.0593,2.1498,2.1418,2.1427,2.1624,2.1909,2.2008,2.1731,2.1741,2.1741,2.1741,2.1741,2.1741,2.1741,2.1741,2.2087,2.2803,2.3377,2.4211,2.5242,2.4573,2.4307,2.4392,2.4904,2.5158,2.5158,2.5158,2.5411,2.5819,2.6329,2.6163,2.5902,2.6894,2.7383,2.7557,2.8199,2.8846,2.9419,2.9521,2.9702,2.9628,2.8762,2.831,2.7994,2.7487,2.7437,2.767,2.8325,2.903,2.9546,2.9532,2.9532,2.9407,2.9093,2.9608,3.0068,3.0068,3.0387,3.0568,3.0568,3.0568,3.0568,3.0568,3.0568,3.0642,3.0702,3.0702,3.0762,3.0955,3.0955,3.1014,3.1176,3.119,3.1249,3.1307,3.0981,3.0624,3.0297,2.9337,2.8473,2.7772,2.7758,2.7595,2.7284,2.7284,2.7284,2.7181,2.7321,2.7386,2.6846,2.6539,2.6025,2.5376,2.5175,2.5153,2.5076,2.512,2.5284,2.5532,2.5316,2.485,2.3877,2.3444,2.3367,2.3367,2.2463,2.2375,2.4024,2.2394,2.1765,2.3319,2.1863,2.132,2.296,2.2236,2.1882,2.2432,2.2264,2.2008,2.1741,2.1741,2.1741,2.1741,2.1741,2.1741,2.1919,2.1919,2.2344,2.3309,2.4145,2.5147,2.6246,2.6246,2.608,2.5819,2.5997,2.6069,2.6069,2.6069,2.6163,2.6329,2.7174,2.6999,2.6483,2.8223,2.8383,2.7959,2.9015,2.9419,2.9509,2.9702,2.9792,2.9679,2.9101,2.861,2.8261,2.8296,2.8118,2.813,2.9296,2.9685,2.9931,3.0447,3.0568,3.0447,2.987,3.019,3.0568,3.0568,3.0568,3.0568,3.0568,3.0568,3.0628,3.0642,3.0642,3.0702,3.0821,3.0925,3.1058,3.1132,3.1292,3.1452,3.1509,3.1552,3.1667,3.1796,3.1796,3.1524,3.1006,3.0991,3.0362,2.9064,2.8839,2.8472,2.7919,2.8021,2.8006,2.7889,2.8092,2.8157,2.8143,2.7891,2.7209,2.561,2.5175,2.5065,2.4672,2.4891,2.5185,2.5262,2.5258,2.5115,2.4765,2.4519,2.4272,2.4272,2.4176,2.41,2.4206,2.3754,2.3396,2.3503,2.3047,2.2775,2.3047,2.296,2.2784,2.2706,2.253,2.2264,2.2097,2.183,2.1741,2.1741,2.1741,2.1998,2.2618,2.2618,2.3474,2.5158,2.6599,2.7615,2.8167,2.8167,2.7244,2.583,2.667,2.701,2.701,2.701,2.7429,2.8179,2.8474,2.8474,2.8462,2.8882,2.9118,2.9172,2.9341,2.9521,2.9779,2.9792,2.9792,2.9679,2.9101,2.8953,2.8866,2.8434,2.8783,2.9359,2.956,3.0007,3.0507,3.0568,3.0568,3.0568,3.0507,3.0507,3.0568,3.0568,3.0568,3.0568,3.0568,3.0568,3.0642,3.0762,3.0762,3.0821,3.1014,3.148,3.1637,3.1278,3.2145,3.2625,3.2272,3.268,3.2917,3.2986,3.2986,3.2939,3.2845,3.2845,3.2468,3.1699,3.0644,3.0099,3.0007,3.0448,3.0696,3.0647,3.0696,3.0696,2.7336,2.6829,2.6041,2.5065,2.4574,2.4312,2.4104,2.4213,2.4519,2.5065,2.5081,2.4965,2.5062,2.4786,2.454,2.454,2.454,2.4454,2.4368,2.4196,2.3937,2.3667,2.3493,2.3232,2.3135,2.3135,2.3057,2.2803,2.2706,2.253,2.2264,2.2176,2.1998,2.1919,2.1919,2.2185,2.2794,2.3038,2.4211,2.6235,2.736,2.8122,2.851,2.851,2.8087,2.7336,2.7753,2.7926,2.7926,2.7926,2.8247,2.8645,2.8803,2.8882,2.8961,2.9197,2.9341,2.9419,2.9599,2.9702,2.9792,2.9792,3.0075,3.0367,3.0098,2.9902,2.9829,2.9971,2.9827,2.9685,3.0068,3.0387,3.0568,3.0568,3.0568,3.0568,3.0568,3.0568,3.0568,3.0568,3.0568,3.0642,3.0702,3.0702,3.0762,3.0955,3.1204,3.148,3.1667,3.2185,3.2501,3.2407,3.2826,3.3039,3.2841,3.3039,3.3182,3.3182,3.3182,3.3182,3.3182,3.3182,3.304,3.2792,3.1856,3.1205,3.088,3.1063,3.1211,3.1211,3.1211,3.1211,2.6326,2.5779,2.5182,2.4692,2.4238,2.3853,2.3721,2.3722,2.3929,2.465,2.4827,2.4841,2.5039,2.4872,2.4615,2.4625,2.4615,2.4625,2.454,2.4292,2.412,2.3937,2.3677,2.3493,2.3232,2.3232,2.3144,2.2882,2.2803,2.2706,2.253,2.2441,2.2353,2.2185,2.2185,2.253,2.3309,2.4135,2.5389,2.708,2.7777,2.8203,2.851,2.851,2.851,2.851,2.851,2.851,2.8578,2.8578,2.8657,2.8882,2.8949,2.904,2.9197,2.9431,2.9509,2.9509,2.9702,2.9792,2.9792,2.9792,3.0279,3.0895,3.0895,3.0735,3.065,3.1188,3.0566,2.9993,3.0447,3.0568,3.0568,3.0568,3.0642,3.0687,3.0851,3.0747,3.0687,3.0911,3.0807,3.0821,3.1029,3.1087,3.1204,3.1495,3.1905,3.2226,3.2336,3.2895,3.3266,3.3198,3.3459,3.3563,3.3407,3.3563,3.3614,3.3614,3.3614,3.3614,3.3614,3.3614,3.3665,3.3665,3.3203,3.2624,3.1914,3.2046,3.2144,3.2144,3.2144,3.2144,2.5869,2.5982,2.6025,2.5073,2.457,2.4145,2.375,2.3621,2.3744,2.3787,2.436,2.4816,2.4848,2.4975,2.5115,2.4946,2.4861,2.4786,2.454,2.4292,2.4206,2.4206,2.3937,2.3667,2.3503,2.3503,2.3416,2.3135,2.2882,2.2794,2.2803,2.253,2.2441,2.2353,2.2353,2.3125,2.4659,2.6693,2.7719,2.7881,2.8271,2.851,2.851,2.851,2.851,2.851,2.851,2.8578,2.8803,2.8803,2.8882,2.9131,2.9263,2.9419,2.9431,2.9702,2.9792,2.9792,2.9792,2.9792,2.9792,2.9792,3.0279,3.0895,3.0895,3.1091,3.1254,3.1321,3.0962,3.0568,3.0568,3.0568,3.0568,3.0568,3.0702,3.0925,3.1522,3.119,3.0984,3.1721,3.1422,3.1234,3.1721,3.1834,3.2099,3.2772,3.2933,3.2986,3.3145,3.3646,3.3815,3.3251,3.4152,3.4594,3.4101,3.4546,3.4787,3.4787,3.4787,3.4787,3.4787,3.4787,3.4883,3.4994,3.4961,3.4625,3.3937,3.4479,3.4736,3.4736,3.4736,3.4783,2.5585,2.5181,2.4602,2.4803,2.4385,2.3817,2.3638,2.3431,2.3351,2.3667,2.3917,2.4263,2.4973,2.5131,2.5115,2.4946,2.4861,2.4786,2.454,2.4454,2.4368,2.4206,2.411,2.3937,2.3503,2.3503,2.3416,2.3135,2.3047,2.2969,2.2969,2.2882,2.2696,2.2432,2.2882,2.3907,2.5673,2.7126,2.8042,2.8283,2.8431,2.851,2.851,2.851,2.8578,2.8724,2.8724,2.8724,2.8791,2.8961,2.9118,2.9275,2.9341,2.9509,2.9702,2.9792,2.9792,2.9792,2.9792,2.9792,2.9856,3.0343,3.1057,3.1783,3.2205,3.222,3.2098,3.2098,3.1368,3.0642,3.0702,3.0702,3.0762,3.0895,3.1204,3.1679,3.2391,3.1694,3.1161,3.1777,3.1736,3.1694,3.1962,3.2336,3.2703,3.3093,3.3475,3.3713,3.3764,3.4284,3.4529,3.4317,3.4675,3.4804,3.4643,3.4804,3.4947,3.4994,3.5041,3.5041,3.5152,3.5152,3.5198,3.5245,3.5245,3.5088,3.4899,3.5041,3.5152,3.5152,3.5152,3.5198,2.4505,2.4204,2.3869,2.4494,2.4345,2.397,2.3824,2.3519,2.3238,2.3416,2.3613,2.3929,2.4563,2.4962,2.5187,2.5179,2.5031,2.4946,2.47,2.454,2.4454,2.4292,2.4282,2.411,2.3764,2.3677,2.3493,2.3232,2.3484,2.3396,2.3135,2.3396,2.3387,2.2872,2.4079,2.5263,2.6279,2.7534,2.8283,2.851,2.851,2.851,2.8578,2.8578,2.8736,2.8882,2.8949,2.9028,2.9028,2.9118,2.9353,2.9509,2.9509,2.9611,2.9792,2.9792,2.9792,2.9792,2.9792,2.9921,3.0279,3.0758,3.1623,3.2621,3.2905,3.2835,3.2596,3.2378,3.1608,3.0762,3.0895,3.0895,3.0999,3.1336,3.1694,3.2226,3.3161,3.2532,3.1936,3.2501,3.2485,3.2431,3.2734,3.3108,3.3475,3.3732,3.4118,3.4349,3.4349,3.4691,3.4899,3.4899,3.4947,3.4947,3.4947,3.4994,3.5088,3.5152,3.5152,3.5198,3.5308,3.5291,3.5291,3.5354,3.5354,3.5383,3.5412,3.5337,3.5291,3.5291,3.5291,3.5291,0.0,0.0,0.0,2.4047,2.4455,2.4646,2.4273,2.3897,2.3519,2.3075,2.3383,2.3711,2.3722,2.4497,2.5213,2.5546,2.5369,2.5115,2.4946,2.47,2.454,2.454,2.454,2.4454,2.4206,2.3937,2.3754,2.3503,2.4079,2.4069,2.3222,2.3983,2.4327,2.3927,2.6008,2.7021,2.6528,2.7846,2.851,2.851,2.851,2.8578,2.8791,2.8803,2.8882,2.9131,2.9341,2.9419,2.9419,2.9419,2.9599,2.9792,2.9792,2.9792,2.9792,2.9792,2.9792,2.9869,2.9869,3.0355,3.097,3.0957,3.2119,3.3364,3.2755,3.2753,3.2842,3.2161,3.1589,3.1087,3.1073,3.1132,3.1292,3.1977,3.213,3.2516,3.3832,3.3543,3.3266,3.3984,3.3646,3.3407,3.3984,3.4101,3.43,3.4804,3.4899,3.4899,3.4899,3.4899,3.4899,3.4899,3.4994,3.5088,3.5105,3.5245,3.5291,3.5291,3.5291,3.5291,3.5291,3.5291,3.5383,3.5492,3.5492,3.552,3.5622,3.5412,3.5291,3.5291,3.5291,3.5291,2.2367,0.0,0.0,0.0,0.0,0.0,2.3824,2.3897,2.3897,2.353,2.3557,2.3619,2.3667,2.3951,2.4399,2.5158,2.5416,2.538,2.5115,2.4946,2.4786,2.4786,2.4615,2.4454,2.4206,2.3937,2.3754,2.3503,2.4079,2.4413,2.4155,2.4829,2.5421,2.5768,2.6505,2.7092,2.7545,2.8191,2.851,2.851,2.8657,2.8724,2.8791,2.8961,2.9118,2.9341,2.9419,2.9509,2.9702,2.9702,2.9702,2.9792,2.9792,2.9792,2.9792,2.9792,3.0203,3.0833,3.0833,3.1389,3.2249,3.2847,3.2987,3.3082,3.347,3.2991,3.2205,3.2029,3.1589,3.1132,3.1234,3.1625,3.2064,3.2272,3.2964,3.3662,3.4034,3.4234,3.4317,3.4151,3.3984,3.3917,3.405,3.4399,3.4756,3.4899,3.4899,3.4899,3.4899,3.4899,3.4947,3.5041,3.5088,3.5152,3.5245,3.5291,3.5337,3.5446,3.5446,3.5475,3.5487,3.5503,3.5532,3.5594,3.5594,3.5756,3.6088,3.5711,3.5503,3.5503,3.5503,3.5503,2.157,2.1742,2.1907,2.236,0.0,0.0,2.3054,2.3128,2.3202,2.2681,2.2767,2.3014,2.2993,2.3361,2.3984,2.476,2.5202,2.5416,2.5348,2.5115,2.4861,2.4861,2.4615,2.4454,2.4378,2.4433,2.4251,2.3667,2.4914,2.5735,2.5663,2.5997,2.6257,2.6517,2.7174,2.7603,2.7893,2.8283,2.851,2.8657,2.8724,2.8882,2.9028,2.9197,2.9353,2.9599,2.9599,2.9689,2.9934,2.9934,2.9934,2.9934,2.9934,3.0011,3.0075,3.0368,3.0859,3.1341,3.1683,3.2157,3.2737,3.326,3.3183,3.3013,3.3162,3.2744,3.2153,3.1886,3.1545,3.1366,3.1667,3.2064,3.2508,3.298,3.3626,3.4151,3.4399,3.4691,3.4804,3.4497,3.4448,3.4448,3.4448,3.4691,3.4899,3.4899,3.4899,3.4899,3.4994,3.4994,3.5041,3.5152,3.5245,3.5291,3.54,3.5429,3.5458,3.552,3.5566,3.5639,3.5871,3.5871,3.5941,3.6139,3.6139,3.6266,3.6557,3.6114,3.5871,3.5915,3.6054,3.5941,2.0454,2.1051,2.169,2.169,2.2285,0.0,2.2209,2.2134,2.2059,2.1538,2.1863,2.2252,2.2327,2.3124,2.3897,2.448,2.4861,2.5273,2.5568,2.5211,2.4946,2.4946,2.47,2.454,2.454,2.5009,2.4914,2.3927,2.5997,2.7325,2.7348,2.7348,2.7185,2.6775,2.7857,2.8351,2.7962,2.8351,2.8657,2.8803,2.8882,2.9028,2.9419,2.9419,2.9599,2.9792,2.9792,2.9934,3.0075,3.0152,3.0152,3.0152,3.0228,3.0292,3.0508,3.1294,3.1609,3.1616,3.2368,3.2762,3.2887,3.2887,3.299,3.3015,3.2421,3.2333,3.2273,3.1704,3.1539,3.1739,3.2231,3.2492,3.2819,3.3832,3.4151,3.4349,3.4804,3.4899,3.4947,3.4947,3.4947,3.4947,3.4947,3.4947,3.4947,3.4947,3.4947,3.4994,3.5105,3.5105,3.5198,3.5291,3.5446,3.5492,3.5492,3.5549,3.5622,3.565,3.5667,3.5871,3.6343,3.6385,3.6516,3.69,3.6939,3.6978,3.6978,3.6557,3.6385,3.6385,3.6741,3.6498,1.9988,2.0426,2.0867,2.0867,2.1461,0.0,2.1907,2.236,2.2883,2.3065,2.3224,2.3372,2.3751,2.3977,2.4277,2.4767,2.4947,2.5201,2.5775,2.5464,2.5115,2.5115,2.4786,2.454,2.454,2.4444,2.4358,2.411,2.56,2.701,2.8179,2.8259,2.8179,2.8099,2.8351,2.8498,2.8645,2.8724,2.8803,2.9052,2.9184,2.9341,2.9419,2.9611,2.9779,2.9792,2.9934,3.0088,3.0075,3.0292,3.0368,3.0368,3.1009,3.0872,3.0583,3.1901,3.2162,3.1958,3.2741,3.3151,3.3354,3.3354,3.3047,3.2617,3.2482,3.2079,3.1704,3.1511,3.1853,3.2231,3.2398,3.3087,3.3832,3.405,3.4448,3.4804,3.4994,3.5041,3.5088,3.5198,3.5135,3.5105,3.5198,3.5198,3.5198,3.5198,3.5198,3.5245,3.5245,3.5245,3.5291,3.5446,3.5492,3.552,3.5594,3.5577,3.5739,3.6131,3.6174,3.6367,3.6759,3.6781,3.6821,3.69,3.7208,3.7377,3.7395,3.6978,3.6781,3.6781,3.686,3.6821,1.9678,2.0174,2.0566,2.0566,2.0867,0.0,0.0,2.1385,2.169,2.1766,2.2371,2.2905,2.3128,2.374,2.4349,2.4832,2.4751,2.4971,2.5732,2.5576,2.538,2.52,2.4871,2.4615,2.454,2.4775,2.5348,2.6091,2.6257,2.708,2.8736,2.8816,2.8816,2.8816,2.8816,2.8816,2.8961,2.8961,2.904,2.9275,2.9341,2.9509,2.9599,2.9702,2.9792,2.9792,3.0011,3.0152,3.0292,3.0872,3.1158,3.1294,3.1502,3.1723,3.1901,3.2709,3.2826,3.2716,3.3165,3.3158,3.3006,3.3006,3.2557,3.2018,3.2018,3.1794,3.1482,3.1482,3.191,3.2437,3.2749,3.3475,3.4218,3.4546,3.4851,3.5105,3.5198,3.5198,3.5245,3.5383,3.5354,3.5291,3.5291,3.5291,3.5291,3.5291,3.5291,3.5337,3.54,3.54,3.5429,3.5566,3.5773,3.5888,3.5958,3.6165,3.6416,3.662,3.6701,3.6921,3.734,3.734,3.7451,3.7632,3.7809,3.7931,3.7948,3.7703,3.745,3.7208,3.7469,3.7358,1.9344,1.9981,2.0401,2.0566,2.0566,2.0566,0.0,0.0,0.0,2.0245,2.1231,2.2134,2.2424,2.3412,2.4376,2.4927,2.4716,2.4842,2.5656,2.5713,2.5583,2.5348,2.5115,2.4871,2.4615,2.5348,2.64,2.773,2.7221,2.7476,2.9052,2.9131,2.9131,2.9131,2.9131,2.9131,2.9131,2.9131,2.9287,2.9509,2.9509,2.9677,2.9869,2.9856,2.9934,2.9934,3.0164,3.0305,3.052,3.1442,3.2015,3.229,3.229,3.2579,3.3058,3.3454,3.3383,3.3027,3.3223,3.2871,3.2332,3.2332,3.1958,3.1482,3.1482,3.1482,3.1524,3.164,3.212,3.2695,3.3251,3.3919,3.4545,3.5041,3.5198,3.5291,3.5337,3.5337,3.5383,3.5492,3.5537,3.5475,3.5383,3.5383,3.5383,3.5383,3.5383,3.5383,3.5537,3.5537,3.5566,3.5711,3.6088,3.6367,3.6451,3.6803,3.7058,3.7135,3.7266,3.7487,3.7895,3.7929,3.8083,3.8382,3.8354,3.8354,3.8382,3.8354,3.8086,3.7685,3.8138,3.7931,1.8452,1.9115,1.9618,2.0401,2.0566,2.0566,2.0566,0.0,2.0789,2.1461,0.0,2.2274,2.3599,0.0,0.0,2.5099,2.5297,2.5417,2.5546,2.5902,2.6006,2.5619,2.5295,2.5115,2.4861,2.5421,2.6152,2.6894,2.7557,2.8303,2.9052,2.9131,2.9131,2.9131,2.9131,2.9197,2.9341,2.9341,2.9521,2.9792,2.9921,3.0075,3.0075,3.0216,3.0292,3.0368,3.0533,3.0622,3.0773,3.1663,3.2434,3.3143,3.3754,3.3289,3.2466,3.3897,3.3195,3.1747,3.2391,3.2198,3.1586,3.1586,3.1541,3.1482,3.1482,3.1482,3.1582,3.212,3.2788,3.3391,3.3969,3.461,3.5182,3.5245,3.5291,3.5337,3.5446,3.5492,3.5475,3.5577,3.5577,3.5577,3.5577,3.5577,3.5577,3.5577,3.5577,3.5577,3.5577,3.5577,3.5756,3.6174,3.6308,3.6539,3.6865,3.7058,3.734,3.7703,3.7703,3.7895,3.8318,3.835,3.835,3.8382,3.8382,3.8382,3.8382,3.8382,3.835,3.83,3.835,3.835,1.7501,1.7987,1.8638,1.9608,1.9766,1.9835,2.0479,2.0566,2.0722,2.1011,0.0,0.0,0.0,0.0,0.0,0.0,2.5158,2.5201,2.5495,2.5757,2.5844,2.5746,2.5814,2.5675,2.5146,2.55,2.6152,2.6894,2.781,2.8712,2.9456,2.9546,2.9546,2.9546,2.9546,2.9546,2.9611,2.9611,2.9767,3.0011,3.0088,3.0152,3.0292,3.0368,3.0368,3.0444,3.0609,3.0898,3.1381,3.2376,3.3213,3.4081,3.4398,3.4089,3.355,3.3835,3.3106,3.2003,3.1945,3.1764,3.1539,3.167,3.167,3.167,3.1769,3.2023,3.2327,3.2532,3.3303,3.402,3.4284,3.4866,3.54,3.54,3.5429,3.5503,3.5549,3.5549,3.5549,3.5577,3.5622,3.5622,3.5622,3.5622,3.5622,3.5622,3.5622,3.5694,3.6011,3.6054,3.6266,3.6781,3.7076,3.7285,3.7433,3.7773,3.8032,3.8216,3.8267,3.8401,3.8578,3.8578,3.8578,3.8578,3.8496,3.8496,3.8578,3.8496,3.851,3.8621,3.851,3.8446,1.6986,1.7383,1.798,1.9292,1.9529,1.9599,2.0401,2.0566,2.0566,2.0566,2.168,0.0,0.0,0.0,2.5004,2.5229,0.0,2.5051,2.5406,2.5648,2.5813,2.5884,2.6171,2.6158,2.5667,2.6141,2.6678,2.7267,2.8299,2.9197,2.9792,2.9792,2.9792,2.9792,2.9792,2.9792,2.9792,2.9869,2.9934,3.0075,3.0228,3.0305,3.0444,3.052,3.0596,3.0596,3.0761,3.1246,3.2015,3.3003,3.3919,3.467,3.479,3.4618,3.4252,3.3592,3.2931,3.2285,3.182,3.1655,3.1655,3.1784,3.1841,3.1898,3.215,3.2492,3.2841,3.3161,3.3818,3.4464,3.4642,3.5102,3.552,3.552,3.5549,3.5622,3.5622,3.5622,3.5667,3.5667,3.5667,3.5711,3.5711,3.5667,3.5667,3.5667,3.5667,3.5915,3.6374,3.6457,3.6684,3.7285,3.7632,3.7877,3.7998,3.8332,3.8559,3.8559,3.8658,3.8707,3.8707,3.8707,3.8707,3.8707,3.8621,3.8621,3.8719,3.8652,3.8664,3.8822,3.8652,3.8541,1.731,1.7779,1.8141,2.0079,2.0557,2.0566,2.0566,2.0566,2.0566,2.0566,2.1242,2.2059,2.2883,2.361,2.4409,0.0,2.5312,0.0,0.0,2.5642,2.5948,2.6141,2.6323,2.6399,2.6335,2.742,2.8041,2.7912,2.9197,3.0011,2.9792,2.9792,2.9792,2.9792,2.9792,2.9792,2.9792,3.0011,3.0075,3.0075,3.047,3.0698,3.0698,3.0911,3.0986,3.0986,3.1198,3.1676,3.2434,3.3367,3.4192,3.4883,3.4964,3.4592,3.3939,3.3256,3.2604,3.2012,3.1996,3.1996,3.1996,3.1996,3.1996,3.2094,3.2602,3.2788,3.3002,3.407,3.4464,3.4752,3.5321,3.5503,3.5577,3.5577,3.5622,3.5622,3.5622,3.5711,3.5773,3.5773,3.5905,3.5975,3.5975,3.5905,3.5773,3.5773,3.5888,3.6131,3.6539,3.658,3.6882,3.7721,3.7843,3.8047,3.8428,3.8609,3.8707,3.8707,3.8707,3.8707,3.8707,3.8707,3.8707,3.8707,3.8762,3.8792,3.8792,3.8881,3.8892,3.8892,3.875,3.8719,1.5474,1.5543,1.6026,1.8132,1.8541,1.8789,2.0245,2.0566,2.0566,2.0566,2.169,2.266,2.2957,2.4059,0.0,0.0,0.0,2.5312,0.0,2.5943,2.6578,2.6987,2.6912,2.6894,2.6894,2.763,2.8169,2.8093,2.9338,3.0075,3.0011,2.9869,2.9792,2.9792,2.9792,2.9869,3.0011,3.0075,3.0228,3.047,3.0622,3.0773,3.0911,3.0986,3.1061,3.1198,3.1823,3.2519,3.3367,3.4192,3.4741,3.509,3.4623,3.4132,3.3563,3.3117,3.2573,3.1996,3.1996,3.1996,3.1996,3.2094,3.215,3.2247,3.2895,3.3303,3.3716,3.448,3.4958,3.5316,3.5487,3.5577,3.5622,3.5711,3.5728,3.5773,3.5844,3.5888,3.5932,3.5932,3.5975,3.6088,3.635,3.6374,3.6374,3.635,3.635,3.6643,3.7379,3.7452,3.7685,3.8318,3.8433,3.8496,3.8609,3.8658,3.8707,3.8707,3.8707,3.8707,3.8707,3.875,3.878,3.878,3.8822,3.8881,3.8881,3.891,3.8921,3.895,3.8881,3.8851,1.4811,1.4887,1.5296,1.709,1.7666,1.8149,1.9678,2.0245,2.0489,2.0489,2.1614,2.2499,2.2349,2.3745,0.0,0.0,0.0,0.0,0.0,2.6013,2.6714,2.7255,2.7417,2.7423,2.7193,2.7628,2.8052,2.8285,2.9074,2.9783,3.0216,3.0075,3.0011,3.0011,3.0011,3.0075,3.0228,3.0305,3.0457,3.0698,3.0773,3.0836,3.0986,3.1061,3.1334,3.175,3.2304,3.3199,3.4312,3.4861,3.5153,3.5262,3.4588,3.3971,3.3383,3.2924,3.2516,3.215,3.215,3.215,3.215,3.2247,3.2398,3.2641,3.3303,3.3869,3.4382,3.4927,3.5316,3.5622,3.5667,3.5667,3.5711,3.5861,3.5861,3.5888,3.5975,3.6019,3.6062,3.6062,3.6216,3.6392,3.6661,3.6882,3.6943,3.6865,3.6882,3.7173,3.7877,3.7964,3.815,3.8658,3.8707,3.8707,3.8707,3.8707,3.8707,3.8719,3.8719,3.875,3.878,3.8822,3.8851,3.8851,3.891,3.8939,3.8939,3.895,3.9007,3.9036,3.9007,3.9007]}]]